Date StartTime U_cm/s V_cm/s W_cm/s Ustd_cm/s Vstd_cm/s Wstd_cm/s Uvar_(cm/s)^2 Vvar_(cm/s)^2 Wvar_(cm/s)^2 KE_(m/s)^2 TurbulentKE_(m/s)^2 HorizWindSpeed_cm/s FrictionSpeec_cm/s DragCoef SpeedOfSound_m/s SonicTemperature_C Pressure_mb 
05/03/2014  00:00:00     -152.317      -46.716       -0.987       75.904       52.898       31.377     5761.405     2798.234      984.531        1.746        0.477      159.320       33.544        0.044      342.679       18.256      861.338
05/03/2014  00:01:00     -162.035      -79.986        0.691       82.750       58.598       26.591     6847.486     3433.679      707.099        2.182        0.549      180.702       28.662        0.025      342.658       18.220      861.332
05/03/2014  00:02:00     -258.054      -64.563       -5.954      112.096       85.377       44.843    12565.541     7289.219     2010.874        4.633        1.093      266.008       51.152        0.037      342.595       18.112      861.332
05/03/2014  00:03:00     -363.562      -56.416      -20.935      131.633      111.226       64.832    17327.346    12371.295     4203.189        8.484        1.695      367.914       62.960        0.029      342.820       18.493      861.311
05/03/2014  00:04:00     -404.202      -30.330      -33.671      150.935       92.873       55.809    22781.309     8625.334     3114.649        9.997        1.726      405.338       74.114        0.033      342.860       18.562      861.312
05/03/2014  00:05:00     -112.939      -52.204        7.984      116.934       66.982       38.295    13673.496     4486.649     1466.493        1.758        0.981      124.421       50.612        0.165      342.778       18.424      861.340
05/03/2014  00:06:00       55.445       39.024       11.815       27.094       27.107       18.198      734.085      734.790      331.156        0.327        0.090       67.801       10.244        0.023      342.623       18.163      861.335
05/03/2014  00:07:00      111.581       55.588       11.602       57.985       30.146       23.477     3362.252      908.765      551.174        1.025        0.241      124.661       12.742        0.010      342.619       18.156      861.318
05/03/2014  00:08:00      119.280       80.594       11.390       57.956       40.359       35.614     3358.885     1628.836     1268.358        1.355        0.313      143.955        8.306        0.003      342.659       18.223      861.294
05/03/2014  00:09:00      126.555       77.736        7.988       42.022       40.891       28.223     1765.847     1672.104      796.542        1.318        0.212      148.523       15.438        0.011      342.796       18.456      861.278
05/03/2014  00:10:00       48.691       51.125        4.776       57.803       42.080       27.931     3341.223     1770.766      780.138        0.545        0.295       70.602       24.918        0.125      342.609       18.138      861.271
05/03/2014  00:11:00       29.364       96.885      -10.254       29.604       39.027       22.223      876.379     1523.071      493.856        0.662        0.145      101.238       19.653        0.038      342.727       18.337      861.268
05/03/2014  00:12:00       -0.850       98.423      -12.524       40.186       38.316       26.105     1614.895     1468.079      681.490        0.680        0.188       98.427       23.727        0.058      342.786       18.440      861.253
05/03/2014  00:13:00      -33.393       36.436      -11.584       16.763       34.012        8.766      280.995     1156.788       76.841        0.205        0.076       49.424       10.908        0.049      342.769       18.412      861.249
05/03/2014  00:14:00      -24.029        0.702        3.542       22.553       15.818       16.496      508.642      250.202      272.109        0.081        0.052       24.039       13.163        0.300      342.606       18.133      861.228
05/03/2014  00:15:00       26.884       18.341       11.291       14.213       13.051       18.234      201.999      170.335      332.463        0.095        0.035       32.545        8.123        0.062      341.767       16.708      861.211
05/03/2014  00:16:00      -37.571       23.205        5.140       29.441       13.082       12.999      866.756      171.133      168.974        0.159        0.060       44.160        7.239        0.027      342.087       17.251      861.204
05/03/2014  00:17:00      -58.940       15.073       -2.091       22.007       17.408       11.482      484.312      303.052      131.837        0.231        0.046       60.837        8.637        0.020      342.358       17.712      861.215
05/03/2014  00:18:00      -11.470       64.669       -5.235       39.870       43.967       16.854     1589.593     1933.121      284.074        0.407        0.190       65.679       20.341        0.096      342.541       18.023      861.205
05/03/2014  00:19:00       15.541        9.705       27.535       22.646       29.341       19.581      512.855      860.868      383.425        0.143        0.088       18.322        8.868        0.234      341.607       16.438      861.215
05/03/2014  00:20:00      -19.070       37.203       -0.276       36.934       22.874       17.709     1364.149      523.223      313.594        0.197        0.110       41.806       22.776        0.297      342.286       17.588      861.233
05/03/2014  00:21:00       45.802        3.829       11.050       38.487       24.176       25.372     1481.282      584.479      643.745        0.247        0.135       45.961       14.374        0.098      341.667       16.538      861.231
05/03/2014  00:22:00       69.255       -6.547       25.559       31.120       29.377       29.087      968.467      863.030      846.044        0.408        0.134       69.564       20.659        0.088      341.396       16.081      861.216
05/03/2014  00:23:00       36.885       -3.847       26.618       34.197       27.863       23.453     1169.426      776.347      550.052        0.229        0.125       37.085       22.069        0.354      341.349       15.999      861.196
05/03/2014  00:24:00        2.308        8.815       36.961       23.064       35.712       26.564      531.948     1275.364      705.635        0.198        0.126        9.112       14.171        2.419      341.659       16.524      861.175
05/03/2014  00:25:00       28.593       48.609       69.049       49.652       43.025       32.698     2465.289     1851.137     1069.143        0.667        0.269       56.395        5.383        0.009      341.996       17.098      861.147
05/03/2014  00:26:00       93.262       91.981       78.930       68.032       44.515       41.651     4628.339     1981.564     1734.838        1.586        0.417      130.990       35.585        0.074      341.887       16.910      861.140
05/03/2014  00:27:00      126.053       60.905       32.315       57.974       43.433       33.345     3360.946     1886.469     1111.897        1.350        0.318      139.996       28.387        0.041      341.954       17.024      861.128
05/03/2014  00:28:00       97.411       60.077       35.083       58.420       45.673       32.421     3412.940     2086.028     1051.119        1.044        0.328      114.448       17.251        0.023      341.998       17.100      861.121
05/03/2014  00:29:00       39.369       36.653       60.600       55.204       54.008       42.550     3047.493     2916.873     1810.544        0.717        0.389       53.790       32.045        0.355      341.897       16.929      861.117
05/03/2014  00:30:00       35.362      -16.026       90.053       83.269      173.362       96.998     6933.659    30054.438     9408.681        2.800        2.320       38.824       99.526        6.572      342.343       17.685      861.118
05/03/2014  00:31:00       -0.832      -67.436        8.325       98.204      126.159       41.253     9644.044    15915.976     1701.816        1.593        1.363       67.441       35.473        0.277      342.666       18.236      861.155
05/03/2014  00:32:00       42.065     -118.123        5.699      100.473      100.476       52.601    10094.875    10095.347     2766.907        1.935        1.148      125.389       36.114        0.083      342.672       18.244      861.179
05/03/2014  00:33:00       54.171       24.700       20.986       58.827       89.039       43.981     3460.657     7927.926     1934.352        0.865        0.666       59.536       40.305        0.458      342.529       18.002      861.088
05/03/2014  00:34:00      147.910      112.215       50.329      115.784      143.513      111.059    13406.040    20595.959    12334.199        4.166        2.317      185.660       48.211        0.067      342.714       18.313      860.981
05/03/2014  00:35:00       43.337     -193.807      -14.435       92.833      141.827       80.834     8618.002    20114.922     6534.057        3.745        1.763      198.593       80.833        0.166      342.656       18.214      861.032
05/03/2014  00:36:00       93.637       34.958       71.171       61.115      127.076       74.384     3735.053    16148.235     5533.053        2.023        1.271       99.950       79.253        0.629      342.366       17.725      861.070
05/03/2014  00:37:00       58.328      -54.112       41.784       86.512      145.368       82.783     7484.292    21131.837     6853.089        2.177        1.773       79.563       96.326        1.466      342.443       17.855      861.118
05/03/2014  00:38:00       17.331       41.136       48.644       36.456       54.582       33.798     1329.040     2979.182     1142.305        0.490        0.273       44.638       32.612        0.534      341.862       16.870      861.073
05/03/2014  00:39:00      -71.813      -11.367      -17.747       41.272       41.021       37.044     1703.380     1682.710     1372.252        0.518        0.238       72.707       29.952        0.170      342.496       17.947      861.082
05/03/2014  00:40:00     -168.783      -44.135      -11.538      101.798       69.879       28.282    10362.868     4883.074      799.888        2.330        0.802      174.458       26.916        0.024      342.715       18.315      861.060
05/03/2014  00:41:00      -88.242      -67.073      -22.910      131.863      108.538       61.388    17387.728    11780.409     3768.445        2.287        1.647      110.840       60.901        0.302      342.887       18.608      861.101
05/03/2014  00:42:00      107.473       80.010       12.490       34.397       45.919       45.474     1183.138     2108.577     2067.896        1.173        0.268      133.985       16.231        0.015      342.774       18.418      861.046
05/03/2014  00:43:00       66.872        1.303       23.150       42.403       24.583       25.270     1798.019      604.313      638.594        0.402        0.152       66.885       25.641        0.147      341.856       16.860      861.054
05/03/2014  00:44:00       42.770      -12.436       15.370       30.312       23.359       22.370      918.813      545.639      500.420        0.209        0.098       44.542       10.772        0.058      342.236       17.505      861.074
05/03/2014  00:45:00       58.766       20.834       30.392       35.983       51.810       36.667     1294.793     2684.285     1344.467        0.507        0.266       62.350       26.177        0.176      341.814       16.789      861.065
05/03/2014  00:46:00       29.654       37.237       16.422       43.199       35.948       32.199     1866.151     1292.242     1036.803        0.336        0.210       47.603       19.588        0.169      342.179       17.408      861.051
05/03/2014  00:47:00       -1.004        7.272       -9.289       27.005       21.400       12.461      729.279      457.956      155.268        0.074        0.067        7.341       11.152        2.308      342.312       17.635      861.017
05/03/2014  00:48:00      -71.372       76.940      -20.043       22.840       30.541       13.467      521.652      932.757      181.358        0.653        0.082      104.946       13.850        0.017      342.600       18.123      861.010
05/03/2014  00:49:00      -34.651      106.306      -17.804       38.564       37.772       24.964     1487.194     1426.736      623.183        0.818        0.177      111.811        6.378        0.003      342.705       18.302      861.013
05/03/2014  00:50:00        2.299       32.058        6.433       26.141       16.815       17.410      683.333      282.750      303.107        0.117        0.063       32.140       11.814        0.135      342.649       18.206      861.008
05/03/2014  00:51:00       65.523      -21.039       12.335       27.063       20.148       21.724      732.393      405.932      471.938        0.325        0.081       68.818       16.832        0.060      341.278       15.880      860.990
05/03/2014  00:52:00       31.037      -45.747        6.747       26.261       45.188       27.374      689.642     2041.960      749.350        0.329        0.174       55.282       31.382        0.322      341.035       15.468      860.980
05/03/2014  00:53:00       82.672       75.036       45.795       59.824       31.439       36.466     3578.866      988.439     1329.773        1.023        0.295      111.647       28.113        0.063      341.896       16.928      860.978
05/03/2014  00:54:00      115.967       65.210       26.189       49.254       42.028       31.164     2425.964     1766.346      971.225        1.177        0.258      133.044       23.165        0.030      342.149       17.356      860.994
05/03/2014  00:55:00      101.307       43.132       27.666       37.863       30.174       28.824     1433.639      910.442      830.827        0.803        0.159      110.106       19.236        0.031      341.881       16.902      861.014
05/03/2014  00:56:00       77.499       26.523       18.757       30.760       30.113       25.474      946.166      906.799      648.901        0.478        0.125       81.912       12.904        0.025      341.879       16.897      861.026
05/03/2014  00:57:00       74.186       23.054        9.468       40.153       28.743       29.676     1612.250      826.179      880.661        0.472        0.166       77.685       18.845        0.059      341.797       16.759      860.994
05/03/2014  00:58:00       18.841       23.912        2.003       23.535       33.044       17.470      553.916     1091.887      305.185        0.144        0.098       30.443       13.808        0.206      341.942       17.005      860.949
05/03/2014  00:59:00       22.799        9.344       14.500       62.385       30.782       29.043     3891.939      947.514      843.469        0.325        0.284       24.639       12.215        0.246      342.131       17.327      860.936
05/03/2014  01:00:00     -100.562       12.746       -9.972       32.182       56.552       24.385     1035.707     3198.137      594.650        0.760        0.241      101.366       23.170        0.052      341.997       17.099      860.950
05/03/2014  01:01:00       -7.837      190.311       -3.512       60.215       80.066       40.674     3625.790     6410.640     1654.352        2.399        0.585      190.472       39.012        0.042      342.478       17.913      860.931
05/03/2014  01:02:00       30.668      190.601      -30.841       49.900       60.537       24.912     2490.027     3664.730      620.590        2.250        0.339      193.052       25.576        0.018      342.559       18.052      860.885
05/03/2014  01:03:00       49.273      218.075      -23.623       61.385       89.941       50.551     3768.174     8089.432     2555.400        3.247        0.721      223.572       51.716        0.054      342.536       18.011      860.865
05/03/2014  01:04:00       47.418      197.357      -22.005       58.718       94.899       52.043     3447.781     9005.737     2708.459        2.842        0.758      202.974       57.721        0.081      342.576       18.081      860.869
05/03/2014  01:05:00       93.232      105.343        1.132       64.464       67.011       44.172     4155.635     4490.515     1951.178        1.519        0.530      140.675       38.362        0.074      342.548       18.035      860.892
05/03/2014  01:06:00       53.519      121.352      -11.584       39.109       47.429       32.975     1529.553     2249.507     1087.335        1.129        0.243      132.630       26.756        0.041      342.531       18.007      860.900
05/03/2014  01:07:00       52.224      102.427      -14.098       40.989       47.237       29.184     1680.080     2231.306      851.686        0.909        0.238      114.973       24.193        0.044      342.629       18.173      860.897
05/03/2014  01:08:00      -63.315       26.225       -9.947       30.776       33.848       13.962      947.165     1145.708      194.937        0.354        0.114       68.531       10.946        0.026      342.623       18.163      860.887
05/03/2014  01:09:00     -104.651      -74.171      -17.653       61.271       36.110       25.985     3754.153     1303.958      675.232        1.125        0.287      128.270       21.363        0.028      342.657       18.218      860.914
05/03/2014  01:10:00     -104.488     -103.998       15.407       86.905       92.805       46.563     7552.552     8612.805     2168.077        2.015        0.917      147.422       52.075        0.125      342.353       17.701      860.926
05/03/2014  01:11:00      -74.426      -61.745       -5.019       65.437       59.893       30.464     4282.016     3587.113      928.068        0.909        0.440       96.704       31.631        0.107      342.330       17.664      860.904
05/03/2014  01:12:00      -36.592     -105.236       11.104       40.305       74.915       25.043     1624.458     5612.263      627.162        1.020        0.393      111.416       29.559        0.070      342.528       18.001      860.874
05/03/2014  01:13:00      -52.339      -92.447       -4.506       57.202       43.370       26.042     3272.018     1880.938      678.203        0.857        0.292      106.234       24.338        0.052      342.664       18.231      860.862
05/03/2014  01:14:00      -43.176       -1.488      -34.350       55.826       53.077       19.451     3116.576     2817.181      378.338        0.468        0.316       43.202        9.495        0.048      342.835       18.523      860.876
05/03/2014  01:15:00       38.298      -13.236       26.259       43.698       47.646       28.891     1909.500     2270.162      834.700        0.367        0.251       40.521       21.035        0.269      341.742       16.665      860.907
05/03/2014  01:16:00       19.439      -73.712        0.003       46.950       44.847       39.276     2204.266     2011.285     1542.570        0.578        0.288       76.232       24.177        0.101      342.426       17.826      860.946
05/03/2014  01:17:00       36.855       23.373       29.675       35.584       39.580       35.046     1266.210     1566.612     1228.201        0.342        0.203       43.642       22.559        0.267      341.381       16.053      860.904
05/03/2014  01:18:00       86.646       62.245       18.955       30.827       24.377       26.260      950.293      594.222      689.563        0.699        0.112      106.687       11.217        0.011      341.692       16.582      860.805
05/03/2014  01:19:00       39.098       31.922       24.143       41.893       38.941       40.920     1755.042     1516.429     1674.482        0.404        0.247       50.474       19.028        0.142      342.126       17.318      860.745
05/03/2014  01:20:00      -49.698      -36.827       -9.185       39.649       24.260       18.312     1572.044      588.562      335.326        0.320        0.125       61.855       15.316        0.061      342.134       17.331      860.780
05/03/2014  01:21:00     -159.079       -2.559      -19.630       62.971       46.369       25.522     3965.285     2150.065      651.368        1.623        0.338      159.100       27.682        0.030      341.996       17.096      860.818
05/03/2014  01:22:00      -88.661       -6.420       -6.413       40.854       33.742       23.337     1669.048     1138.553      544.619        0.565        0.168       88.893       18.968        0.046      342.113       17.294      860.847
05/03/2014  01:23:00      -24.718        7.900        4.375       20.995       28.280       18.465      440.793      799.771      340.942        0.114        0.079       25.950       13.683        0.278      342.066       17.217      860.894
05/03/2014  01:24:00       -5.509       21.313        7.226       23.552       17.070       11.872      554.706      291.387      140.944        0.076        0.049       22.013       11.460        0.271      341.885       16.908      860.880
05/03/2014  01:25:00       51.909       37.595        5.559       24.234       29.479       21.595      587.284      869.010      466.355        0.303        0.096       64.093       11.189        0.030      341.561       16.359      860.844
05/03/2014  01:26:00       -6.184      126.890       -4.430       23.406       42.874       23.300      547.838     1838.145      542.884        0.954        0.146      127.041       17.882        0.020      342.180       17.410      860.811
05/03/2014  01:27:00     -106.304      193.353      -15.951       78.288       86.331       45.699     6128.956     7453.029     2088.394        3.230        0.784      220.649       35.053        0.025      342.532       18.005      860.759
05/03/2014  01:28:00      -80.961      138.973      -19.943       28.696       44.406       26.561      823.441     1971.869      705.511        1.488        0.175      160.835       18.770        0.014      342.637       18.185      860.777
05/03/2014  01:29:00      -38.446      104.869      -14.712       44.036       29.671       19.106     1939.179      880.360      365.038        0.794        0.159      111.694       13.855        0.015      342.693       18.283      860.817
05/03/2014  01:30:00        9.625       88.723      -13.781       50.480       56.420       23.451     2548.243     3183.200      549.935        0.722        0.314       89.243       23.641        0.070      342.637       18.185      860.819
05/03/2014  01:31:00      -34.406      105.857      -18.819       40.877       58.912       22.623     1670.933     3470.610      511.785        0.920        0.283      111.308       25.311        0.052      342.573       18.077      860.766
05/03/2014  01:32:00      -12.511      195.159      -19.475       94.254      106.131       46.808     8883.773    11263.768     2191.033        3.048        1.117      195.559       45.813        0.055      342.534       18.009      860.695
05/03/2014  01:33:00     -193.691      107.478      -30.189       49.469       87.513       37.439     2447.200     7658.573     1401.681        3.074        0.575      221.512       42.618        0.037      342.555       18.045      860.671
05/03/2014  01:34:00     -105.008       46.725      -13.314       37.690       23.747       22.919     1420.526      563.940      525.258        0.795        0.125      114.935       18.287        0.025      342.414       17.808      860.670
05/03/2014  01:35:00     -132.576       69.731      -16.410       44.391       49.707       32.217     1970.519     2470.814     1037.928        1.409        0.274      149.796       23.866        0.025      342.478       17.917      860.685
05/03/2014  01:36:00     -138.880      -29.277       -8.318       63.538       47.883       37.806     4037.055     2292.798     1429.312        1.398        0.388      141.932       36.427        0.066      342.489       17.934      860.674
05/03/2014  01:37:00     -163.685      -66.717      -38.989       61.364       63.967       48.030     3765.544     4091.817     2306.879        2.146        0.508      176.760       29.591        0.028      342.637       18.184      860.662
05/03/2014  01:38:00      -74.028       10.645       -7.178       43.523       58.761       27.529     1894.260     3452.829      757.827        0.587        0.305       74.789       29.821        0.159      342.588       18.101      860.614
05/03/2014  01:39:00     -155.619      104.152      -30.276       56.771       60.785       39.246     3222.895     3694.848     1540.214        2.222        0.423      187.256       41.963        0.050      342.553       18.040      860.582
05/03/2014  01:40:00     -213.279       51.756      -20.018       70.673       54.471       30.094     4994.702     2967.047      905.645        2.872        0.443      219.469       26.290        0.014      342.618       18.150      860.605
05/03/2014  01:41:00      -92.416       65.687       -9.481       77.400       71.963       24.695     5990.754     5178.732      609.832        1.236        0.589      113.382       12.385        0.012      342.546       18.032      860.590
05/03/2014  01:42:00       -6.977      181.673      -28.523       48.745       72.980       28.029     2376.081     5326.022      785.644        2.118        0.424      181.807       35.608        0.038      342.534       18.011      860.513
05/03/2014  01:43:00     -151.167       35.665       -9.289       45.040       31.914       22.177     2028.569     1018.514      491.832        1.387        0.177      155.317       17.678        0.013      342.407       17.795      860.501
05/03/2014  01:44:00      -81.559       39.099       -8.253       44.756       54.620       25.668     2003.143     2983.379      658.856        0.695        0.282       90.447       24.588        0.074      342.357       17.710      860.549
05/03/2014  01:45:00      -80.800       72.706       -7.507       37.139       33.897       25.189     1379.304     1149.004      634.461        0.752        0.158      108.696       21.637        0.040      342.484       17.925      860.557
05/03/2014  01:46:00       -8.646        1.277       13.492       32.336       28.349       14.836     1045.591      803.656      220.097        0.116        0.103        8.740       17.729        4.115      342.382       17.753      860.574
05/03/2014  01:47:00        4.293        7.480       26.643       19.157       43.332       27.022      367.006     1877.704      730.192        0.188        0.149        8.625       29.389       11.611      341.583       16.396      860.535
05/03/2014  01:48:00       30.963      -37.033        2.800       47.339       52.657       40.321     2240.939     2772.800     1625.797        0.449        0.332       48.271       30.156        0.390      341.603       16.430      860.508
05/03/2014  01:49:00       95.215     -168.251      -15.354       65.889       67.968       44.800     4341.384     4619.651     2007.011        2.429        0.548      193.324       36.925        0.036      341.849       16.845      860.529
05/03/2014  01:50:00        8.335       76.101      101.238       51.137       79.918       56.047     2614.968     6386.863     3141.246        1.412        0.607       76.557       54.154        0.500      341.266       15.860      860.519
05/03/2014  01:51:00       57.041       53.971       88.611       81.828       71.209       62.133     6695.820     5070.779     3860.547        1.482        0.781       78.528       57.912        0.544      341.036       15.471      860.478
05/03/2014  01:52:00       68.209       21.424       51.714       54.466       46.425       50.074     2966.598     2155.302     2507.384        0.771        0.381       71.495       37.883        0.281      341.018       15.440      860.458
05/03/2014  01:53:00      100.287       70.620       55.723       48.731       40.754       34.515     2374.716     1660.917     1191.258        1.169        0.261      122.656       25.751        0.044      341.010       15.427      860.447
05/03/2014  01:54:00       97.217       69.689       19.874       51.792       40.150       28.189     2682.459     1612.012      794.641        0.989        0.254      119.615       23.250        0.038      341.359       16.014      860.455
05/03/2014  01:55:00       20.897      105.161      -19.673       42.625       53.342       19.448     1816.911     2845.408      378.219        0.846        0.252      107.218       24.350        0.052      341.326       15.961      860.464
05/03/2014  01:56:00       67.668       75.953       -3.149       40.926       47.070       33.040     1674.976     2215.592     1091.612        0.767        0.249      101.724       25.587        0.063      341.250       15.833      860.428
05/03/2014  01:57:00       56.212       55.605       11.569       54.495       34.084       29.148     2969.672     1161.699      849.610        0.568        0.249       79.068       14.919        0.036      341.227       15.793      860.448
05/03/2014  01:58:00      131.042       50.311       16.224       31.982       30.432       27.139     1022.822      926.125      736.525        1.133        0.134      140.368       16.359        0.014      340.988       15.387      860.439
05/03/2014  01:59:00      108.449       43.529       13.069       53.232       44.509       32.863     2833.699     1981.038     1079.961        0.986        0.295      116.859       24.636        0.044      341.051       15.496      860.418
05/03/2014  02:00:00      117.471       57.030       17.644       39.342       43.067       31.317     1547.780     1854.777      980.784        1.087        0.219      130.582       16.839        0.017      341.036       15.469      860.420
05/03/2014  02:01:00       75.324       55.087       23.916       47.431       30.509       24.835     2249.676      930.829      616.774        0.654        0.190       93.319       14.114        0.023      340.999       15.406      860.384
05/03/2014  02:02:00       38.561       50.481       -1.252       45.068       34.759       26.835     2031.148     1208.208      720.093        0.400        0.198       63.524       21.489        0.114      341.051       15.494      860.375
05/03/2014  02:03:00       13.845       67.413       -5.105       32.462       29.199       16.029     1053.775      852.584      256.924        0.346        0.108       68.820       13.850        0.041      341.114       15.602      860.357
05/03/2014  02:04:00      -57.890       17.872      -16.336       30.880       39.950        9.337      953.595     1595.968       87.180        0.329        0.132       60.586       10.679        0.031      341.085       15.553      860.354
05/03/2014  02:05:00     -109.604      -67.143      -12.846       33.596       24.196       13.493     1128.696      585.450      182.064        0.929        0.095      128.535        8.207        0.004      341.004       15.415      860.415
05/03/2014  02:06:00      -42.983      -32.885        5.886       41.529       28.881       20.554     1724.640      834.109      422.484        0.297        0.149       54.120       15.743        0.085      340.984       15.382      860.442
05/03/2014  02:07:00       23.492       -8.697       11.252       24.142       23.839       15.905      582.823      568.319      252.959        0.108        0.070       25.051       18.708        0.558      340.893       15.228      860.446
05/03/2014  02:08:00      125.392       49.154        9.904       46.188       30.508       25.923     2133.314      930.745      671.986        1.099        0.187      134.682       12.358        0.008      340.381       14.363      860.388
05/03/2014  02:09:00       77.768       67.881       63.672       74.562       57.594       56.231     5559.561     3317.078     3161.936        1.337        0.602      103.226       53.047        0.264      340.704       14.908      860.313
05/03/2014  02:10:00       39.763       -4.672       41.950       48.318       42.578       30.324     2334.619     1812.874      919.565        0.421        0.253       40.037       26.461        0.437      340.533       14.620      860.355
05/03/2014  02:11:00       10.934      -88.690      -10.115       45.531       26.536       19.349     2073.100      704.136      374.374        0.562        0.158       89.361       11.530        0.017      341.232       15.803      860.393
05/03/2014  02:12:00       48.837      -68.022        2.064       40.726       31.244       25.308     1658.611      976.198      640.472        0.515        0.164       83.738        9.543        0.013      341.317       15.945      860.393
05/03/2014  02:13:00      -11.568      -34.949      -14.739       28.534       25.856       25.783      814.179      668.521      664.744        0.186        0.107       36.814       13.484        0.134      341.294       15.907      860.388
05/03/2014  02:14:00      -78.342       13.954       -2.840       15.683       13.285       11.233      245.969      176.488      126.175        0.344        0.027       79.575        7.682        0.009      341.256       15.842      860.356
05/03/2014  02:15:00      -14.569       15.951       16.646       20.151       18.262       13.373      406.066      333.482      178.834        0.083        0.046       21.603       12.346        0.327      340.770       15.019      860.397
05/03/2014  02:16:00       13.259       12.910       14.168       25.114       10.852       12.390      630.736      117.764      153.524        0.072        0.045       18.506        7.847        0.180      340.442       14.465      860.408
05/03/2014  02:17:00       11.187       28.910        5.826       34.500       22.057       16.196     1190.268      486.504      262.315        0.147        0.097       30.999       15.367        0.246      340.680       14.869      860.357
05/03/2014  02:18:00        0.227       36.828        2.169       26.716       19.154       10.484      713.745      366.878      109.922        0.128        0.060       36.828       10.446        0.080      341.075       15.537      860.333
05/03/2014  02:19:00        3.169      100.239      -11.349       13.711       15.913        9.747      187.979      253.210       95.011        0.536        0.027      100.289        7.477        0.006      341.270       15.867      860.333
05/03/2014  02:20:00      -20.099       48.517       -0.637       21.465       23.254       15.023      460.753      540.762      225.681        0.199        0.061       52.515       12.255        0.054      341.252       15.835      860.327
05/03/2014  02:21:00       -5.266       74.897       -3.110       14.340       25.417       12.644      205.629      646.046      159.883        0.333        0.051       75.082       13.025        0.030      341.268       15.863      860.315
05/03/2014  02:22:00       -9.225       45.383       -1.509       17.162       22.499       14.151      294.533      506.223      200.258        0.157        0.050       46.312       13.700        0.088      341.194       15.738      860.328
05/03/2014  02:23:00      -28.890       16.204       -2.943       19.531       10.318       10.246      381.445      106.452      104.990        0.085        0.030       33.124        3.923        0.014      341.104       15.585      860.352
05/03/2014  02:24:00       13.946       39.576        4.876       23.249       17.303       13.844      540.531      299.391      191.664        0.141        0.052       41.961       12.097        0.083      341.199       15.746      860.358
05/03/2014  02:25:00       50.821       -5.072        9.888       15.518       16.802       18.946      240.817      282.315      358.961        0.179        0.044       51.074       10.992        0.046      340.752       14.988      860.360
05/03/2014  02:26:00       52.183        4.929       25.531       39.244       23.957       24.673     1540.124      573.919      608.780        0.306        0.136       52.415       23.571        0.202      340.481       14.532      860.362
05/03/2014  02:27:00      154.906       75.962       15.127       63.202       55.919       33.905     3994.494     3126.958     1149.560        1.913        0.414      172.529       26.220        0.023      340.726       14.945      860.330
05/03/2014  02:28:00      271.384      139.837       14.953       54.227       53.325       40.177     2940.520     2843.525     1614.200        5.041        0.370      305.293       16.827        0.003      341.218       15.773      860.256
05/03/2014  02:29:00      228.681      126.112       15.289       58.025       55.108       49.331     3366.886     3036.854     2433.552        3.863        0.442      261.150       23.189        0.008      341.257       15.840      860.158
05/03/2014  02:30:00       62.289       33.615       10.082       73.284       48.038       26.940     5370.609     2307.618      725.769        0.676        0.420       70.780       23.735        0.112      341.353       16.006      860.175
05/03/2014  02:31:00      -76.188      -21.696       -7.752       48.286       31.326       21.716     2331.549      981.339      471.577        0.506        0.189       79.217       22.364        0.080      341.107       15.591      860.308
05/03/2014  02:32:00     -202.378        7.578      -20.429       61.175       38.742       32.276     3742.441     1500.924     1041.730        2.386        0.314      202.520       30.266        0.022      341.040       15.475      860.319
05/03/2014  02:33:00     -194.873       68.913      -16.730       75.494       34.202       26.591     5699.275     1169.767      707.075        2.529        0.379      206.699       29.572        0.020      341.096       15.570      860.234
05/03/2014  02:34:00     -153.213       31.510      -13.302       45.692       54.996       20.203     2087.773     3024.547      408.165        1.508        0.276      156.420       17.628        0.013      341.096       15.571      860.194
05/03/2014  02:35:00     -120.766       11.343      -10.257       68.794       38.573       25.997     4732.569     1487.841      675.867        1.086        0.345      121.298       28.321        0.055      341.160       15.679      860.209
05/03/2014  02:36:00      -13.394      115.438      -10.367       52.575       43.369       22.174     2764.156     1880.852      491.679        0.937        0.257      116.212       23.129        0.040      341.241       15.816      860.229
05/03/2014  02:37:00       27.444      139.635      -19.573       25.368       23.135       17.750      643.544      535.225      315.060        1.106        0.075      142.306       14.216        0.010      341.212       15.769      860.230
05/03/2014  02:38:00       28.097       71.271       -2.413       20.634       43.752       22.644      425.782     1914.280      512.769        0.436        0.143       76.610       25.477        0.111      341.111       15.597      860.217
05/03/2014  02:39:00      -31.024       97.021      -21.413       32.260       32.371       13.579     1040.683     1047.911      184.377        0.655        0.114      101.860       12.744        0.016      341.143       15.651      860.207
05/03/2014  02:40:00     -120.528       -3.620      -12.205       36.922       41.249       18.906     1363.249     1701.506      357.438        0.905        0.171      120.582       17.288        0.021      340.899       15.238      860.245
05/03/2014  02:41:00     -246.004      -66.392       -8.030       82.099       66.389       34.158     6740.284     4407.530     1166.799        3.865        0.616      254.806       31.824        0.016      340.878       15.198      860.282
05/03/2014  02:42:00     -217.495      -10.957      -13.626       89.390       64.433       38.131     7990.561     4151.574     1453.980        3.060        0.680      217.771       40.596        0.035      341.022       15.444      860.276
05/03/2014  02:43:00     -168.755       73.688      -13.729       47.388       34.138       25.473     2245.589     1165.427      648.896        1.908        0.203      184.142       18.024        0.010      341.196       15.741      860.275
05/03/2014  02:44:00      -33.223       53.906        5.984       47.278       37.424       23.169     2235.238     1400.583      536.783        0.411        0.209       63.321       28.654        0.205      341.138       15.643      860.260
05/03/2014  02:45:00       53.623       89.520      -10.355       59.197       54.146       32.812     3504.327     2931.828     1076.620        0.925        0.376      104.352       29.810        0.082      341.009       15.424      860.164
05/03/2014  02:46:00       77.990       80.078       12.354       61.178       49.292       35.094     3742.751     2429.680     1231.590        1.002        0.370      111.781       28.359        0.064      340.909       15.255      860.112
05/03/2014  02:47:00       75.597       70.482       -4.650       40.328       44.131       27.177     1626.356     1947.523      738.610        0.751        0.216      103.356       16.613        0.026      340.993       15.398      860.068
05/03/2014  02:48:00      -33.035      -18.738       -1.724       36.498       28.894       17.550     1332.123      834.860      308.004        0.196        0.124       37.980       12.356        0.106      340.956       15.335      860.156
05/03/2014  02:49:00     -104.758      -69.448      -12.266       29.437       30.808       21.755      866.522      949.105      473.288        0.912        0.114      125.687       10.511        0.007      341.080       15.544      860.221
05/03/2014  02:50:00      -52.852      -52.726       -2.093       40.620       21.746       19.752     1649.959      472.872      390.153        0.404        0.126       74.655       17.701        0.056      341.113       15.600      860.226
05/03/2014  02:51:00       61.884       -2.224        8.828       40.214       24.620       24.170     1617.166      606.133      584.170        0.336        0.140       61.924       15.607        0.064      340.838       15.137      860.176
05/03/2014  02:52:00       36.837        7.129       31.605       39.601       20.500       20.778     1568.215      420.242      431.743        0.241        0.121       37.521        6.047        0.026      340.287       14.204      860.177
05/03/2014  02:53:00        9.474       18.385       -1.942       18.008       14.807       12.059      324.291      219.261      145.423        0.056        0.034       20.682       10.890        0.277      340.595       14.724      860.171
05/03/2014  02:54:00       41.409       37.849        4.133       28.823       19.303       20.685      830.764      372.609      427.875        0.240        0.082       56.100       13.966        0.062      340.768       15.016      860.126
05/03/2014  02:55:00       46.081       38.883       17.144       34.628       28.172       29.019     1199.096      793.678      842.075        0.338        0.142       60.294       18.182        0.091      340.932       15.294      860.118
05/03/2014  02:56:00       30.509       80.219       -7.431       33.828       56.537       29.070     1144.367     3196.389      845.089        0.630        0.259       85.825       30.217        0.124      341.102       15.583      860.130
05/03/2014  02:57:00       65.043       75.359       -3.200       42.179       42.301       34.537     1779.080     1789.396     1192.774        0.734        0.238       99.547       21.630        0.047      341.078       15.539      860.092
05/03/2014  02:58:00      106.772       54.123       20.687       53.914       40.291       28.772     2906.754     1623.349      827.803        1.006        0.268      119.706        9.051        0.006      340.867       15.184      860.089
05/03/2014  02:59:00        0.234       -2.754       11.344       17.039       15.013       15.951      290.321      225.381      254.426        0.045        0.039        2.764        7.675        7.708      340.583       14.704      860.146
05/03/2014  03:00:00      -12.797        6.210        3.041       17.843       10.388       10.774      318.384      107.917      116.082        0.038        0.027       14.225       10.166        0.511      340.796       15.063      860.184
05/03/2014  03:01:00        2.640      -66.066        4.803       38.669       43.554       27.703     1495.297     1896.993      767.454        0.428        0.208       66.118       22.389        0.115      340.820       15.104      860.231
05/03/2014  03:02:00       36.497      -12.643       19.995       30.048       34.201       18.474      902.898     1169.737      341.286        0.215        0.121       38.625       20.727        0.288      340.885       15.215      860.240
05/03/2014  03:03:00       58.790       26.647       12.435       27.683       35.457       18.654      766.355     1257.204      347.978        0.335        0.119       64.547       12.934        0.040      340.551       14.651      860.166
05/03/2014  03:04:00       42.293      120.531      -21.597       28.426       47.510       23.547      808.042     2257.247      554.447        1.020        0.181      127.736       23.040        0.033      340.944       15.314      860.070
05/03/2014  03:05:00       21.467      190.676      -35.517       31.599       26.868       19.734      998.498      721.868      389.433        2.009        0.105      191.880       18.223        0.009      341.046       15.487      860.034
05/03/2014  03:06:00      -17.604      172.420      -25.169       44.019       55.109       23.098     1937.645     3036.970      533.499        1.809        0.275      173.317       28.116        0.026      340.962       15.343      860.014
05/03/2014  03:07:00       10.508      204.004      -34.236       36.002       34.864       18.015     1296.132     1215.516      324.533        2.287        0.142      204.274       15.243        0.006      340.931       15.290      860.018
05/03/2014  03:08:00       58.413       23.586       -9.288       29.859       65.276       17.981      891.546     4260.934      323.318        0.476        0.274       62.995       13.777        0.048      340.455       14.490      860.083
05/03/2014  03:09:00       28.357      -41.399       -5.106       15.099       23.285       15.056      227.972      542.206      226.680        0.177        0.050       50.180        2.985        0.004      340.518       14.595      860.135
05/03/2014  03:10:00      -40.557      -14.711        6.609       26.626       38.760       11.617      708.968     1502.313      134.965        0.213        0.117       43.142       13.520        0.098      340.907       15.252      860.149
05/03/2014  03:11:00      -78.390       38.069      -15.661       15.599       16.765       14.277      243.327      281.052      203.828        0.428        0.036       87.145        7.582        0.008      340.927       15.284      860.143
05/03/2014  03:12:00      -54.632        7.932       -6.655       46.912       28.262       20.187     2200.728      798.731      407.533        0.325        0.170       55.205       23.987        0.189      340.888       15.218      860.145
05/03/2014  03:13:00       21.728      -57.745      -12.639       31.634       38.074       17.746     1000.711     1449.593      314.934        0.337        0.138       61.698       19.002        0.095      340.598       14.730      860.204
05/03/2014  03:14:00      -13.277      -56.463       -8.983       37.464       37.099       19.723     1403.536     1376.346      389.016        0.331        0.158       58.003       18.086        0.097      340.876       15.198      860.270
05/03/2014  03:15:00     -124.464      -51.800       -5.775       34.033       33.854       18.878     1158.229     1146.082      356.382        1.043        0.133      134.813       15.397        0.013      340.970       15.358      860.269
05/03/2014  03:16:00      -73.809        0.264       -8.512       43.555       14.362       14.591     1897.030      206.264      212.889        0.392        0.116       73.810        8.532        0.013      341.049       15.492      860.241
05/03/2014  03:17:00       61.847       19.185        8.977       33.496       17.182       12.678     1121.964      295.210      160.735        0.293        0.079       64.754        6.423        0.010      340.751       14.989      860.192
05/03/2014  03:18:00      117.779       69.148        0.491       45.564       34.040       22.937     2076.116     1158.710      526.093        1.121        0.188      136.577       19.593        0.021      340.742       14.971      860.152
05/03/2014  03:19:00      123.007      106.909       17.171       76.436       57.752       38.491     5842.408     3335.305     1481.536        1.875        0.533      162.973       12.544        0.006      340.885       15.213      860.097
05/03/2014  03:20:00      154.770       98.669       26.554      106.843       72.152       50.563    11415.389     5205.974     2556.621        2.678        0.959      183.546       41.118        0.050      340.883       15.208      860.052
05/03/2014  03:21:00      182.717      113.701       21.811       91.582       72.344       47.506     8387.346     5233.721     2256.850        3.133        0.794      215.206       43.574        0.041      340.933       15.293      860.077
05/03/2014  03:22:00      119.890       90.104       35.491       68.813       62.724       39.400     4735.177     3934.279     1552.326        1.698        0.511      149.974       26.267        0.031      340.875       15.195      860.140
05/03/2014  03:23:00       71.764       38.601       17.508       50.154       47.223       26.871     2515.462     2230.056      722.032        0.621        0.273       81.487       14.075        0.030      340.855       15.163      860.165
05/03/2014  03:24:00       11.419       50.715       17.985       64.287       31.321       33.477     4132.797      980.991     1120.724        0.463        0.312       51.984       18.058        0.121      340.897       15.234      860.190
05/03/2014  03:25:00      -20.461       50.238      -14.811       31.759       29.860       18.913     1008.640      891.645      357.705        0.271        0.113       54.245       12.605        0.054      340.927       15.286      860.172
05/03/2014  03:26:00      -50.681       52.068      -14.549       28.752       36.105       16.229      826.686     1303.568      263.380        0.394        0.120       72.661       19.428        0.071      340.968       15.357      860.148
05/03/2014  03:27:00      -73.828       70.054      -17.293       22.981       64.686       20.168      528.109     4184.307      406.737        0.789        0.256      101.775       28.292        0.077      341.068       15.523      860.158
05/03/2014  03:28:00      -17.748       92.301       -1.325       42.436       48.630       27.626     1800.823     2364.915      763.211        0.688        0.246       93.992       22.579        0.058      341.055       15.502      860.164
05/03/2014  03:29:00       32.163      157.441      -24.023       54.374       34.044       21.512     2956.506     1158.968      462.774        1.549        0.229      160.693       22.010        0.019      341.118       15.608      860.128
05/03/2014  03:30:00      131.523      110.371        5.749       64.166       51.029       47.031     4117.274     2603.948     2211.954        1.922        0.447      171.698       35.493        0.043      341.041       15.477      860.069
05/03/2014  03:31:00      162.409       82.318       15.850       71.350       49.473       43.366     5090.866     2447.576     1880.647        2.141        0.471      182.079       30.092        0.027      340.840       15.136      860.012
05/03/2014  03:32:00      182.981       91.703       22.025       91.948       65.283       51.901     8454.437     4261.852     2693.695        2.889        0.770      204.674       37.356        0.033      340.898       15.234      859.998
05/03/2014  03:33:00      232.600      129.207       12.695       83.578       66.524       56.023     6985.214     4425.471     3138.524        4.275        0.727      266.078       33.151        0.016      341.034       15.462      859.978
05/03/2014  03:34:00      159.736       94.311        0.378       90.819       62.807       52.785     8248.017     3944.671     2786.281        2.469        0.749      185.500       26.954        0.021      341.192       15.731      859.999
05/03/2014  03:35:00       72.277       71.889        2.334       60.376       58.127       41.177     3645.244     3378.762     1695.546        0.956        0.436      101.941       26.417        0.067      341.135       15.637      860.024
05/03/2014  03:36:00       39.787       -1.259        5.730       45.119       47.624       23.541     2035.709     2268.069      554.164        0.324        0.243       39.807       23.283        0.342      341.116       15.605      860.058
05/03/2014  03:37:00      -43.817      -76.201       -9.537       45.301       22.879       25.394     2052.168      523.439      644.870        0.552        0.161       87.900       16.128        0.034      341.076       15.539      860.089
05/03/2014  03:38:00     -115.338      -88.122        3.563       89.000       53.834       32.436     7921.022     2898.140     1052.080        1.647        0.594      145.150       35.286        0.059      341.104       15.583      860.143
05/03/2014  03:39:00     -150.668      -42.346        2.260       56.206       47.647       27.843     3159.155     2270.211      775.226        1.535        0.310      156.505       26.269        0.028      341.070       15.526      860.150
05/03/2014  03:40:00      -71.076       -9.311        9.365       55.781       34.282       23.459     3111.469     1175.247      550.311        0.503        0.242       71.683       20.345        0.081      341.077       15.539      860.125
05/03/2014  03:41:00      -49.352      -59.832       -1.592       34.606       15.583       12.779     1197.567      242.836      163.304        0.381        0.080       77.560       11.355        0.021      341.271       15.869      860.101
05/03/2014  03:42:00       33.533       13.929       32.658       22.766       24.392       22.887      518.286      594.976      523.837        0.201        0.082       36.310       20.943        0.333      340.509       14.578      860.053
05/03/2014  03:43:00        5.484       -6.007       38.866       34.571       59.724       35.329     1195.128     3566.920     1248.109        0.379        0.301        8.134       29.961       13.568      340.437       14.456      860.039
05/03/2014  03:44:00       56.657      -30.019       37.229       55.724       71.564       63.214     3105.180     5121.448     3996.056        0.886        0.611       64.118       45.152        0.496      340.849       15.154      860.043
05/03/2014  03:45:00       41.724       16.496       78.949       53.143       46.285       56.514     2824.155     2142.306     3193.826        0.820        0.408       44.866       35.240        0.617      340.949       15.323      860.039
05/03/2014  03:46:00       23.129       21.171       93.413       47.283       68.956       47.821     2235.657     4754.969     2286.893        0.949        0.464       31.356       43.174        1.896      340.997       15.405      860.044
05/03/2014  03:47:00       57.349      -57.933       41.525       50.572       83.709       50.131     2557.563     7007.136     2513.078        1.022        0.604       81.517       52.982        0.422      341.259       15.847      860.061
05/03/2014  03:48:00       42.184       80.331       90.683       51.423       70.845       49.862     2644.331     5019.075     2486.203        1.330        0.507       90.734       51.011        0.316      340.924       15.281      860.062
05/03/2014  03:49:00      147.661       83.243       70.551      109.081       71.634       75.958    11898.654     5131.420     5769.598        2.825        1.140      169.509       70.461        0.173      340.896       15.232      860.007
05/03/2014  03:50:00      205.430      109.612       79.060      103.435       70.786       63.673    10698.793     5010.727     4054.288        4.011        0.988      232.844       59.063        0.064      341.200       15.745      860.030
05/03/2014  03:51:00      124.972       73.686       75.651       89.659       69.166       62.219     8038.823     4783.885     3871.166        2.173        0.835      145.078       51.358        0.125      341.043       15.481      860.057
05/03/2014  03:52:00       77.235        5.114       47.849       84.954       50.734       44.905     7217.209     2573.892     2016.438        1.004        0.590       77.404       39.769        0.264      340.784       15.042      860.085
05/03/2014  03:53:00       47.148       64.509       76.933       74.733       57.523       50.441     5585.082     3308.860     2544.255        1.187        0.572       79.902       53.604        0.450      340.761       15.004      860.099
05/03/2014  03:54:00       55.902       19.111       56.519       58.654       36.983       30.232     3440.259     1367.744      913.963        0.620        0.286       59.079       24.177        0.167      340.760       15.003      860.104
05/03/2014  03:55:00        9.435      -74.533        5.881       36.582       37.953       29.624     1338.264     1440.433      877.583        0.467        0.183       75.127       27.472        0.134      341.055       15.502      860.115
05/03/2014  03:56:00        1.086        8.319      -15.315       52.263       37.155       30.989     2731.378     1380.529      960.309        0.269        0.254        8.389       29.895       12.698      341.041       15.478      860.119
05/03/2014  03:57:00       36.303       65.918       11.869       33.172       46.798       27.553     1100.400     2190.086      759.175        0.493        0.202       75.253       28.388        0.142      341.039       15.476      860.073
05/03/2014  03:58:00       89.612      125.848        0.407       60.871       49.626       46.342     3705.271     2462.713     2147.549        1.609        0.416      154.492       32.750        0.045      341.028       15.457      860.004
05/03/2014  03:59:00      193.449      150.015       21.521       96.024       59.576       49.742     9220.690     3549.254     2474.310        3.781        0.762      244.800       18.567        0.006      341.024       15.446      859.946
05/03/2014  04:00:00      131.049      124.602       16.537       90.613       74.916       53.957     8210.748     5612.469     2911.410        2.485        0.837      180.830       37.534        0.043      340.991       15.391      859.916
05/03/2014  04:01:00      136.804       75.883       25.245       60.679       51.735       46.838     3681.964     2676.497     2193.771        1.683        0.428      156.440       35.168        0.051      340.858       15.168      859.948
05/03/2014  04:02:00      105.499       61.213       27.761       51.633       38.423       41.801     2665.980     1476.337     1747.363        1.077        0.294      121.972       32.293        0.070      340.749       14.986      859.969
05/03/2014  04:03:00       58.646      -77.891       -9.494       41.585       74.521       35.620     1729.349     5553.390     1268.818        0.907        0.428       97.500       34.558        0.126      340.600       14.732      859.989
05/03/2014  04:04:00        5.244        4.867       32.041       20.640       28.097       23.328      426.011      789.441      544.202        0.142        0.088        7.154        5.182        0.525      340.650       14.817      860.016
05/03/2014  04:05:00      -30.486        7.133        5.310       15.330       21.661       12.528      235.014      469.187      156.945        0.093        0.043       31.309        9.979        0.102      340.875       15.197      860.034
05/03/2014  04:06:00      -13.017       -4.617       15.478       16.325       21.018       13.527      266.498      441.755      182.969        0.066        0.045       13.811       10.734        0.604      340.931       15.292      860.049
05/03/2014  04:07:00       -6.947       12.079       12.690       14.780       14.547       12.576      218.443      211.614      158.149        0.047        0.029       13.934        7.867        0.319      340.850       15.155      860.046
05/03/2014  04:08:00        9.475        6.369        9.694       16.852       14.791       14.906      283.987      218.769      222.202        0.047        0.036       11.417       14.138        1.533      340.745       14.978      860.028
05/03/2014  04:09:00       22.542      -17.176       15.905       25.438       49.516       18.958      647.100     2451.795      359.389        0.226        0.173       28.341       23.744        0.702      340.687       14.880      859.990
05/03/2014  04:10:00       49.770       37.246       20.864       21.769       18.404       16.603      473.877      338.716      275.656        0.269        0.054       62.163       13.987        0.051      340.824       15.112      859.961
05/03/2014  04:11:00      111.116       63.930       15.813       52.545       43.038       42.438     2760.939     1852.243     1801.020        1.155        0.321      128.194       16.454        0.016      341.356       16.012      859.946
05/03/2014  04:12:00       37.152       43.095       -1.076       28.756      115.494       42.158      826.915    13338.822     1777.332        0.959        0.797       56.899       32.017        0.317      341.240       15.817      859.947
05/03/2014  04:13:00       32.523       86.550      -13.057       43.130       37.148       20.752     1860.159     1379.974      430.629        0.619        0.184       92.459       15.983        0.030      341.144       15.652      859.960
05/03/2014  04:14:00       34.722       63.306       -4.962       45.789       48.986       24.313     2096.596     2399.591      591.141        0.516        0.254       72.203       17.498        0.059      341.259       15.848      859.968
05/03/2014  04:15:00       45.981      -15.910       25.938       29.780       32.291       24.075      886.864     1042.702      579.595        0.277        0.125       48.656       20.992        0.186      340.454       14.485      859.960
05/03/2014  04:16:00        7.275      -26.466        8.489       15.916       48.135       25.527      253.311     2316.995      651.611        0.202        0.161       27.447       28.100        1.048      340.333       14.283      859.957
05/03/2014  04:17:00        2.351      -50.033       -7.876       17.590       15.877       14.748      309.423      252.070      217.499        0.167        0.039       50.088       10.511        0.044      340.907       15.253      859.973
05/03/2014  04:18:00      -22.817      -12.380       -0.261       14.355       17.704       11.738      206.065      313.446      137.775        0.067        0.033       25.959       11.896        0.210      340.902       15.243      859.992
05/03/2014  04:19:00       -8.533        6.629        8.855       15.947       14.597       12.740      254.308      213.079      162.303        0.041        0.031       10.805       11.730        1.179      340.581       14.702      859.986
05/03/2014  04:20:00        8.659       25.913        2.390       15.935        9.622        7.756      253.933       92.578       60.153        0.058        0.020       27.321        5.450        0.040      340.960       15.342      859.988
05/03/2014  04:21:00       41.994        7.436        2.402       10.503       10.950       10.238      110.305      119.913      104.811        0.108        0.017       42.647        7.411        0.030      340.855       15.163      860.004
05/03/2014  04:22:00       33.289        0.228        9.025       25.795        9.598       10.829      665.400       92.130      117.268        0.103        0.044       33.290        9.925        0.089      340.388       14.376      860.003
05/03/2014  04:23:00       58.921       39.975        1.394       20.862       19.993       15.945      435.209      399.704      254.227        0.308        0.054       71.202        9.405        0.017      340.688       14.882      859.968
05/03/2014  04:24:00       47.038       45.288       -9.306       37.037       32.632       28.844     1371.702     1064.844      831.972        0.381        0.163       65.296       27.170        0.173      340.713       14.925      859.935
05/03/2014  04:25:00       30.226       39.746      -11.648       26.419       27.843       14.685      697.966      775.229      215.664        0.216        0.084       49.933       16.093        0.104      340.832       15.125      859.917
05/03/2014  04:26:00       28.005       48.794      -10.844       15.426       18.734        9.358      237.971      350.945       87.570        0.198        0.034       56.260       10.589        0.035      340.934       15.297      859.942
05/03/2014  04:27:00        1.329       23.953       -5.038       10.904        9.162       10.169      118.892       83.950      103.413        0.045        0.015       23.990        4.466        0.035      341.011       15.430      859.978
05/03/2014  04:28:00       68.648       32.924       18.405       41.459       32.196       27.479     1718.824     1036.577      755.094        0.482        0.176       76.135       15.576        0.042      340.484       14.536      859.978
05/03/2014  04:29:00      155.493       88.529       17.056       80.975       44.322       38.139     6556.887     1964.441     1454.590        2.114        0.499      178.929       34.195        0.037      340.894       15.228      859.954
05/03/2014  04:30:00      148.735       57.322       56.370       62.878       40.926       49.059     3953.616     1674.965     2406.754        1.831        0.402      159.399       37.960        0.057      340.613       14.752      859.919
05/03/2014  04:31:00      111.488       51.582       32.282       62.707       48.074       37.150     3932.207     2311.149     1380.117        1.188        0.381      122.842       30.594        0.062      340.547       14.643      859.910
05/03/2014  04:32:00      114.451       40.593       38.875      125.228       89.387       51.070    15682.093     7989.959     2608.147        2.126        1.314      121.437       29.412        0.059      340.519       14.595      859.884
05/03/2014  04:33:00      325.364      181.564       45.273      168.886      114.685      120.623    28522.388    13152.535    14549.791        9.854        2.811      372.596       80.077        0.046      341.991       17.086      859.864
05/03/2014  04:34:00       72.341       53.110        3.052       56.934       43.684       30.231     3241.502     1908.308      913.894        0.706        0.303       89.743       12.511        0.019      341.714       16.618      859.888
05/03/2014  04:35:00       72.688       39.919        2.424       52.889       43.776       31.963     2797.194     1916.368     1021.611        0.631        0.287       82.928       23.501        0.080      341.683       16.565      859.860
05/03/2014  04:36:00      104.375       55.347        4.473       42.001       52.834       39.142     1764.086     2791.455     1532.117        1.003        0.304      118.141       29.773        0.064      341.873       16.889      859.867
05/03/2014  04:37:00       58.230       22.912       10.558       57.600       37.017       30.281     3317.804     1370.237      916.921        0.481        0.280       62.575       23.890        0.146      341.429       16.135      859.880
05/03/2014  04:38:00        5.756       27.101       30.979       18.376       30.791       28.096      337.684      948.057      789.376        0.190        0.104       27.706       25.061        0.818      340.874       15.195      859.893
05/03/2014  04:39:00      -16.136       -9.611        4.966       29.351       25.753       17.681      861.482      663.204      312.631        0.111        0.092       18.781       16.566        0.778      341.054       15.500      859.912
05/03/2014  04:40:00      -41.069      -36.117        8.671       58.325       54.773       21.242     3401.771     3000.043      451.238        0.496        0.343       54.691       22.661        0.172      340.984       15.382      859.956
05/03/2014  04:41:00     -185.636      -99.674       -1.976       70.100       53.860       29.860     4914.000     2900.940      891.591        2.655        0.435      210.703       27.346        0.017      340.653       14.818      859.983
05/03/2014  04:42:00     -121.489      -49.373        5.253       55.863       41.644       29.709     3120.719     1734.221      882.625        1.148        0.287      131.138       30.573        0.054      340.620       14.767      859.990
05/03/2014  04:43:00      -95.888      -34.048       -4.912       36.415       29.786       19.063     1326.049      887.232      363.405        0.648        0.129      101.754       22.286        0.048      340.684       14.873      859.951
05/03/2014  04:44:00       20.851       11.793        8.731       44.437       24.719       13.964     1974.643      611.005      194.980        0.171        0.139       23.954       18.626        0.605      340.623       14.770      859.919
05/03/2014  04:45:00      147.989       78.738       18.290       36.613       29.952       27.395     1340.486      897.124      750.489        1.571        0.149      167.632       22.569        0.018      340.858       15.167      859.845
05/03/2014  04:46:00      169.437       63.397       41.350       83.470       49.154       49.866     6967.194     2416.116     2486.623        2.315        0.593      180.909       42.706        0.056      340.778       15.032      859.786
05/03/2014  04:47:00      -50.358      -28.075       -5.863       37.192       29.740       24.062     1383.237      884.476      578.996        0.310        0.142       57.655       19.906        0.119      340.621       14.767      859.824
05/03/2014  04:48:00     -235.495      -88.460       -8.939       60.036       62.981       38.066     3604.369     3966.650     1449.032        3.619        0.451      251.561       26.878        0.011      340.650       14.812      859.893
05/03/2014  04:49:00     -172.028     -134.572        1.102       79.661       69.491       47.999     6345.929     4828.937     2303.893        3.059        0.674      218.411       41.767        0.037      340.846       15.147      859.921
05/03/2014  04:50:00     -141.951     -151.156       11.873      110.597       75.987       51.873    12231.622     5773.981     2690.848        3.191        1.035      207.360       58.893        0.081      340.919       15.269      859.914
05/03/2014  04:51:00     -112.217     -115.230       15.928       89.104       68.825       44.899     7939.486     4736.814     2015.912        2.041        0.735      160.844       44.174        0.075      341.246       15.825      859.924
05/03/2014  04:52:00      -42.556     -151.573       -2.966       28.919       49.793       24.235      836.302     2479.305      587.325        1.435        0.195      157.433       17.626        0.013      341.596       16.418      859.934
05/03/2014  04:53:00       25.126     -117.453      -10.228       79.617       41.748       26.835     6338.936     1742.863      720.096        1.166        0.440      120.111       34.208        0.081      341.287       15.896      859.950
05/03/2014  04:54:00       85.110     -102.575      -20.344       39.628       34.756       27.073     1570.366     1207.984      732.920        1.084        0.176      133.286       17.203        0.017      341.102       15.581      859.962
05/03/2014  04:55:00       44.183      -58.236        8.197       44.158       50.885       32.399     1949.915     2589.332     1049.683        0.550        0.279       73.100       30.813        0.178      341.050       15.494      859.949
05/03/2014  04:56:00       25.319       31.478       54.167       41.130       67.910       41.835     1691.647     4611.832     1750.176        0.631        0.403       40.397       51.831        1.646      340.763       15.010      859.912
05/03/2014  04:57:00       68.558       73.858       77.640       49.932       42.488       40.341     2493.188     1805.257     1627.358        1.105        0.296      100.773       33.459        0.110      340.802       15.075      859.876
05/03/2014  04:58:00       63.819       30.821       48.294       53.054       45.367       34.586     2814.687     2058.180     1196.170        0.671        0.303       70.872       33.801        0.227      340.729       14.950      859.849
05/03/2014  04:59:00       30.480       50.998       43.048       38.754       33.756       27.399     1501.846     1139.492      750.689        0.439        0.170       59.413       25.380        0.182      340.894       15.228      859.842
05/03/2014  05:00:00       63.051       37.533       11.092       35.370       23.676       20.338     1251.003      560.533      413.648        0.387        0.111       73.377       14.730        0.040      340.952       15.326      859.832
05/03/2014  05:01:00      126.869       69.247       30.289       20.805       17.339       18.070      432.851      300.653      326.532        1.143        0.053      144.537       10.416        0.005      340.958       15.338      859.816
05/03/2014  05:02:00       44.402       33.639       23.448       25.709       14.242       15.472      660.971      202.826      239.392        0.238        0.055       55.706       10.826        0.038      340.820       15.103      859.807
05/03/2014  05:03:00       49.369       45.906       15.076       21.688       19.496       16.146      470.364      380.079      260.693        0.294        0.056       67.414        8.323        0.015      340.891       15.224      859.791
05/03/2014  05:04:00       -9.342       31.938      -10.365       22.241       24.483       16.388      494.659      599.422      268.568        0.129        0.068       33.276       13.159        0.156      340.824       15.112      859.763
05/03/2014  05:05:00       31.602       18.027        3.628       33.191       21.997       16.310     1101.656      483.883      266.025        0.159        0.093       36.382       12.868        0.125      340.723       14.940      859.756
05/03/2014  05:06:00      -25.547       -8.996       -1.121       13.638       10.751       10.009      186.006      115.575      100.176        0.057        0.020       27.085        4.433        0.027      340.741       14.972      859.775
05/03/2014  05:07:00      -59.020       -7.887       -8.163       16.781       12.505        8.231      281.606      156.378       67.752        0.206        0.025       59.545        6.296        0.011      340.653       14.822      859.800
05/03/2014  05:08:00      -84.026       -2.608       -4.920       15.750       17.425        9.600      248.073      303.639       92.151        0.387        0.032       84.066        8.735        0.011      340.630       14.785      859.778
05/03/2014  05:09:00     -108.747       34.008       -9.279       23.721       26.479       15.788      562.669      701.124      249.252        0.729        0.076      113.941       12.105        0.011      340.801       15.073      859.757
05/03/2014  05:10:00     -117.216       10.912      -14.731       24.616       16.276       14.657      605.959      264.913      214.837        0.758        0.054      117.722        8.506        0.005      340.730       14.952      859.767
05/03/2014  05:11:00     -116.026        7.949      -14.058       23.292       16.823       12.459      542.527      283.014      155.235        0.735        0.049      116.298       10.847        0.009      340.914       15.264      859.749
05/03/2014  05:12:00     -130.745      -30.381      -16.639       20.547       26.388       15.102      422.175      696.323      228.057        0.982        0.067      134.228       11.477        0.007      341.209       15.764      859.749
05/03/2014  05:13:00      -87.605       -7.036       -5.357       31.567       16.809       12.866      996.491      282.554      165.527        0.460        0.072       87.887       14.974        0.029      341.016       15.436      859.748
05/03/2014  05:14:00      -29.789      -29.130       11.343       26.985       22.964       13.828      728.166      527.349      191.219        0.166        0.072       41.665       13.122        0.099      340.795       15.062      859.762
05/03/2014  05:15:00       -6.932      -42.727        2.567       15.807       24.502       14.842      249.876      600.332      220.280        0.148        0.054       43.285       14.222        0.108      340.529       14.613      859.776
05/03/2014  05:16:00       -2.364      -51.428        3.132       26.273       20.559       16.261      690.257      422.659      264.431        0.202        0.069       51.483       14.542        0.080      340.673       14.857      859.797
05/03/2014  05:17:00       59.445       28.680        9.270       32.770       25.957       19.000     1073.847      673.785      361.017        0.328        0.105       66.002       16.411        0.062      340.539       14.629      859.748
05/03/2014  05:18:00       81.065       20.739        1.296       37.526       33.282       17.910     1408.165     1107.686      320.778        0.492        0.142       83.675       10.355        0.015      341.034       15.467      859.700
05/03/2014  05:19:00       47.488        1.942       15.525       27.272       19.300       27.550      743.784      372.482      758.998        0.219        0.094       47.528       22.302        0.220      340.350       14.310      859.742
05/03/2014  05:20:00       46.932       32.805       -5.527       21.142       26.071       19.652      446.982      679.684      386.220        0.241        0.076       57.261       17.865        0.097      340.265       14.168      859.754
05/03/2014  05:21:00       11.659       72.643      -17.036       23.608       11.726        7.641      557.357      137.497       58.388        0.323        0.038       73.572        4.146        0.003      341.039       15.475      859.758
05/03/2014  05:22:00      -63.921       36.315      -16.746       11.011       12.888        7.327      121.253      166.090       53.681        0.301        0.017       73.517        4.713        0.004      340.746       14.979      859.788
05/03/2014  05:23:00      -23.270       51.074       -9.509       22.184       11.409        8.936      492.132      130.173       79.845        0.197        0.035       56.125        8.518        0.023      341.041       15.477      859.800
05/03/2014  05:24:00        8.920       38.032       -4.173       12.092       13.390        8.653      146.216      179.288       74.869        0.097        0.020       39.064        5.431        0.019      341.307       15.929      859.825
05/03/2014  05:25:00       37.136       23.557        2.636       19.367       11.424        7.198      375.084      130.519       51.813        0.125        0.028       43.977        7.887        0.032      341.103       15.583      859.826
05/03/2014  05:26:00       67.662       39.187       -1.058       22.563       22.889       14.553      509.070      523.922      211.797        0.368        0.062       78.190       10.919        0.020      340.735       14.960      859.794
05/03/2014  05:27:00       48.852       31.577       -3.932       28.164       22.737       15.869      793.200      516.956      251.825        0.248        0.078       58.169       12.752        0.048      340.677       14.862      859.773
05/03/2014  05:28:00        5.116      -15.537       -7.075       21.557       26.596       13.075      464.693      707.366      170.954        0.083        0.067       16.358       12.216        0.558      340.833       15.126      859.792
05/03/2014  05:29:00       18.090       -6.449       13.219       19.128       18.764       12.100      365.866      352.079      146.402        0.070        0.043       19.205        7.359        0.147      340.764       15.011      859.791
05/03/2014  05:30:00       -0.176       -3.381       -0.046       30.410        9.630        9.867      924.765       92.728       97.353        0.056        0.056        3.386        5.040        2.216      340.596       14.727      859.793
05/03/2014  05:31:00      -65.562      -25.148       -7.873       11.312       16.373        8.386      127.956      268.073       70.328        0.273        0.023       70.219        6.725        0.009      340.530       14.615      859.791
05/03/2014  05:32:00        2.559       -1.609       -2.738       39.272       14.405       11.707     1542.308      207.497      137.061        0.095        0.094        3.023       16.380       29.360      340.596       14.727      859.762
05/03/2014  05:33:00       85.611       18.023        9.884       34.929       35.381       22.346     1220.031     1251.843      499.340        0.536        0.149       87.488       13.486        0.024      340.175       14.014      859.716
05/03/2014  05:34:00       69.171       11.639        9.539       40.802       35.349       22.615     1664.799     1249.522      511.448        0.422        0.171       70.143       22.682        0.105      340.076       13.848      859.733
05/03/2014  05:35:00       51.278       19.685        8.481       27.752       14.337       15.659      770.155      205.541      245.216        0.215        0.061       54.926        9.245        0.028      340.387       14.373      859.727
05/03/2014  05:36:00       35.681       35.492        4.436       33.871       26.626       10.741     1147.218      708.927      115.375        0.226        0.099       50.327        7.380        0.022      340.850       15.156      859.699
05/03/2014  05:37:00        8.684       46.053       -9.088       19.604       17.666        9.204      384.302      312.075       84.714        0.153        0.039       46.865        6.054        0.017      341.010       15.426      859.658
05/03/2014  05:38:00      -24.023      -11.305       -0.123       12.978       18.125        8.078      168.417      328.510       65.252        0.063        0.028       26.550        6.101        0.053      340.929       15.289      859.714
05/03/2014  05:39:00       50.181       38.396       10.336       31.010       30.909       13.205      961.632      955.365      174.371        0.309        0.105       63.185       14.737        0.054      340.771       15.022      859.686
05/03/2014  05:40:00       58.870      123.761      -16.993       26.947       34.632       25.676      726.121     1199.359      659.244        1.083        0.129      137.049       24.345        0.032      340.862       15.177      859.572
05/03/2014  05:41:00       -2.831       91.483      -18.620       29.152       31.578       15.153      849.838      997.152      229.618        0.540        0.104       91.527       15.396        0.028      341.083       15.548      859.577
05/03/2014  05:42:00      -23.471        3.354       -4.566       17.902       37.931       12.635      320.492     1438.754      159.646        0.125        0.096       23.709        9.221        0.151      340.815       15.094      859.658
05/03/2014  05:43:00       27.105        0.956        8.579       26.131       24.054       11.937      682.816      578.592      142.499        0.111        0.070       27.121       12.955        0.228      340.769       15.019      859.649
05/03/2014  05:44:00       20.459        5.690        7.044       25.022       25.552       16.220      626.124      652.904      263.100        0.102        0.077       21.235       13.716        0.417      340.428       14.441      859.613
05/03/2014  05:45:00        1.899      -29.426       -4.358       16.557       10.213        6.520      274.138      104.303       42.513        0.065        0.021       29.488        6.857        0.054      340.825       15.113      859.669
05/03/2014  05:46:00        5.988       -5.713        0.615        6.121        4.829        4.694       37.462       23.319       22.031        0.008        0.004        8.276        3.498        0.179      341.019       15.441      859.710
05/03/2014  05:47:00       29.414        3.639        2.086       14.285       10.099        9.598      204.069      101.983       92.114        0.064        0.020       29.639        7.992        0.073      340.610       14.748      859.708
05/03/2014  05:48:00       37.185        3.804        2.096       14.799        9.720        7.983      219.011       94.475       63.727        0.089        0.019       37.379        5.703        0.023      340.831       15.124      859.691
05/03/2014  05:49:00       46.858       -5.667        4.231       15.967       18.370       10.223      254.945      337.454      104.517        0.147        0.035       47.200        8.607        0.033      340.969       15.357      859.691
05/03/2014  05:50:00       76.766       38.463       10.718       17.605        7.643       11.031      309.940       58.415      121.675        0.399        0.025       85.863        5.284        0.004      341.039       15.475      859.686
05/03/2014  05:51:00       53.921       30.469        9.193       30.071       30.434       15.831      904.241      926.214      250.625        0.300        0.104       61.935        9.868        0.025      340.925       15.283      859.698
05/03/2014  05:52:00        2.534       -7.748       15.231       15.516       21.952       17.421      240.734      481.882      303.490        0.066        0.051        8.152       15.272        3.510      340.703       14.907      859.733
05/03/2014  05:53:00       32.003       -8.661        9.686       36.741       25.528       16.659     1349.872      651.670      277.530        0.174        0.114       33.154       14.709        0.197      340.431       14.447      859.735
05/03/2014  05:54:00      100.740       49.809       29.196       43.195       27.909       37.375     1865.779      778.905     1396.902        0.876        0.202      112.381       28.958        0.066      340.116       13.916      859.691
05/03/2014  05:55:00       54.953        0.492       14.654       39.363       24.684       18.987     1549.454      609.284      360.522        0.288        0.126       54.955       18.608        0.115      340.096       13.883      859.711
05/03/2014  05:56:00       61.523       33.772       27.052       32.874       29.895       22.429     1080.671      893.688      503.060        0.407        0.124       70.183       18.023        0.066      340.163       13.994      859.771
05/03/2014  05:57:00       52.197       70.013       -5.653       45.481       31.466       27.084     2068.499      990.134      733.522        0.572        0.190       87.329       23.129        0.070      340.464       14.503      859.713
05/03/2014  05:58:00       31.132       35.884        4.633       47.595       51.999       32.299     2265.299     2703.866     1043.241        0.414        0.301       47.507       29.612        0.389      340.389       14.376      859.679
05/03/2014  05:59:00       -7.729        3.634       -5.705       35.507       18.753       15.734     1260.780      351.686      247.548        0.098        0.093        8.541       14.898        3.043      340.531       14.615      859.766
05/03/2014  06:00:00       -4.812       11.713        6.069       17.304       16.218        8.978      299.413      263.033       80.606        0.042        0.032       12.663        5.364        0.179      340.731       14.955      859.790
05/03/2014  06:01:00        9.775       40.363        3.032       15.419       14.441       13.383      237.732      208.539      179.117        0.118        0.031       41.530        8.692        0.044      340.612       14.752      859.792
05/03/2014  06:02:00        5.838      117.271      -21.050       16.220       23.198        7.597      263.090      538.146       57.709        0.754        0.043      117.416        7.578        0.004      340.567       14.677      859.785
05/03/2014  06:03:00       27.543       91.134      -18.503       16.901       26.188        9.384      285.650      685.801       88.058        0.523        0.053       95.205        7.502        0.006      340.487       14.542      859.796
05/03/2014  06:04:00       37.793       43.827       -1.820       20.829       24.741       19.187      433.855      612.106      368.136        0.238        0.071       57.872       17.557        0.092      340.356       14.320      859.823
05/03/2014  06:05:00       54.665       51.370        0.018       27.679       32.450       21.647      766.122     1053.034      468.591        0.396        0.114       75.015       18.623        0.062      340.374       14.349      859.803
05/03/2014  06:06:00       -8.773       17.090       -3.369       30.530       29.051       16.845      932.052      843.961      283.763        0.122        0.103       19.210       13.149        0.469      340.288       14.205      859.795
05/03/2014  06:07:00      -20.744        6.361       -1.458       13.798       27.556       11.696      190.387      759.318      136.797        0.078        0.054       21.697       10.338        0.227      340.492       14.551      859.838
05/03/2014  06:08:00       10.388       18.132        1.081       21.029       15.678       14.019      442.213      245.796      196.533        0.066        0.044       20.896        8.722        0.174      340.410       14.411      859.847
05/03/2014  06:09:00       30.935       32.938        0.773       22.276       20.019       15.756      496.222      400.767      248.245        0.159        0.057       45.187       13.643        0.091      340.357       14.322      859.826
05/03/2014  06:10:00       22.453       29.845       -9.070       22.928        9.326        6.874      525.699       86.973       47.251        0.107        0.033       37.348        8.885        0.057      340.460       14.497      859.837
05/03/2014  06:11:00       -9.749       10.223       -6.260       16.886        8.278        7.400      285.150       68.524       54.754        0.032        0.020       14.126        9.188        0.423      340.602       14.737      859.866
05/03/2014  06:12:00       -6.540       24.394       -5.149       33.605       17.286       14.590     1129.277      298.802      212.878        0.115        0.082       25.256       13.645        0.292      340.543       14.638      859.874
05/03/2014  06:13:00       25.026       26.996        1.533       14.481       11.862       10.780      209.710      140.706      116.209        0.091        0.023       36.811        8.707        0.056      340.513       14.586      859.885
05/03/2014  06:14:00       46.465       48.776        6.255       29.105       20.477       13.096      847.082      419.309      171.508        0.301        0.072       67.365        8.495        0.016      340.370       14.344      859.910
05/03/2014  06:15:00       49.710       43.590        2.434       23.411       20.551       18.534      548.066      422.344      343.500        0.285        0.066       66.115       13.729        0.043      340.477       14.522      859.925
05/03/2014  06:16:00       98.519       73.444       13.023       64.386       30.860       24.425     4145.512      952.353      596.563        1.048        0.285      122.882       18.038        0.022      340.502       14.567      859.915
05/03/2014  06:17:00      185.568       80.276        4.693       58.591       49.028       36.213     3432.933     2403.747     1311.386        2.402        0.357      202.187       22.656        0.013      340.548       14.640      859.849
05/03/2014  06:18:00      114.594       55.519       55.451       65.549       53.115       50.452     4296.735     2821.209     2545.372        1.447        0.483      127.335       45.505        0.128      340.087       13.865      859.825
05/03/2014  06:19:00       42.585       15.943       30.815       51.035       26.823       29.063     2604.582      719.459      844.684        0.359        0.208       45.472       15.044        0.109      339.944       13.624      859.858
05/03/2014  06:20:00       77.190       43.084       27.468       35.297       23.981       24.157     1245.893      575.074      583.572        0.549        0.120       88.400       12.840        0.021      340.153       13.978      859.877
05/03/2014  06:21:00        4.220        6.641        7.684       46.436       27.750       11.888     2156.312      770.070      141.314        0.159        0.153        7.869       21.286        7.318      340.317       14.254      859.905
05/03/2014  06:22:00      -85.362       -6.063      -10.050       32.240       14.093        9.806     1039.385      198.608       96.163        0.438        0.067       85.577       10.205        0.014      340.182       14.025      859.928
05/03/2014  06:23:00     -149.021      -11.160      -15.523       32.788       24.811       17.935     1075.082      615.596      321.654        1.229        0.101      149.438       16.496        0.012      340.268       14.170      859.944
05/03/2014  06:24:00     -114.483       24.668      -11.990       40.829       26.835       16.493     1666.967      720.097      272.022        0.826        0.133      117.110        5.527        0.002      340.468       14.509      859.925
05/03/2014  06:25:00      -46.665       57.263      -11.581       24.322       34.290       19.966      591.537     1175.794      398.656        0.388        0.108       73.870       18.523        0.063      340.633       14.788      859.903
05/03/2014  06:26:00      -40.591       18.522       -4.194       20.961       16.374       11.274      439.366      268.096      127.096        0.142        0.042       44.618        9.588        0.046      340.599       14.730      859.927
05/03/2014  06:27:00      -49.411       -5.135       -1.343       17.175        8.723       10.240      294.975       76.094      104.851        0.147        0.024       49.678       11.334        0.052      340.640       14.801      859.967
05/03/2014  06:28:00      -61.124       -5.882       -9.572       12.625       10.296        9.414      159.392      106.005       88.632        0.211        0.018       61.406        5.448        0.008      340.734       14.957      859.978
05/03/2014  06:29:00      -39.337       50.766       -6.798       22.664       32.539       12.935      513.678     1058.761      167.309        0.295        0.087       64.223        7.623        0.014      340.861       15.175      859.948
05/03/2014  06:30:00      -15.360       99.347      -11.872       19.097       17.975       10.573      364.689      323.099      111.786        0.552        0.040      100.528        8.136        0.007      341.167       15.692      859.920
05/03/2014  06:31:00      -64.916       38.636       -8.297       20.206       23.541       14.361      408.275      554.199      206.235        0.347        0.058       75.544       16.122        0.046      341.229       15.796      859.912
05/03/2014  06:32:00      -73.773       18.117       -5.791       23.698       27.273       15.919      561.596      743.815      253.411        0.368        0.078       75.965       17.479        0.053      340.618       14.763      859.898
05/03/2014  06:33:00      -25.046       45.532       -7.116       29.388       26.230       20.494      863.638      687.990      419.995        0.236        0.099       51.966       19.816        0.145      340.753       14.991      859.877
05/03/2014  06:34:00      -58.774        4.792       -9.824       28.519       13.487        9.881      813.308      181.889       97.629        0.233        0.055       58.969       10.166        0.030      340.843       15.144      859.886
05/03/2014  06:35:00      -64.356       95.068       -8.638       60.267       79.825       24.598     3632.088     6372.048      605.051        1.193        0.530      114.803       21.862        0.036      341.006       15.419      859.862
05/03/2014  06:36:00      -83.254        2.856       -9.406       55.146       58.113       36.247     3041.090     3377.127     1313.821        0.738        0.387       83.303       27.598        0.110      341.070       15.527      859.822
05/03/2014  06:37:00     -240.383       -2.967      -29.275       97.721       51.585       37.132     9549.309     2661.019     1378.794        3.612        0.679      240.401       43.714        0.033      340.968       15.352      859.833
05/03/2014  06:38:00     -112.647        7.925       -5.852       63.070       53.722       30.113     3977.866     2886.014      906.778        1.028        0.389      112.925       30.795        0.074      340.905       15.249      859.772
05/03/2014  06:39:00      -10.445      -29.611       15.577       44.510       34.562       23.922     1981.173     1194.532      572.239        0.249        0.187       31.400       19.985        0.405      340.769       15.017      859.795
05/03/2014  06:40:00      -44.797       33.754       13.433       53.240       72.958       37.222     2834.493     5322.925     1385.507        0.643        0.477       56.091       31.066        0.307      340.785       15.045      859.767
05/03/2014  06:41:00      -21.258       20.423       13.032       49.317       65.134       23.755     2432.120     4242.395      564.297        0.414        0.362       29.479       27.245        0.854      340.560       14.664      859.749
05/03/2014  06:42:00      -50.544      -12.701        7.669       46.969       33.612       22.798     2206.132     1129.763      519.734        0.331        0.193       52.116       21.037        0.163      340.884       15.212      859.759
05/03/2014  06:43:00     -241.823       33.433      -15.924      164.329       97.886       50.078    27004.004     9581.619     2507.774        4.946        1.955      244.123       61.202        0.063      341.076       15.535      859.695
05/03/2014  06:44:00     -143.066      -70.641        5.860      112.197       78.210       36.287    12588.277     6116.875     1316.775        2.275        1.001      159.556       41.715        0.068      340.991       15.392      859.689
05/03/2014  06:45:00       -4.427     -129.387        2.101       48.300       91.052       43.158     2332.937     8290.535     1862.572        1.462        0.624      129.462       23.073        0.032      341.072       15.530      859.732
05/03/2014  06:46:00      -11.894     -101.433        7.117       75.519       80.538       42.835     5703.139     6486.429     1834.825        1.225        0.701      102.128       33.573        0.108      340.934       15.296      859.716
05/03/2014  06:47:00     -123.311      -39.597       11.084      121.745      120.542       55.796    14821.911    14530.355     3113.233        2.467        1.623      129.512       56.481        0.190      341.082       15.547      859.729
05/03/2014  06:48:00       49.983       27.124       29.798       45.378       42.948       38.861     2059.168     1844.551     1510.205        0.477        0.271       56.868       31.450        0.306      340.721       14.938      859.724
05/03/2014  06:49:00       39.991      -17.888       13.364       36.100       36.748       32.715     1303.180     1350.446     1070.242        0.291        0.186       43.809       24.389        0.310      340.352       14.314      859.786
05/03/2014  06:50:00      -44.332      -40.793       16.865       96.825       69.232       50.961     9375.077     4793.065     2597.069        1.034        0.838       60.245       42.225        0.491      340.744       14.976      859.815
05/03/2014  06:51:00       21.187       93.920      105.230       42.027       48.682       34.315     1766.290     2369.929     1177.513        1.283        0.266       96.280       34.556        0.129      340.073       13.842      859.715
05/03/2014  06:52:00      -44.208      -25.733        9.163       37.439       28.118       28.161     1401.651      790.618      793.059        0.284        0.149       51.152       27.791        0.295      340.451       14.481      859.730
05/03/2014  06:53:00      -66.784      -43.361      -14.243       41.812       56.273       27.311     1748.229     3166.703      745.900        0.610        0.283       79.626       25.185        0.100      341.025       15.451      859.753
05/03/2014  06:54:00       32.400       76.959       -4.208       43.895       77.089       35.783     1926.747     5942.665     1280.432        0.807        0.457       83.501       30.893        0.137      341.022       15.447      859.681
05/03/2014  06:55:00      -75.659      -52.854        2.286       42.713       44.686       27.548     1824.410     1996.881      758.904        0.655        0.229       92.292       27.267        0.087      341.029       15.459      859.743
05/03/2014  06:56:00       35.737      -36.969       10.217       42.265       48.617       20.755     1786.363     2363.619      430.787        0.366        0.229       51.418       22.187        0.186      341.041       15.479      859.756
05/03/2014  06:57:00       89.590       34.490        7.500       25.510       26.009       30.435      650.746      676.473      926.293        0.576        0.113       96.000       23.584        0.060      340.467       14.506      859.698
05/03/2014  06:58:00       41.647        3.563       -3.297       40.976       16.969       11.142     1678.995      287.936      124.154        0.192        0.105       41.799        8.273        0.039      340.525       14.607      859.654
05/03/2014  06:59:00       45.268       -7.061        4.707       38.455       15.858       12.782     1478.773      251.492      163.383        0.201        0.095       45.816       10.803        0.056      340.781       15.039      859.650
05/03/2014  07:00:00       97.470       44.697       -3.670       29.328       37.275       23.193      860.103     1389.444      537.925        0.715        0.139      107.230        7.390        0.005      340.725       14.945      859.646
05/03/2014  07:01:00       86.595       55.250       25.568       35.400       24.367       20.329     1253.159      593.744      413.288        0.673        0.113      102.719       13.247        0.017      340.747       14.981      859.692
05/03/2014  07:02:00       76.645       51.609       42.849       28.119       25.727       27.260      790.692      661.854      743.105        0.628        0.110       92.401       19.188        0.043      340.267       14.170      859.705
05/03/2014  07:03:00       61.609       35.365       21.484       17.182       21.308       19.181      295.208      454.032      367.908        0.331        0.056       71.038        9.460        0.018      340.499       14.563      859.733
05/03/2014  07:04:00       25.384       50.717        7.662       33.863       34.663       19.969     1146.685     1201.523      398.744        0.301        0.137       56.715       18.474        0.106      340.518       14.593      859.712
05/03/2014  07:05:00       10.573      130.395      -16.353       46.489       37.944       22.452     2161.201     1439.721      504.080        1.074        0.205      130.823       21.004        0.026      340.974       15.364      859.684
05/03/2014  07:06:00       38.938       42.705       11.995       31.462       37.042       34.670      989.885     1372.139     1202.015        0.352        0.178       57.792       25.347        0.192      340.923       15.280      859.662
05/03/2014  07:07:00       60.856       30.932       16.596       36.392       28.467       28.349     1324.394      810.390      803.648        0.394        0.147       68.266       19.981        0.086      340.590       14.716      859.707
05/03/2014  07:08:00       15.895      -21.522        2.539       31.202       37.954       26.839      973.575     1440.472      720.326        0.193        0.157       26.755       27.440        1.052      340.175       14.014      859.745
05/03/2014  07:09:00       47.184      -38.102        6.220       19.954       33.733       17.595      398.144     1137.943      309.575        0.278        0.092       60.647       16.723        0.076      340.717       14.931      859.733
05/03/2014  07:10:00       44.010       -7.605       16.799       31.189       23.450       22.413      972.775      549.897      502.333        0.215        0.101       44.662       21.286        0.227      340.469       14.510      859.730
05/03/2014  07:11:00       23.263       10.391       23.767       28.797       35.405       31.395      829.268     1253.509      985.665        0.214        0.153       25.478       29.793        1.367      340.147       13.968      859.696
05/03/2014  07:12:00       82.253       36.326       18.956       37.963       55.990       21.347     1441.190     3134.828      455.689        0.674        0.252       89.918       20.951        0.054      340.575       14.691      859.706
05/03/2014  07:13:00       70.341       39.032        5.892       38.955       27.008       23.507     1517.503      729.440      552.560        0.465        0.140       80.445       15.449        0.037      340.622       14.770      859.677
05/03/2014  07:14:00       -5.397       38.762        0.291       48.559       26.586       23.211     2357.932      706.833      538.741        0.257        0.180       39.136       27.298        0.487      340.562       14.668      859.752
05/03/2014  07:15:00        9.542       66.573      -11.496       33.974       39.405       23.145     1154.221     1552.719      535.701        0.395        0.162       67.253       20.368        0.092      340.646       14.811      859.800
05/03/2014  07:16:00       68.147       62.866       11.861       40.210       37.510       22.070     1616.883     1407.012      487.068        0.612        0.176       92.715       14.301        0.024      340.621       14.767      859.793
05/03/2014  07:17:00       32.122       60.071        2.363       42.332       41.948       25.382     1791.964     1759.667      644.267        0.442        0.210       68.121       27.037        0.158      340.694       14.892      859.770
05/03/2014  07:18:00       35.804      145.840      -20.943       32.244       33.489       23.957     1039.675     1121.520      573.937        1.286        0.137      150.170       20.669        0.019      340.721       14.937      859.761
05/03/2014  07:19:00      109.002      108.298       -0.308       58.818       39.090       35.715     3459.507     1528.032     1275.544        1.494        0.313      153.655       26.558        0.030      340.704       14.908      859.707
05/03/2014  07:20:00      190.410       81.531       16.789       67.531       47.416       38.197     4560.424     2248.272     1459.002        2.572        0.413      207.131       24.402        0.014      340.649       14.811      859.692
05/03/2014  07:21:00      181.846       98.306        7.742       56.400       39.799       33.942     3180.918     1583.943     1152.035        2.435        0.296      206.717       19.747        0.009      340.626       14.773      859.658
05/03/2014  07:22:00      161.323       93.252        6.344       78.029       46.620       36.460     6088.523     2173.437     1329.351        2.217        0.480      186.336       30.344        0.027      340.658       14.829      859.683
05/03/2014  07:23:00      123.897       77.338       39.376       51.221       44.228       43.891     2623.573     1956.094     1926.398        1.469        0.325      146.054       30.423        0.043      340.386       14.371      859.699
05/03/2014  07:24:00      124.541       59.692       27.599       60.806       42.151       36.034     3697.364     1776.743     1298.450        1.330        0.339      138.107       25.107        0.033      340.306       14.234      859.678
05/03/2014  07:25:00       58.701       33.612        7.756       47.539       39.042       28.680     2259.953     1524.277      822.522        0.462        0.230       67.643       16.031        0.056      340.429       14.443      859.742
05/03/2014  07:26:00       39.201       34.801       15.174       30.826       21.575       22.866      950.212      465.482      522.861        0.246        0.097       52.420       19.359        0.136      340.390       14.380      859.758
05/03/2014  07:27:00       -3.593       59.618       -7.351       23.894       27.096       18.177      570.937      734.205      330.396        0.263        0.082       59.726       18.324        0.094      340.295       14.219      859.666
05/03/2014  07:28:00      -25.032       67.503      -15.975       34.751       31.655       13.947     1207.603     1002.021      194.522        0.392        0.120       71.995        7.101        0.010      340.500       14.565      859.592
05/03/2014  07:29:00       54.105       69.167        0.352       61.720       38.370       23.236     3809.347     1472.290      539.930        0.677        0.291       87.815       22.911        0.068      340.473       14.516      859.644
05/03/2014  07:30:00      106.038       48.879       15.258       40.210       40.014       31.587     1616.868     1601.159      997.719        0.904        0.211      116.761       20.816        0.032      340.303       14.231      859.676
05/03/2014  07:31:00      111.124       41.196       22.102       45.988       51.311       32.533     2114.874     2632.823     1058.411        1.017        0.290      118.514       23.117        0.038      340.271       14.177      859.693
05/03/2014  07:32:00       72.960       47.732       19.875       27.572       28.021       28.913      760.216      785.194      835.947        0.519        0.119       87.186       11.721        0.018      340.076       13.848      859.690
05/03/2014  07:33:00       48.062       97.244        2.533       31.437       59.975       37.444      988.264     3597.015     1402.038        0.888        0.299      108.473       43.159        0.158      340.217       14.085      859.616
05/03/2014  07:34:00      -16.689      149.291      -32.179       50.119       38.836       23.631     2511.914     1508.266      558.439        1.409        0.229      150.221       22.059        0.022      340.346       14.303      859.586
05/03/2014  07:35:00      -48.210       79.060      -16.740       38.878       34.121       20.842     1511.477     1164.238      434.395        0.598        0.156       92.600       13.367        0.021      340.441       14.464      859.659
05/03/2014  07:36:00       46.148       73.818       10.086       47.826       51.166       32.952     2287.359     2617.915     1085.854        0.683        0.300       87.055       33.426        0.147      340.434       14.452      859.687
05/03/2014  07:37:00       90.681       59.646       28.982       38.495       31.406       26.842     1481.839      986.328      720.481        0.790        0.159      108.539       12.096        0.012      340.145       13.964      859.694
05/03/2014  07:38:00       70.138       56.286        6.506       35.449       25.431       27.404     1256.654      646.755      750.968        0.539        0.133       89.930       20.866        0.054      340.263       14.162      859.678
05/03/2014  07:39:00       22.693       77.848      -12.784       22.601       33.168       18.536      510.796     1100.086      343.565        0.435        0.098       81.089       19.311        0.057      340.416       14.421      859.638
05/03/2014  07:40:00       75.022       72.609       -3.835       43.413       29.141       27.454     1884.700      849.186      753.707        0.720        0.174      104.405       24.843        0.057      340.435       14.453      859.631
05/03/2014  07:41:00       47.793       31.526       34.451       44.428       24.367       21.094     1973.870      593.728      444.939        0.374        0.151       57.254       17.716        0.096      340.151       13.974      859.656
05/03/2014  07:42:00       40.201       43.179        4.614       36.330       27.819       26.817     1319.894      773.891      719.127        0.316        0.141       58.996       17.931        0.092      340.442       14.467      859.672
05/03/2014  07:43:00       11.103       51.333       -6.696       31.636       48.691       26.505     1000.821     2370.788      702.510        0.344        0.204       52.519       25.935        0.244      340.517       14.593      859.655
05/03/2014  07:44:00       56.676       12.896        9.208       26.475       30.856       22.866      700.915      952.085      522.859        0.282        0.109       58.124       12.266        0.045      340.639       14.800      859.764
05/03/2014  07:45:00       25.769       -1.862        9.543       45.445       27.617       20.755     2065.271      762.671      430.773        0.201        0.163       25.836       22.041        0.728      340.724       14.942      859.802
05/03/2014  07:46:00        3.397       78.335        0.607       35.526       56.655       32.251     1262.093     3209.788     1040.151        0.583        0.276       78.409       35.222        0.202      340.475       14.522      859.729
05/03/2014  07:47:00      -47.544       66.899      -18.284       29.163       57.472       14.733      850.484     3303.015      217.063        0.572        0.219       82.072       25.242        0.095      340.680       14.868      859.743
05/03/2014  07:48:00      -10.741        6.224        6.198       22.199       17.464       13.125      492.783      304.997      172.277        0.058        0.049       12.414       13.624        1.204      340.611       14.752      859.814
05/03/2014  07:49:00       24.492       43.308       11.399       24.477       24.313       15.013      599.110      591.131      225.384        0.201        0.071       49.754       12.970        0.068      340.470       14.513      859.778
05/03/2014  07:50:00       -0.483      162.498      -26.962       30.738       49.687       14.034      944.808     2468.792      196.961        1.537        0.181      162.498       20.824        0.016      340.618       14.764      859.674
05/03/2014  07:51:00      -35.962      167.837      -19.075       29.972       43.171       20.764      898.345     1863.726      431.154        1.651        0.160      171.646       22.298        0.017      340.727       14.948      859.661
05/03/2014  07:52:00      -10.208       61.373        8.116       28.066       40.493       22.871      787.689     1639.702      523.068        0.344        0.148       62.217       25.535        0.168      340.769       15.020      859.724
05/03/2014  07:53:00       38.945       55.024        4.305       31.414       27.052       19.566      986.851      731.811      382.809        0.333        0.105       67.412       15.806        0.055      340.742       14.972      859.722
05/03/2014  07:54:00      104.896       65.851       10.476       59.020       35.911       33.113     3483.352     1289.589     1096.491        1.066        0.293      123.853       21.396        0.030      340.484       14.536      859.698
05/03/2014  07:55:00      161.403       95.333       30.888       48.035       38.670       39.296     2307.344     1495.353     1544.137        2.072        0.267      187.455       30.748        0.027      340.685       14.876      859.680
05/03/2014  07:56:00       43.580       34.691       45.281       64.669       65.553       34.416     4182.019     4297.194     1184.449        0.741        0.483       55.702       27.604        0.246      340.565       14.673      859.694
05/03/2014  07:57:00       44.080      -69.050      -18.935       22.999       25.512       17.283      528.946      650.856      298.708        0.427        0.074       81.920       13.548        0.027      340.166       14.000      859.803
05/03/2014  07:58:00        5.326       -3.369       14.489       19.306       26.728       22.590      372.706      714.390      510.330        0.092        0.080        6.302       16.805        7.112      340.514       14.588      859.855
05/03/2014  07:59:00       12.375       25.082       21.201       27.079       22.596       23.267      733.250      510.586      541.364        0.151        0.089       27.969        6.751        0.058      340.109       13.904      859.792
05/03/2014  08:00:00      -11.015      -11.694       -0.061       38.074       20.889       15.366     1449.611      436.330      236.115        0.119        0.106       16.065       10.284        0.410      340.322       14.263      859.679
05/03/2014  08:01:00      -78.131       -6.017      -13.452       15.627       16.105       16.335      244.200      259.366      266.824        0.355        0.039       78.362        7.491        0.009      340.571       14.684      859.646
05/03/2014  08:02:00      -36.678      -31.502      -16.289       40.226       35.235       19.303     1618.099     1241.493      372.589        0.292        0.162       48.349       16.440        0.116      340.768       15.017      859.728
05/03/2014  08:03:00       57.789        4.520       23.005       33.396       22.457       30.126     1115.305      504.298      907.590        0.321        0.126       57.966       18.467        0.101      340.549       14.647      859.823
05/03/2014  08:04:00       77.933       63.598       24.898       37.181       30.662       22.642     1382.396      940.132      512.657        0.679        0.142      100.589       12.305        0.015      340.251       14.143      859.776
05/03/2014  08:05:00      127.064       67.499       -0.559       34.727       31.934       22.133     1205.966     1019.810      489.891        1.171        0.136      143.880       15.740        0.012      340.754       14.992      859.646
05/03/2014  08:06:00       86.758       51.955       11.356       31.592       30.502       25.792      998.044      930.387      665.220        0.647        0.130      101.125       15.486        0.023      340.833       15.127      859.621
05/03/2014  08:07:00       49.097       11.032       12.058       33.203       28.518       24.450     1102.435      813.291      597.827        0.260        0.126       50.321        9.362        0.035      340.552       14.651      859.686
05/03/2014  08:08:00       45.505        5.797        2.589       19.737       26.379       19.367      389.559      695.836      375.063        0.179        0.073       45.873       13.502        0.087      340.350       14.309      859.712
05/03/2014  08:09:00       67.287       -0.198       -0.517       23.781       27.865       20.788      565.521      776.444      432.150        0.315        0.089       67.287       13.002        0.037      340.094       13.878      859.693
05/03/2014  08:10:00       35.159        4.722       26.662       42.808       47.590       32.303     1832.558     2264.768     1043.458        0.355        0.257       35.475       35.001        0.973      340.267       14.169      859.698
05/03/2014  08:11:00       12.560       -1.050       30.780       33.121       52.771       30.574     1097.028     2784.781      934.775        0.296        0.241       12.603       11.065        0.771      340.701       14.903      859.693
05/03/2014  08:12:00       25.297      -51.929        5.664       40.937       33.546       28.587     1675.863     1125.343      817.197        0.349        0.181       57.763       13.414        0.054      340.401       14.397      859.667
05/03/2014  08:13:00       49.658      -40.431       -1.267       29.339       27.145       24.645      860.756      736.859      607.371        0.315        0.110       64.036       18.612        0.084      340.529       14.615      859.677
05/03/2014  08:14:00       35.673       -8.079        2.863       42.310       36.517       27.701     1790.150     1333.498      767.357        0.262        0.195       36.576       22.696        0.385      340.443       14.467      859.676
05/03/2014  08:15:00       13.870        0.974       20.876       18.816       27.234       23.642      354.031      741.667      558.931        0.114        0.083       13.904        6.739        0.235      340.635       14.792      859.662
05/03/2014  08:16:00       23.805      -18.492       -3.608       39.616       28.526       17.412     1569.402      813.713      303.180        0.180        0.134       30.144       18.834        0.390      340.578       14.696      859.638
05/03/2014  08:17:00       34.269     -105.610       -0.498       28.832       54.906       24.566      831.262     3014.654      603.477        0.839        0.222      111.031       17.169        0.024      341.064       15.517      859.708
05/03/2014  08:18:00       22.553     -122.786       -2.708       48.017       34.817       30.442     2305.637     1212.219      926.736        1.002        0.222      124.840       18.833        0.023      341.310       15.935      859.794
05/03/2014  08:19:00       -2.122        3.568       34.937       20.902       46.831       23.172      436.904     2193.106      536.952        0.220        0.158        4.151       27.044       42.438      341.130       15.630      859.783
05/03/2014  08:20:00       -1.343        5.171       22.638       24.901       29.157       20.274      620.061      850.131      411.034        0.121        0.094        5.342       17.594       10.846      340.590       14.716      859.729
05/03/2014  08:21:00        4.228       -4.831        3.156       33.400       32.410       12.345     1115.545     1050.419      152.392        0.118        0.116        6.419        9.660        2.265      340.753       14.993      859.689
05/03/2014  08:22:00       57.699       23.272       16.331       19.151       26.960       23.471      366.753      726.853      550.888        0.289        0.082       62.215       12.425        0.040      340.832       15.125      859.676
05/03/2014  08:23:00       43.254       -2.003        2.471       21.444       23.009       23.762      459.855      529.392      564.618        0.172        0.078       43.300       14.936        0.119      340.921       15.276      859.665
05/03/2014  08:24:00        8.614     -135.185        9.061       39.861      102.553       26.670     1588.939    10517.166      711.267        1.562        0.641      135.459       40.548        0.090      341.182       15.714      859.680
05/03/2014  08:25:00     -114.108      -94.669       -2.647       60.336       53.123       36.244     3640.422     2822.022     1313.626        1.488        0.389      148.266       33.521        0.051      341.437       16.146      859.692
05/03/2014  08:26:00      -47.207      -77.037       -0.674       33.061       26.115       24.964     1093.014      681.982      623.203        0.528        0.120       90.350       20.852        0.053      341.626       16.468      859.699
05/03/2014  08:27:00       11.509      -16.131       32.720       28.956       48.627       27.918      838.461     2364.618      779.400        0.272        0.199       19.815       20.887        1.111      341.405       16.095      859.698
05/03/2014  08:28:00      -20.334       -1.731       12.056       63.843       45.681       32.182     4075.875     2086.753     1035.697        0.388        0.360       20.407       29.958        2.155      341.451       16.174      859.653
05/03/2014  08:29:00      -37.909      -55.632        0.716       57.051       32.437       27.928     3254.818     1052.165      779.988        0.481        0.254       67.320       22.587        0.113      341.356       16.012      859.628
05/03/2014  08:30:00       21.756       -3.594        1.912       27.606       16.035       27.316      762.119      257.133      746.149        0.113        0.088       22.051       16.047        0.530      341.176       15.707      859.605
05/03/2014  08:31:00       15.175      -40.036      -10.004       36.340       32.392       26.170     1320.575     1049.230      684.891        0.249        0.153       42.816       20.879        0.238      341.009       15.425      859.631
05/03/2014  08:32:00      -52.235      -86.517       -6.574       46.062       41.565       18.992     2121.680     1727.648      360.700        0.723        0.211      101.063       20.561        0.041      341.700       16.595      859.688
05/03/2014  08:33:00      -75.378      -86.694       -6.017       60.891       48.787       29.546     3707.659     2380.171      872.985        1.010        0.348      114.881       23.519        0.042      341.800       16.764      859.668
05/03/2014  08:34:00     -174.091      -93.388      -11.823      103.134       71.057       43.184    10636.554     5049.160     1864.880        2.836        0.878      197.557       47.599        0.058      341.747       16.672      859.642
05/03/2014  08:35:00      -95.065     -112.286       16.034       67.117       84.105       42.172     4504.661     7073.617     1778.516        1.763        0.668      147.125       41.963        0.081      341.747       16.672      859.626
05/03/2014  08:36:00     -102.907      -53.594       14.286       50.846       64.022       28.755     2585.358     4098.872      826.824        1.059        0.376      116.027       25.412        0.048      341.740       16.662      859.563
05/03/2014  08:37:00     -170.909      -50.278       -4.974       67.398       73.421       39.342     4542.483     5390.632     1547.764        2.162        0.574      178.151       34.805        0.038      341.796       16.756      859.519
05/03/2014  08:38:00      -11.550      -64.433       13.575       41.289       30.388       28.250     1704.805      923.444      798.071        0.395        0.171       65.460       23.916        0.133      341.823       16.803      859.517
05/03/2014  08:39:00      -47.324      -84.271        9.438       54.347       66.496       25.377     2953.552     4421.756      643.967        0.872        0.401       96.650       30.455        0.099      341.853       16.854      859.538
05/03/2014  08:40:00      -23.240      -24.977       -1.045       20.318       28.689       17.971      412.821      823.056      322.951        0.136        0.078       34.117       12.877        0.142      341.890       16.917      859.552
05/03/2014  08:41:00      -31.597        7.724       -7.311       29.615       27.217       18.046      877.032      740.769      325.641        0.153        0.097       32.528       12.810        0.155      341.797       16.760      859.540
05/03/2014  08:42:00      -26.937      -12.279       -3.276       29.914       29.861       19.565      894.861      891.674      382.785        0.153        0.108       29.604       12.551        0.180      341.744       16.669      859.587
05/03/2014  08:43:00      -44.204      -62.236        3.047       39.953       41.069       21.724     1596.207     1686.662      471.923        0.479        0.188       76.337       10.665        0.020      341.853       16.854      859.604
05/03/2014  08:44:00      -32.962      -20.930       -1.892       51.051       47.723       37.205     2606.167     2277.499     1384.244        0.390        0.313       39.045       29.652        0.577      341.799       16.764      859.606
05/03/2014  08:45:00       -6.448      -21.999       12.324       32.523       38.329       26.642     1057.769     1469.100      709.808        0.196        0.162       22.925       14.613        0.406      341.665       16.535      859.563
05/03/2014  08:46:00       -2.945       17.426       -4.238       23.019       20.646       16.419      529.873      426.270      269.589        0.078        0.061       17.673       11.702        0.438      341.332       15.970      859.493
05/03/2014  08:47:00       41.843      -35.827       -0.816       35.995       29.496       19.312     1295.627      869.999      372.963        0.279        0.127       55.086       12.243        0.049      341.198       15.744      859.530
05/03/2014  08:48:00       -5.790      -16.384       14.814       40.263       33.181       29.924     1621.118     1100.977      895.439        0.207        0.181       17.377       15.915        0.839      341.164       15.686      859.604
05/03/2014  08:49:00      -29.828      -26.618        3.539       34.682       34.772       16.290     1202.858     1209.082      265.350        0.214        0.134       39.978       12.092        0.091      341.834       16.822      859.644
05/03/2014  08:50:00       -7.217        6.677        5.316       15.758       22.515       15.749      248.315      506.912      248.025        0.056        0.050        9.832        5.114        0.271      341.949       17.017      859.624
05/03/2014  08:51:00       42.297        1.149        1.825       36.121       24.165       24.625     1304.708      583.964      606.375        0.214        0.125       42.312       18.565        0.193      341.211       15.767      859.565
05/03/2014  08:52:00       -4.297        4.078       -6.343       32.734       14.524       18.716     1071.520      210.961      350.270        0.085        0.082        5.924       10.328        3.040      341.582       16.394      859.508
05/03/2014  08:53:00     -109.897      -47.558      -16.106       31.356       43.710       21.926      983.220     1910.578      480.758        0.899        0.169      119.746       19.654        0.027      342.003       17.110      859.554
05/03/2014  08:54:00      -64.238      -81.900        7.371       56.086       88.440       30.322     3145.613     7821.551      919.426        1.139        0.594      104.087       29.563        0.081      342.072       17.225      859.590
05/03/2014  08:55:00      -23.586      -46.467       30.275       50.342       67.722       34.453     2534.324     4586.308     1187.020        0.597        0.415       52.110       33.096        0.403      342.040       17.171      859.545
05/03/2014  08:56:00      -29.019      -60.773       15.313       80.026       59.387       31.974     6404.164     3526.816     1022.363        0.786        0.548       67.346       37.029        0.302      342.072       17.224      859.484
05/03/2014  08:57:00     -202.612     -138.807      -13.913       94.383       53.695       38.241     8908.064     2883.113     1462.349        3.688        0.663      245.599       46.423        0.036      342.079       17.232      859.535
05/03/2014  08:58:00     -190.847      -89.715        2.591       69.362       56.988       32.892     4811.144     3247.576     1081.871        2.681        0.457      210.882       19.475        0.009      342.109       17.286      859.602
05/03/2014  08:59:00      -50.133      -55.351        9.649       84.645       49.018       36.520     7164.816     2402.784     1333.700        0.828        0.545       74.680       46.684        0.391      342.183       17.413      859.599
05/03/2014  09:00:00      -37.276     -137.253        6.010       48.800       36.394       30.656     2381.478     1324.544      939.772        1.245        0.232      142.225       25.308        0.032      342.111       17.290      859.528
05/03/2014  09:01:00        6.020      -41.251        1.524       37.653       48.669       34.395     1417.742     2368.668     1183.028        0.335        0.248       41.688       27.778        0.444      342.099       17.271      859.456
05/03/2014  09:02:00      -56.052      -85.710        0.264       66.851       54.362       27.586     4469.040     2955.201      761.014        0.934        0.409      102.411       21.000        0.042      341.874       16.892      859.492
05/03/2014  09:03:00     -106.132     -121.922        1.910       61.875       86.657       34.788     3828.470     7509.419     1210.217        1.934        0.627      161.645       27.128        0.028      342.112       17.292      859.540
05/03/2014  09:04:00     -140.374     -101.516       10.077       77.540       51.030       28.732     6012.378     2604.106      825.514        1.977        0.472      173.234       23.866        0.019      342.114       17.296      859.594
05/03/2014  09:05:00       -8.063     -134.229       12.008       56.049       56.470       28.486     3141.468     3188.885      811.439        1.268        0.357      134.471       28.704        0.046      342.105       17.280      859.600
05/03/2014  09:06:00      -84.745      -28.500       -1.512       40.361       35.863       20.419     1629.021     1286.157      416.951        0.566        0.167       89.409       16.258        0.033      342.139       17.341      859.572
05/03/2014  09:07:00      -40.733      -20.769        2.392       20.539       31.662       22.185      421.843     1002.484      492.193        0.201        0.096       45.722       19.310        0.178      342.152       17.360      859.540
05/03/2014  09:08:00        7.000       -0.928       27.101       37.479       25.128       19.417     1404.712      631.411      377.009        0.160        0.121        7.061       16.415        5.404      341.775       16.722      859.538
05/03/2014  09:09:00       24.740      -33.690       12.348       40.074       41.593       34.595     1605.935     1729.990     1196.821        0.322        0.227       41.798       31.022        0.551      341.554       16.348      859.546
05/03/2014  09:10:00       -3.320      -10.113       22.967       15.941       25.237       16.376      254.107      636.886      268.187        0.090        0.058       10.644       11.567        1.181      342.216       17.469      859.548
05/03/2014  09:11:00        0.481      -12.634       30.250       14.968       29.677       13.572      224.048      880.700      184.195        0.118        0.064       12.643       14.839        1.378      341.994       17.094      859.523
05/03/2014  09:12:00      -30.447        3.561        9.112       20.620       31.641       17.019      425.201     1001.139      289.655        0.137        0.086       30.655       12.634        0.170      342.157       17.371      859.464
05/03/2014  09:13:00      -47.199       27.315        7.619       42.527       29.110       19.994     1808.570      847.405      399.778        0.304        0.153       54.533       17.334        0.101      342.254       17.535      859.446
05/03/2014  09:14:00     -111.910      -19.070       -5.758       46.817       45.697       23.365     2191.845     2088.202      545.943        0.887        0.241      113.523       26.323        0.054      342.298       17.611      859.490
05/03/2014  09:15:00      -80.596      -51.159        3.967       40.590       33.153       17.039     1647.586     1099.130      290.320        0.608        0.152       95.462       20.870        0.048      342.317       17.642      859.508
05/03/2014  09:16:00      -46.648      -15.456        5.252       48.579       24.137       20.734     2359.889      582.595      429.908        0.291        0.169       49.142       15.730        0.102      342.339       17.678      859.513
05/03/2014  09:17:00      -36.645      -25.677        8.716       35.688       22.509       21.784     1273.607      506.655      474.535        0.217        0.113       44.745       20.678        0.214      342.479       17.917      859.498
05/03/2014  09:18:00     -101.479      -17.381        1.674       57.589       30.917       23.798     3316.465      955.869      566.350        0.772        0.242      102.956       27.026        0.069      342.364       17.723      859.481
05/03/2014  09:19:00      -23.149      -28.973        3.692       51.680       35.500       23.940     2670.818     1260.255      573.100        0.295        0.225       37.085       17.452        0.221      341.984       17.075      859.477
05/03/2014  09:20:00      -89.306      -38.911       12.143       93.608       62.487       31.459     8762.476     3904.658      989.688        1.164        0.683       97.414       38.683        0.158      342.210       17.460      859.517
05/03/2014  09:21:00     -134.567      -99.824        7.771       86.224       58.596       38.134     7434.560     3433.434     1454.233        2.023        0.616      167.550       39.514        0.056      342.413       17.801      859.542
05/03/2014  09:22:00     -102.016      -83.725       -4.001       52.455       73.614       28.465     2751.557     5419.050      810.283        1.321        0.449      131.974       25.539        0.037      342.402       17.785      859.533
05/03/2014  09:23:00      -64.896      -14.118       17.071       66.577       47.572       24.461     4432.539     2263.130      598.319        0.600        0.365       66.414       33.085        0.248      342.355       17.708      859.510
05/03/2014  09:24:00      -74.186     -102.128       -4.215       56.040       52.049       28.207     3140.489     2709.055      795.617        1.130        0.332      126.228       25.539        0.041      342.417       17.813      859.529
05/03/2014  09:25:00     -103.612      -72.512        1.285       49.019       46.410       22.879     2402.896     2153.925      523.471        1.054        0.254      126.466       16.986        0.018      342.428       17.829      859.570
05/03/2014  09:26:00     -106.021      -62.533       -1.203      112.635       60.912       35.746    12686.665     3710.304     1277.741        1.641        0.884      123.088       46.657        0.144      342.464       17.890      859.561
05/03/2014  09:27:00     -146.799      -55.481      -13.186       40.970       52.453       27.966     1678.552     2751.363      782.077        1.501        0.261      156.934       28.193        0.032      342.383       17.752      859.538
05/03/2014  09:28:00      -67.022      -36.573        9.044       43.291       33.141       20.943     1874.109     1098.331      438.591        0.466        0.171       76.352       21.875        0.082      342.527       17.999      859.528
05/03/2014  09:29:00      -58.868     -104.366       -3.169       52.746       74.170       28.516     2782.171     5501.117      813.186        1.173        0.455      119.824       26.560        0.049      342.513       17.975      859.536
05/03/2014  09:30:00      -87.266     -141.242       -0.063       50.965       50.489       32.632     2597.468     2549.129     1064.825        1.689        0.311      166.026       26.896        0.026      342.476       17.910      859.545
05/03/2014  09:31:00     -179.630     -180.601       -8.242      100.210       72.320       46.061    10042.082     5230.247     2121.603        4.117        0.870      254.723       51.481        0.041      342.459       17.880      859.550
05/03/2014  09:32:00      -35.172     -145.322        3.874       44.684       79.977       38.779     1996.616     6396.285     1503.832        1.613        0.495      149.518       41.049        0.075      342.579       18.087      859.561
05/03/2014  09:33:00      -27.874     -167.118        0.014       62.084       67.527       32.323     3854.441     4559.917     1044.755        1.908        0.473      169.426       19.429        0.013      342.563       18.059      859.530
05/03/2014  09:34:00      -53.117     -114.083      -14.547       67.281       67.955       25.945     4526.672     4617.876      673.149        1.293        0.491      125.843       25.275        0.040      342.600       18.122      859.507
05/03/2014  09:35:00      -80.156      -78.942        4.870       55.820       71.896       34.324     3115.907     5169.042     1178.164        1.107        0.473      112.503       30.326        0.073      342.527       17.999      859.506
05/03/2014  09:36:00     -105.564      -72.963       -1.575       59.498       47.407       30.765     3540.040     2247.459      946.498        1.160        0.337      128.325       28.396        0.049      342.553       18.041      859.499
05/03/2014  09:37:00     -102.176      -59.259       15.320       74.731       51.536       35.762     5584.740     2655.954     1278.946        1.185        0.476      118.117       41.561        0.124      342.689       18.273      859.514
05/03/2014  09:38:00     -118.514      -89.116       -0.296       82.147       72.434       33.730     6748.101     5246.651     1137.741        1.756        0.657      148.281       32.023        0.047      342.643       18.195      859.539
05/03/2014  09:39:00     -185.399      -95.789        1.823       88.034       74.007       39.439     7749.982     5476.980     1555.464        2.916        0.739      208.682       47.523        0.052      342.558       18.047      859.533
05/03/2014  09:40:00     -142.991     -100.403       -5.404       73.838       61.554       42.267     5452.067     3788.865     1786.488        2.079        0.551      174.721       44.481        0.065      342.584       18.093      859.500
05/03/2014  09:41:00     -139.856       18.087       -9.276       65.068       38.444       27.158     4233.785     1477.938      737.550        1.321        0.322      141.021       32.665        0.054      342.565       18.063      859.466
05/03/2014  09:42:00     -103.395     -120.009       -3.609       62.404       52.091       32.168     3894.298     2713.456     1034.797        1.637        0.382      158.407       33.835        0.046      342.601       18.126      859.447
05/03/2014  09:43:00      -39.663     -109.214        4.403       33.936       31.653       26.356     1151.664     1001.888      694.640        0.818        0.142      116.193       20.811        0.032      342.613       18.147      859.429
05/03/2014  09:44:00      -78.273      -36.522        3.582       45.918       35.562       20.175     2108.437     1264.668      407.035        0.563        0.189       86.374       20.718        0.058      342.739       18.360      859.362
05/03/2014  09:45:00      -83.853      -75.260        0.688       62.292       55.383       36.672     3880.246     3067.308     1344.855        1.049        0.415      112.674       31.251        0.077      342.789       18.443      859.342
05/03/2014  09:46:00      -62.382      -10.985       20.772       59.718       59.492       31.491     3566.214     3539.330      991.652        0.627        0.405       63.342       33.212        0.275      342.902       18.636      859.362
05/03/2014  09:47:00     -100.820      -48.670       11.347       86.799       72.015       45.426     7534.126     5186.195     2063.498        1.372        0.739      111.953       44.176        0.156      342.899       18.631      859.395
05/03/2014  09:48:00     -171.310      -57.743       -0.198       58.514       39.599       32.169     3423.885     1568.118     1034.860        1.935        0.301      180.780       31.385        0.030      342.882       18.602      859.370
05/03/2014  09:49:00      -57.308        0.607        1.912       50.579       66.475       28.167     2558.223     4418.925      793.379        0.553        0.389       57.312       25.105        0.192      342.934       18.692      859.336
05/03/2014  09:50:00     -100.989      -86.398        4.501       56.875       44.218       28.883     3234.748     1955.228      834.252        1.185        0.301      132.904       16.388        0.015      342.866       18.574      859.328
05/03/2014  09:51:00     -107.447     -190.154        7.022       59.107      133.641       37.850     3493.642    17859.902     1432.660        3.526        1.139      218.411       27.148        0.015      342.884       18.605      859.338
05/03/2014  09:52:00      -70.054     -173.468       -4.772       47.343       97.076       24.237     2241.405     9423.697      587.414        2.363        0.613      187.080       26.688        0.020      342.665       18.233      859.324
05/03/2014  09:53:00     -106.957      -77.154        8.014       78.908       58.848       28.893     6226.518     3463.079      834.792        1.399        0.526      131.880       28.001        0.045      342.835       18.521      859.288
05/03/2014  09:54:00     -125.372     -137.500       -7.181       65.399       55.669       33.912     4277.011     3098.986     1150.047        2.160        0.426      186.076       32.265        0.030      342.784       18.435      859.297
05/03/2014  09:55:00     -167.743     -140.751       -7.508       69.875       90.961       39.660     4882.546     8273.993     1572.947        3.136        0.736      218.971       28.673        0.017      342.742       18.362      859.316
05/03/2014  09:56:00     -168.762     -107.893      -10.569       55.078       46.449       26.297     3033.638     2157.526      691.532        2.306        0.294      200.303       23.738        0.014      342.710       18.308      859.308
05/03/2014  09:57:00      -97.594      -49.262       -2.764       62.629       38.058       28.791     3922.413     1448.417      828.926        0.908        0.310      109.322       32.815        0.090      342.855       18.557      859.283
05/03/2014  09:58:00     -139.944     -124.375        0.241       90.426       73.565       41.659     8176.891     5411.772     1735.458        2.519        0.766      187.226       41.055        0.048      342.927       18.676      859.251
05/03/2014  09:59:00     -192.773     -209.275        4.366      119.363       90.404       42.842    14247.623     8172.892     1835.432        5.261        1.213      284.530       40.666        0.020      342.852       18.549      859.209
05/03/2014  10:00:00     -127.069      -71.163       14.027      129.125      101.244       52.923    16673.280    10250.289     2800.840        2.556        1.486      145.639       49.974        0.118      342.953       18.721      859.201
05/03/2014  10:01:00       -0.772      -63.292        4.210       56.289       58.483       46.427     3168.403     3420.246     2155.447        0.638        0.437       63.296       39.275        0.385      343.145       19.050      859.234
05/03/2014  10:02:00      -62.227      -90.498       -9.052       62.231       53.377       33.516     3872.744     2849.157     1123.345        0.999        0.392      109.828       25.942        0.056      343.067       18.916      859.220
05/03/2014  10:03:00     -200.542     -147.343       -1.754       88.627       70.057       45.771     7854.756     4907.919     2095.016        3.839        0.743      248.851       28.433        0.013      343.057       18.897      859.215
05/03/2014  10:04:00     -179.149      -95.774       13.824      126.952       66.028       45.646    16116.790     4359.753     2083.548        3.200        1.128      203.143       46.123        0.052      343.053       18.893      859.216
05/03/2014  10:05:00     -190.531     -110.100        3.818       98.393       84.706       42.289     9681.192     7175.161     1788.319        3.354        0.932      220.055       45.742        0.043      343.032       18.855      859.191
05/03/2014  10:06:00     -246.980     -133.916       -3.807      110.508       95.597       51.544    12212.095     9138.877     2656.773        5.147        1.200      280.950       38.155        0.018      342.978       18.762      859.107
05/03/2014  10:07:00     -145.657     -131.442        4.488       83.642       86.196       40.303     6996.051     7429.736     1624.353        2.728        0.803      196.196       45.583        0.054      343.051       18.888      859.088
05/03/2014  10:08:00      -89.326     -101.047        6.453       64.140       84.566       40.590     4113.994     7151.348     1647.534        1.557        0.646      134.869       39.800        0.087      343.128       19.021      859.116
05/03/2014  10:09:00      -72.982     -111.389       -7.695       62.535       68.589       52.070     3910.594     4704.511     2711.301        1.456        0.566      133.168       31.277        0.055      343.204       19.150      859.164
05/03/2014  10:10:00     -119.600      -55.502       10.913       99.122       69.324       39.740     9825.152     4805.795     1579.306        1.685        0.811      131.851       25.873        0.039      343.289       19.294      859.184
05/03/2014  10:11:00     -262.947     -187.931      -25.271       95.035      114.878       48.055     9031.714    13196.961     2309.260        6.481        1.227      323.201       41.503        0.016      343.089       18.952      859.198
05/03/2014  10:12:00      -25.355     -160.307        5.448      104.685       89.780       53.550    10958.856     8060.537     2867.562        2.412        1.094      162.300       24.666        0.023      343.143       19.046      859.185
05/03/2014  10:13:00      -64.152       13.640        1.001       60.583       80.933       40.646     3670.337     6550.115     1652.124        0.809        0.594       65.586       37.245        0.322      343.211       19.162      859.152
05/03/2014  10:14:00      -51.944       -2.201       -2.827       64.587       52.523       31.393     4171.477     2758.676      985.515        0.531        0.396       51.991       33.938        0.426      343.133       19.031      859.144
05/03/2014  10:15:00       -7.536        9.247       19.201       46.510       40.744       21.444     2163.172     1660.077      459.857        0.240        0.214       11.929       26.231        4.835      343.178       19.107      859.136
05/03/2014  10:16:00       -9.821     -113.940       21.355       66.203       99.293       33.996     4382.810     9859.116     1155.706        1.446        0.770      114.363       44.479        0.151      343.055       18.896      859.137
05/03/2014  10:17:00     -127.174      -93.416      -13.747       72.369       57.507       27.640     5237.306     3307.041      763.954        1.720        0.465      157.797       19.379        0.015      343.122       19.009      859.122
05/03/2014  10:18:00     -115.398      -83.387        6.443       58.140       52.168       36.202     3380.251     2721.551     1310.591        1.386        0.371      142.373       28.600        0.040      343.180       19.109      859.148
05/03/2014  10:19:00      -93.725      -75.024      -14.432       25.121       39.212       20.135      631.048     1537.582      405.418        0.860        0.129      120.053       15.866        0.017      343.000       18.803      859.141
05/03/2014  10:20:00        7.368       43.477       45.730       36.398       46.565       43.631     1324.811     2168.277     1903.658        0.472        0.270       44.097       25.137        0.325      343.290       19.298      859.122
05/03/2014  10:21:00      -90.063     -114.798       17.525      109.942      111.903       52.827    12087.280    12522.319     2790.648        2.449        1.370      145.910       73.225        0.252      343.146       19.050      859.115
05/03/2014  10:22:00       24.597     -115.006       -6.282       89.079       88.578       38.857     7935.106     7846.087     1509.859        1.558        0.865      117.607       24.068        0.042      343.057       18.899      859.115
05/03/2014  10:23:00      -20.101       33.582       19.426       89.565       68.422       53.857     8021.899     4681.517     2900.627        0.875        0.780       39.138       60.406        2.382      342.979       18.768      859.070
05/03/2014  10:24:00     -150.364      -56.180       -7.852       66.038       70.454       27.221     4361.047     4963.833      740.969        1.794        0.503      160.516       17.347        0.012      343.173       19.095      859.073
05/03/2014  10:25:00     -134.356     -108.021      -10.262       95.277       65.468       39.031     9077.761     4286.065     1523.425        2.235        0.744      172.395       44.736        0.067      343.103       18.976      859.064
05/03/2014  10:26:00      -63.666      -58.824        2.639       43.605       53.590       26.717     1901.356     2871.840      713.824        0.650        0.274       86.681       32.815        0.143      343.234       19.202      859.061
05/03/2014  10:27:00      -34.740      -60.944        7.221       30.344       27.265       27.573      920.788      743.407      760.259        0.370        0.121       70.149       12.611        0.032      343.272       19.266      859.063
05/03/2014  10:28:00       33.020      -16.657       20.356       28.125       29.061       23.440      791.034      844.514      549.426        0.198        0.109       36.983       10.248        0.077      342.833       18.519      859.039
05/03/2014  10:29:00       40.746      -79.673        2.318       42.850       63.348       41.126     1836.137     4012.911     1691.383        0.778        0.377       89.488       34.296        0.147      343.143       19.047      859.014
05/03/2014  10:30:00       35.318       -1.981       22.833       41.536       46.965       38.135     1725.270     2205.722     1454.287        0.358        0.269       35.374       31.120        0.774      342.970       18.753      858.990
05/03/2014  10:31:00       -6.312       -3.220       22.769       22.698       30.719       28.803      515.217      943.654      829.622        0.143        0.114        7.085       14.032        3.922      342.976       18.763      858.973
05/03/2014  10:32:00       -3.135        3.728       -8.070       35.719       22.854       19.683     1275.876      522.285      387.401        0.114        0.109        4.871       12.832        6.941      342.983       18.774      858.974
05/03/2014  10:33:00      -53.609      -28.699        0.847       76.745       36.003       24.294     5889.736     1296.231      590.185        0.574        0.389       60.808       26.840        0.195      343.430       19.534      858.977
05/03/2014  10:34:00      -76.825     -107.802       -7.663      178.795      113.383       49.360    31967.542    12855.685     2436.410        3.241        2.363      132.376       50.567        0.146      343.545       19.730      858.958
05/03/2014  10:35:00       45.535     -181.583        0.817       96.950       76.472       60.627     9399.378     5847.891     3675.658        2.698        0.946      187.206       52.805        0.080      343.557       19.748      858.971
05/03/2014  10:36:00       48.667       78.918      106.104       86.760       91.061       78.826     7527.304     8292.085     6213.504        2.094        1.102       92.718       67.514        0.530      343.408       19.497      858.963
05/03/2014  10:37:00      101.986      -52.719       32.451       69.284       97.095       72.273     4800.310     9427.534     5223.413        1.684        0.973      114.806       65.116        0.322      343.324       19.355      858.977
05/03/2014  10:38:00       66.730       22.516       40.822       45.791       39.956       31.988     2096.859     1596.446     1023.209        0.567        0.236       70.426       17.435        0.061      343.396       19.479      858.978
05/03/2014  10:39:00       23.431       15.293       45.127       52.104       57.117       56.773     2714.828     3262.338     3223.148        0.601        0.460       27.980       24.794        0.785      343.658       19.923      858.968
05/03/2014  10:40:00      -12.752       -4.942       31.674       31.763       59.303       30.092     1008.885     3516.822      905.506        0.331        0.272       13.676       19.062        1.943      343.506       19.666      858.968
05/03/2014  10:41:00       72.826      -83.297       -2.231       46.720       63.535       37.915     2182.729     4036.635     1437.582        0.995        0.383      110.644       38.035        0.118      343.338       19.380      858.954
05/03/2014  10:42:00       15.508       -0.397       23.233       28.341       36.508       25.236      803.197     1332.807      636.850        0.178        0.139       15.513       24.908        2.578      343.593       19.814      858.957
05/03/2014  10:43:00      -35.802      -75.638       12.181       34.253       67.161       39.159     1173.291     4510.650     1533.395        0.718        0.361       83.683       44.602        0.284      343.524       19.696      858.954
05/03/2014  10:44:00       40.767      -42.965       21.149       61.175       35.817       31.204     3742.397     1282.830      973.673        0.498        0.300       59.228       24.748        0.175      343.390       19.468      858.963
05/03/2014  10:45:00       44.669      -53.645       15.797       50.617       53.866       35.137     2562.054     2901.598     1234.629        0.591        0.335       69.808       32.198        0.213      343.562       19.761      858.979
05/03/2014  10:46:00       11.454      -34.436       16.132       45.377       48.528       27.699     2059.093     2354.957      767.209        0.338        0.259       36.291       20.442        0.317      343.537       19.717      858.977
05/03/2014  10:47:00      -60.931      -84.182      -19.936       72.727       64.938       52.399     5289.280     4216.959     2745.627        1.172        0.613      103.919       44.688        0.185      343.691       19.980      858.968
05/03/2014  10:48:00        4.143     -125.771       31.558       90.614      130.003       62.006     8210.937    16900.813     3844.777        2.289        1.448      125.840       62.287        0.245      343.682       19.965      858.953
05/03/2014  10:49:00        4.498     -113.406       -4.298       87.842       73.327       51.531     7716.281     5376.898     2655.460        1.432        0.787      113.495       47.742        0.177      343.479       19.618      858.944
05/03/2014  10:50:00      -64.624     -202.307      -10.160       40.477       46.513       33.105     1638.405     2163.450     1095.952        2.505        0.245      212.378       19.103        0.008      343.502       19.655      858.930
05/03/2014  10:51:00      -38.470      -95.001       13.272       36.911       74.823       26.774     1362.417     5598.539      716.845        0.918        0.384      102.494       22.023        0.046      343.738       20.062      858.920
05/03/2014  10:52:00      -56.281      -81.846       12.942       42.526       69.351       32.306     1808.465     4809.550     1043.708        0.885        0.383       99.330       37.502        0.143      343.682       19.965      858.945
05/03/2014  10:53:00      -28.786      -41.812        9.449       59.904       56.272       43.360     3588.521     3166.561     1880.090        0.565        0.432       50.763       33.185        0.427      343.668       19.942      858.957
05/03/2014  10:54:00        4.370      -61.057       -9.719       28.464       42.771       25.654      810.224     1829.395      658.130        0.357        0.165       61.213       24.409        0.159      343.792       20.154      858.963
05/03/2014  10:55:00      -22.900      -33.040       -3.556       42.341       39.857       26.816     1792.746     1588.543      719.114        0.286        0.205       40.200       26.179        0.424      344.056       20.603      858.961
05/03/2014  10:56:00      -26.824     -128.996       -1.646       54.619       41.984       36.150     2983.200     1762.640     1306.836        1.171        0.303      131.756       18.127        0.019      343.906       20.348      858.960
05/03/2014  10:57:00        9.771      -53.954       19.809       30.498       44.821       39.648      930.148     2008.964     1571.969        0.395        0.226       54.832       29.442        0.288      344.003       20.514      858.933
05/03/2014  10:58:00      -17.497       10.264       22.579       29.384       36.642       20.942      863.449     1342.632      438.575        0.178        0.132       20.286       10.520        0.269      343.922       20.376      858.935
05/03/2014  10:59:00       27.583      -37.731       -0.110       30.043       31.314       27.498      902.577      980.545      756.114        0.241        0.132       46.738       26.282        0.316      343.707       20.008      858.936
05/03/2014  11:00:00      -16.478      -29.223        6.135       38.540       36.748       29.783     1485.370     1350.411      887.008        0.244        0.186       33.549       20.234        0.364      343.585       19.801      858.922
05/03/2014  11:01:00       67.107      -76.756       15.130       66.287       89.906       48.185     4394.014     8083.081     2321.842        1.271        0.740      101.955       52.051        0.261      343.797       20.160      858.924
05/03/2014  11:02:00       20.840       18.870       46.845       52.118       54.321       39.978     2716.249     2950.761     1598.264        0.512        0.363       28.114       33.637        1.432      343.389       19.466      858.892
05/03/2014  11:03:00       33.011      -71.635        5.880       48.008       50.226       42.592     2304.806     2522.676     1814.107        0.645        0.332       78.876       36.397        0.213      343.709       20.011      858.887
05/03/2014  11:04:00      -23.514      -29.852       12.334       41.052       37.073       29.205     1685.307     1374.397      852.911        0.275        0.196       38.000       24.388        0.412      343.974       20.464      858.897
05/03/2014  11:05:00        7.857      -33.848       11.670       42.553       37.743       36.481     1810.727     1424.550     1330.841        0.295        0.228       34.748       27.305        0.617      343.939       20.405      858.909
05/03/2014  11:06:00       16.356      -54.626       30.240       71.300       85.308       38.982     5083.644     7277.464     1519.619        0.902        0.694       57.022       33.369        0.342      344.039       20.574      858.903
05/03/2014  11:07:00       24.336      -33.278       47.132       81.064       89.634       50.565     6571.350     8034.174     2556.846        1.054        0.858       41.227       63.015        2.336      343.925       20.380      858.892
05/03/2014  11:08:00      104.196     -125.628      -18.962       59.588       78.319       40.809     3550.722     6133.857     1665.341        1.917        0.567      163.216       41.251        0.064      343.869       20.283      858.875
05/03/2014  11:09:00      -23.829      -34.244       28.171       46.065       45.425       38.323     2121.973     2063.400     1468.670        0.409        0.283       41.719       12.366        0.088      344.082       20.648      858.871
05/03/2014  11:10:00      -48.775      -13.977       17.999       40.422       36.091       21.598     1633.948     1302.568      466.491        0.315        0.170       50.739       17.179        0.115      343.856       20.263      858.885
05/03/2014  11:11:00      -51.914      -14.152       14.503       49.258       42.650       29.545     2426.362     1818.987      872.899        0.411        0.256       53.808       27.765        0.266      344.210       20.867      858.886
05/03/2014  11:12:00       19.254       66.270       28.524       37.264       65.698       32.428     1388.593     4316.195     1051.557        0.616        0.338       69.011       32.793        0.226      344.042       20.580      858.862
05/03/2014  11:13:00       14.538       64.028       -0.107       54.271       82.534       38.115     2945.395     6811.829     1452.784        0.776        0.561       65.657       40.154        0.374      344.071       20.629      858.835
05/03/2014  11:14:00       -6.332      -31.544       11.376       26.798       24.040       21.231      718.107      577.916      450.751        0.146        0.087       32.173        9.407        0.085      344.067       20.622      858.835
05/03/2014  11:15:00        8.123      -13.120       17.730       28.833       40.378       21.733      831.328     1630.407      472.311        0.174        0.147       15.431       24.021        2.423      344.263       20.958      858.820
05/03/2014  11:16:00       71.273     -139.348      -26.498       56.783       59.989       30.575     3224.261     3598.725      934.807        1.648        0.388      156.517       33.157        0.045      343.966       20.448      858.818
05/03/2014  11:17:00      -72.505      -23.133        9.758       76.249       47.948       28.462     5813.959     2298.994      810.088        0.740        0.446       76.105       33.641        0.195      344.259       20.950      858.829
05/03/2014  11:18:00      -54.734      -61.890        0.791       70.003       50.020       30.666     4900.406     2501.987      940.382        0.758        0.417       82.620       28.247        0.117      344.060       20.610      858.823
05/03/2014  11:19:00      111.151     -114.893      -16.533       82.486      104.429       64.144     6803.888    10905.354     4114.510        2.382        1.091      159.859       65.974        0.170      344.083       20.648      858.822
05/03/2014  11:20:00        8.980      -91.571        9.821       66.451       94.017       57.556     4415.731     8839.287     3312.638        1.256        0.828       92.010       44.145        0.230      344.235       20.909      858.810
05/03/2014  11:21:00       -3.806     -113.083      -15.347       49.141       80.403       50.054     2414.881     6464.597     2505.420        1.221        0.569      113.148       44.170        0.152      343.974       20.464      858.796
05/03/2014  11:22:00      -23.522      -50.128      -10.157       57.332       45.377       36.287     3286.902     2059.092     1316.752        0.491        0.333       55.372       27.891        0.254      344.375       21.150      858.816
05/03/2014  11:23:00     -197.375      -99.161      -14.555       75.403       57.824       36.112     5685.605     3343.599     1304.047        2.967        0.517      220.884       36.801        0.028      344.021       20.542      858.804
05/03/2014  11:24:00      -88.748       -0.199       -0.932       41.918       96.990       32.693     1757.085     9407.071     1068.808        1.005        0.612       88.748       29.334        0.109      344.138       20.745      858.781
05/03/2014  11:25:00     -122.075       88.666      -13.250       55.377       60.729       34.949     3066.583     3688.037     1221.443        1.546        0.399      150.877       25.527        0.029      344.086       20.654      858.750
05/03/2014  11:26:00      -71.771       40.777      -17.340       52.097       33.910       26.151     2714.056     1149.882      683.895        0.583        0.227       82.546       19.896        0.058      344.016       20.536      858.722
05/03/2014  11:27:00      -61.598       34.016      -16.240       32.408       33.686       21.270     1050.265     1134.779      452.427        0.393        0.132       70.366       20.547        0.085      344.102       20.684      858.711
05/03/2014  11:28:00      -42.416      -45.114      -10.918       19.607       18.945       16.305      384.422      358.916      265.855        0.248        0.050       61.922       10.689        0.030      343.988       20.487      858.698
05/03/2014  11:29:00      -68.595      -28.630       -1.894       35.432       35.115       17.412     1255.454     1233.075      303.173        0.416        0.140       74.330       16.129        0.047      344.169       20.798      858.698
05/03/2014  11:30:00     -101.530      -86.932        0.404       43.916       35.472       27.237     1928.598     1258.254      741.874        1.090        0.196      133.662       16.051        0.014      343.995       20.500      858.687
05/03/2014  11:31:00      -23.261       -0.609       11.853       20.882       13.627       19.452      436.051      185.704      378.378        0.084        0.050       23.269       15.971        0.471      344.422       21.230      858.678
05/03/2014  11:32:00      -13.178        5.467       15.117       15.984        9.233       13.415      255.492       85.248      179.962        0.048        0.026       14.267        9.656        0.458      344.541       21.433      858.661
05/03/2014  11:33:00       17.485       -8.809        6.207       16.699       22.099       22.450      278.866      488.386      504.010        0.085        0.064       19.579        9.023        0.212      344.408       21.206      858.652
05/03/2014  11:34:00       40.857      -29.664       35.599       36.813       35.029       26.654     1355.166     1227.024      710.420        0.355        0.165       50.490       28.991        0.330      344.183       20.820      858.622
05/03/2014  11:35:00       28.679      -19.018       17.834       47.186       37.639       26.638     2226.545     1416.707      709.600        0.293        0.218       34.412       29.469        0.733      344.087       20.659      858.608
05/03/2014  11:36:00       27.871      -26.023       15.777       40.272       35.416       24.516     1621.857     1254.300      601.032        0.259        0.174       38.131       21.116        0.307      344.084       20.652      858.609
05/03/2014  11:37:00      -16.225      -35.402        9.700       30.401       45.404       26.652      924.201     2061.558      710.334        0.265        0.185       38.943       29.899        0.589      344.467       21.308      858.595
05/03/2014  11:38:00       13.748       10.627        5.618       29.002       26.302       31.645      841.096      691.785     1001.402        0.143        0.127       17.377       21.988        1.601      344.110       20.698      858.587
05/03/2014  11:39:00      -32.715      -44.404        6.603       52.988       47.460       36.346     2807.779     2252.483     1321.023        0.473        0.319       55.155       34.620        0.394      344.400       21.192      858.571
05/03/2014  11:40:00      -77.047     -165.746        0.695       70.871       78.531       45.289     5022.681     6167.139     2051.095        2.332        0.662      182.779       27.500        0.023      344.233       20.904      858.593
05/03/2014  11:41:00      -72.208     -213.356      -16.212      107.756       91.084       49.273    11611.367     8296.256     2427.824        3.666        1.117      225.244       43.604        0.037      344.143       20.751      858.605
05/03/2014  11:42:00      -62.096     -101.488        0.306       78.044       58.504       51.266     6090.941     3422.668     2628.234        1.315        0.607      118.977       35.538        0.089      344.301       21.023      858.596
05/03/2014  11:43:00      -56.536       26.351        3.837       53.380       80.823       38.844     2849.388     6532.296     1508.879        0.740        0.545       62.375       25.169        0.163      344.293       21.009      858.583
05/03/2014  11:44:00      -77.341       13.461       -1.701       23.605       23.665       19.494      557.207      560.053      380.022        0.383        0.075       78.504       14.001        0.032      344.061       20.612      858.549
05/03/2014  11:45:00      -72.220        9.374       -4.899       25.238       26.208       14.061      636.943      686.872      197.717        0.342        0.076       72.826        9.956        0.019      344.051       20.597      858.541
05/03/2014  11:46:00     -150.972      -42.163       -8.565       86.481       56.254       42.820     7479.036     3164.456     1833.514        1.856        0.624      156.749       32.043        0.042      344.207       20.862      858.542
05/03/2014  11:47:00     -222.805     -100.565        5.884      109.290       65.698       42.328    11944.333     4316.162     1791.675        3.892        0.903      244.449       38.541        0.025      344.220       20.881      858.534
05/03/2014  11:48:00      -33.947     -126.146        0.526       26.852       33.927       15.947      721.053     1151.045      254.296        0.960        0.106      130.633       14.610        0.013      344.002       20.512      858.533
05/03/2014  11:49:00        1.666        1.726       28.981       12.382       29.733       13.454      153.317      884.075      181.017        0.103        0.061        2.399       14.473       36.397      344.494       21.352      858.514
05/03/2014  11:50:00      -35.549       58.774       -7.542       23.551       34.825       19.672      554.630     1212.799      386.984        0.346        0.108       68.689       12.178        0.031      344.227       20.897      858.494
05/03/2014  11:51:00      -47.320        3.178      -16.376       21.555       39.620       23.042      464.624     1569.759      530.943        0.254        0.128       47.427       24.616        0.269      344.141       20.750      858.489
05/03/2014  11:52:00       -1.064      -42.353       11.514       42.317       18.390       17.682     1790.707      338.194      312.658        0.218        0.122       42.366        6.958        0.027      344.116       20.707      858.476
05/03/2014  11:53:00       73.505      -39.381       25.272       35.899       30.631       27.247     1288.711      938.240      742.418        0.528        0.148       83.389       20.228        0.059      343.944       20.413      858.449
05/03/2014  11:54:00       61.172      -20.699       34.589       44.285       33.769       32.151     1961.169     1140.334     1033.676        0.475        0.207       64.579       30.737        0.227      344.008       20.522      858.431
05/03/2014  11:55:00      -30.164       24.354       38.536       33.186       28.968       31.211     1101.314      839.166      974.109        0.295        0.146       38.768       23.908        0.380      344.217       20.880      858.419
05/03/2014  11:56:00      -33.069        3.395       12.410       34.889       28.298       24.481     1217.209      800.766      599.307        0.194        0.131       33.243       20.404        0.377      344.697       21.701      858.405
05/03/2014  11:57:00      -58.228      -26.657       11.360       54.518       37.713       24.900     2972.208     1422.254      620.022        0.462        0.251       64.040       19.632        0.094      344.895       22.038      858.384
05/03/2014  11:58:00      -43.149      -30.881       15.861       46.248       44.452       29.648     2138.849     1975.943      878.996        0.403        0.250       53.061       21.072        0.158      344.783       21.847      858.360
05/03/2014  11:59:00      -10.756      -62.653       -9.459       19.752       29.491       14.879      390.136      869.708      221.371        0.281        0.074       63.569       11.658        0.034      344.434       21.250      858.326
05/03/2014  12:00:00       -6.207      -70.837       11.656       22.984       77.983       23.077      528.256     6081.316      532.550        0.617        0.357       71.109       21.588        0.092      344.698       21.702      858.324
05/03/2014  12:01:00        8.091     -145.089        8.187       25.518       29.071       25.172      651.149      845.112      633.635        1.166        0.106      145.314       10.324        0.005      344.448       21.273      858.346
05/03/2014  12:02:00      -50.890     -144.308        4.282       57.432       73.501       22.698     3298.433     5402.389      515.180        1.632        0.461      153.018       23.646        0.024      344.592       21.520      858.347
05/03/2014  12:03:00     -284.537     -161.139        2.528      133.502      180.446       87.563    17822.814    32560.896     7667.200        8.248        2.903      326.997       70.636        0.047      344.717       21.731      858.284
05/03/2014  12:04:00     -308.003      -21.762      -19.631      172.120      135.218       65.946    29625.345    18284.020     4348.882        7.398        2.613      308.771       77.353        0.063      344.957       22.142      858.167
05/03/2014  12:05:00     -195.087       34.241       -2.511      199.959      161.244       82.735    39983.574    25999.771     6845.155        5.602        3.641      198.069      112.684        0.324      345.203       22.562      858.188
05/03/2014  12:06:00      -27.969     -128.533       -6.480      125.965       88.411       46.558    15867.267     7816.435     2167.692        2.159        1.293      131.540       38.514        0.086      345.313       22.751      858.132
05/03/2014  12:07:00      -64.498     -234.506      -13.921      130.012      116.191       60.906    16903.171    13500.304     3709.528        4.672        1.706      243.214       44.028        0.033      345.316       22.756      858.203
05/03/2014  12:08:00     -154.342     -157.314      -18.046      158.781      113.174       69.358    25211.369    12808.259     4810.504        4.585        2.142      220.384       75.868        0.119      344.854       21.964      858.237
05/03/2014  12:09:00      -40.073     -139.161      -13.243       97.034       82.196       43.801     9415.615     6756.145     1918.519        1.961        0.905      144.815       24.002        0.027      344.932       22.101      858.207
05/03/2014  12:10:00      -24.550      -60.120       44.176       40.503      130.990       58.626     1640.494    17158.388     3437.025        1.420        1.112       64.939       73.888        1.295      345.212       22.580      858.231
05/03/2014  12:11:00      -14.535     -100.654       11.272       95.072       81.123       45.694     9038.688     6580.977     2087.972        1.408        0.885      101.698       48.342        0.226      345.082       22.358      858.244
05/03/2014  12:12:00     -147.482     -210.718        5.809      157.396      179.320       75.486    24773.481    32155.709     5698.098        6.439        3.131      257.202       64.612        0.063      345.044       22.290      858.188
05/03/2014  12:13:00      -49.387      -83.982       22.594      194.771      148.514       71.615    37935.885    22056.426     5128.706        3.755        3.256       97.427       77.523        0.633      345.196       22.551      858.161
05/03/2014  12:14:00     -403.125       41.870       -0.804      280.020      201.342      115.815    78411.159    40538.617    13413.163       14.829        6.618      405.293      148.081        0.133      345.182       22.526      858.112
05/03/2014  12:15:00     -559.961     -165.736      -13.025      295.001      218.842      115.719    87025.546    47891.612    13390.804       24.472        7.415      583.973      133.011        0.052      345.079       22.350      858.054
05/03/2014  12:16:00     -284.098     -176.217       10.824      186.093      162.602       89.649    34630.536    26439.412     8036.970        9.048        3.455      334.311       92.920        0.077      345.181       22.524      858.031
05/03/2014  12:17:00     -266.882     -174.496       10.817      198.982      115.060       81.380    39593.832    13238.797     6622.716        8.061        2.973      318.864      106.693        0.112      345.314       22.754      857.994
05/03/2014  12:18:00     -480.159     -231.998      -26.749      212.320      197.110       98.690    45079.598    38852.393     9739.739       18.936        4.684      533.269       99.094        0.035      345.003       22.218      857.992
05/03/2014  12:19:00     -474.499     -286.045       -4.424      229.299      203.975       94.939    52577.969    41605.975     9013.436       20.507        5.160      554.050      107.742        0.038      344.960       22.147      858.006
05/03/2014  12:20:00     -143.477     -103.043       21.568      160.061      102.433       66.783    25619.498    10492.571     4459.915        3.611        2.029      176.646       71.358        0.163      345.325       22.772      858.020
05/03/2014  12:21:00     -134.111     -257.321        6.513       87.157      105.559       73.146     7596.309    11142.664     5350.304        5.416        1.204      290.172       48.892        0.028      345.145       22.463      858.083
05/03/2014  12:22:00      -92.841      -89.364        7.766       96.492      175.113       53.239     9310.738    30664.426     2834.410        2.973        2.140      128.862       59.887        0.216      345.174       22.515      858.046
05/03/2014  12:23:00     -182.545      -58.705        2.619      119.546      119.534       60.733    14291.335    14288.438     3688.486        3.452        1.613      191.753       55.559        0.084      345.260       22.661      857.961
05/03/2014  12:24:00     -210.495     -255.037      -27.874      142.680      108.728       61.161    20357.641    11821.875     3740.644        7.302        1.796      330.684       74.617        0.051      345.142       22.456      857.956
05/03/2014  12:25:00      -90.029     -369.709       -3.149      168.359      191.609       87.633    28344.650    36713.843     7679.611       10.875        3.637      380.513       50.774        0.018      345.065       22.327      857.995
05/03/2014  12:26:00     -220.095     -196.742       -9.915      241.662      154.145       90.332    58400.638    23760.561     8159.875        8.877        4.516      295.210       80.068        0.074      345.192       22.542      857.946
05/03/2014  12:27:00     -311.696     -227.656       26.394      259.951      186.162      107.701    67574.748    34656.220    11599.515       13.173        5.692      385.981      128.673        0.111      345.146       22.465      857.940
05/03/2014  12:28:00     -347.725     -136.579       -1.503      189.238      182.935       85.010    35810.879    33465.174     7226.649       10.802        3.825      373.586       73.794        0.039      345.068       22.332      857.913
05/03/2014  12:29:00     -536.134      -99.513      -40.127      285.361      215.985      109.937    81430.894    46649.496    12086.100       21.953        7.008      545.291      121.311        0.049      344.952       22.132      857.891
05/03/2014  12:30:00     -275.326     -133.012       14.301      224.957      187.224       82.633    50605.727    35052.947     6828.282        9.308        4.624      305.772       90.765        0.088      345.247       22.637      857.864
05/03/2014  12:31:00     -306.430     -230.401       -7.513      180.752      139.521       74.575    32671.430    19466.170     5561.453       10.236        2.885      383.385       85.262        0.049      345.160       22.489      857.850
05/03/2014  12:32:00     -408.503     -158.616       -6.858      239.875      217.509      109.587    57540.058    47310.194    12009.324       15.445        5.843      438.217      118.345        0.073      345.134       22.444      857.838
05/03/2014  12:33:00     -460.237     -242.935      -22.833      230.624      198.195       90.618    53187.269    39281.144     8211.533       18.600        5.034      520.418      117.514        0.051      345.196       22.551      857.789
05/03/2014  12:34:00     -368.422     -207.958      -13.165      258.279      240.138      101.709    66708.011    57666.025    10344.815       15.691        6.736      423.062      124.242        0.086      345.208       22.571      857.794
05/03/2014  12:35:00     -292.605      -18.907       17.586      277.409      185.592      104.067    76955.531    34444.286    10829.913       10.423        6.111      293.215      128.848        0.193      345.268       22.673      857.754
05/03/2014  12:36:00     -436.804     -232.895      -13.397      199.902      179.359      114.000    39960.925    32169.627    12996.064       16.516        4.256      495.013      105.262        0.045      345.310       22.745      857.777
05/03/2014  12:37:00     -529.488     -187.364        3.456      269.729      209.540       88.611    72753.480    43907.203     7851.843       21.997        6.226      561.661      114.787        0.042      345.108       22.400      857.790
05/03/2014  12:38:00     -419.775     -228.040       -9.112      234.232      162.076       84.115    54864.673    26268.714     7075.394       15.823        4.410      477.717      101.730        0.045      345.093       22.374      857.803
05/03/2014  12:39:00     -377.944     -258.355       -8.511      201.069      179.188      100.679    40428.728    32108.478    10136.324       14.615        4.134      457.809      115.273        0.063      345.141       22.457      857.808
05/03/2014  12:40:00     -498.785     -180.724       -0.395      225.953      159.788       87.214    51054.861    25532.201     7606.245       18.280        4.210      530.516       92.698        0.031      345.285       22.703      857.763
05/03/2014  12:41:00     -299.155     -161.878        0.225      199.704      152.956       79.242    39881.737    23395.433     6279.273        9.261        3.478      340.144       89.013        0.068      345.366       22.842      857.719
05/03/2014  12:42:00     -340.951     -206.462        1.720      256.135      207.376       98.242    65605.144    43004.680     9651.515       13.855        5.913      398.590      110.191        0.076      345.426       22.944      857.604
05/03/2014  12:43:00     -640.472     -437.468      -14.868      321.564      255.274      135.530   103403.236    65165.070    18368.485       39.433        9.347      775.617      165.547        0.046      345.089       22.367      857.664
05/03/2014  12:44:00     -666.683     -410.126      -33.550      293.965      291.014      110.382    86415.665    84688.979    12184.111       39.851        9.164      782.732      121.480        0.024      344.981       22.183      857.668
05/03/2014  12:45:00     -324.653     -128.122       13.504      227.080      176.478       98.250    51565.356    31144.441     9653.007       10.716        4.618      349.019      105.019        0.091      345.345       22.805      857.724
05/03/2014  12:46:00     -242.256     -108.402       -6.874      159.146      151.185       77.435    25327.464    22856.867     5996.196        6.232        2.709      265.403       82.133        0.096      345.359       22.829      857.787
05/03/2014  12:47:00     -304.471      -37.120       -6.058      163.014      142.873       70.863    26573.571    20412.648     5021.566        7.305        2.600      306.726       69.625        0.052      345.364       22.838      857.771
05/03/2014  12:48:00     -243.951      -64.944       13.283      180.690      164.501       82.462    32648.920    27060.510     6800.029        6.519        3.325      252.448       84.526        0.112      345.474       23.028      857.726
05/03/2014  12:49:00     -393.716     -159.844       -1.209      300.430      172.238      102.216    90258.466    29665.900    10448.138       15.544        6.519      424.927      111.406        0.069      345.303       22.734      857.689
05/03/2014  12:50:00     -423.912     -288.353       -0.266      272.638      233.863      144.369    74331.572    54691.787    20842.465       20.633        7.493      512.688      160.563        0.098      345.213       22.578      857.620
05/03/2014  12:51:00     -296.473     -169.570      -10.229      231.361      143.764       71.512    53527.753    20668.154     5113.993        9.802        3.965      341.541       95.818        0.079      345.260       22.659      857.626
05/03/2014  12:52:00     -294.679      -83.312        9.945      182.040      120.379       79.307    33138.638    14491.014     6289.530        7.389        2.696      306.230       72.680        0.056      345.645       23.321      857.628
05/03/2014  12:53:00     -214.034      -74.494       16.771      209.903      192.009       94.630    44059.178    36867.555     8954.798        7.074        4.494      226.627       91.812        0.164      345.576       23.202      857.626
05/03/2014  12:54:00     -374.597      -32.745      -13.012      206.417      165.854       87.538    42607.811    27507.580     7662.825       10.966        3.889      376.026       95.966        0.065      345.424       22.941      857.557
05/03/2014  12:55:00     -302.306     -125.175        0.589      286.873      133.777       97.372    82295.851    17896.419     9481.369       10.834        5.484      327.197      127.183        0.151      345.571       23.194      857.562
05/03/2014  12:56:00     -206.148     -187.435       -0.389      177.523      168.343       79.654    31514.461    28339.352     6344.754        7.190        3.310      278.620       86.067        0.095      345.602       23.246      857.568
05/03/2014  12:57:00     -197.014     -274.654        6.216      200.985      184.387       73.356    40395.026    33998.460     5381.065        9.702        3.989      338.008       73.216        0.047      345.359       22.830      857.556
05/03/2014  12:58:00     -240.111     -183.931      -10.458      145.808      135.219       69.793    21260.086    18284.157     4871.113        6.800        2.221      302.463       64.450        0.045      345.578       23.204      857.526
05/03/2014  12:59:00     -407.829     -280.902      -21.117      229.113      153.459       93.888    52492.664    23549.660     8814.920       16.525        4.243      495.208       84.082        0.029      345.560       23.174      857.544
05/03/2014  13:00:00     -312.983     -216.888       -4.480      239.612      179.011       87.228    57413.898    32044.972     7608.789       12.102        4.853      380.787       99.074        0.068      345.254       22.648      857.532
05/03/2014  13:01:00     -347.921     -158.303        0.439      234.311      141.385       95.776    54901.754    19989.645     9172.974       11.507        4.203      382.241       93.260        0.060      345.577       23.203      857.523
05/03/2014  13:02:00     -672.508     -252.283      -21.531      433.514      230.756      109.864   187934.198    53248.386    12070.036       38.476       12.663      718.271      153.698        0.046      345.262       22.663      857.462
05/03/2014  13:03:00     -362.028     -230.662       11.955      294.877      229.380      114.033    86952.698    52614.960    13003.490       16.846        7.629      429.266      128.341        0.089      345.462       23.005      857.378
05/03/2014  13:04:00     -295.650     -105.064       -7.338      264.110      133.513       86.487    69754.339    17825.629     7480.076        9.676        4.753      313.763      100.127        0.102      345.707       23.428      857.444
05/03/2014  13:05:00     -325.966     -153.919        7.071      269.183      166.384       94.040    72459.536    27683.715     8843.597       11.947        5.449      360.479      102.444        0.081      345.732       23.469      857.493
05/03/2014  13:06:00     -305.717     -242.437      -18.686      175.346      201.816      105.171    30746.235    40729.734    11061.030       11.755        4.127      390.177       99.191        0.065      345.396       22.893      857.502
05/03/2014  13:07:00     -227.085     -141.300        8.545      206.036      160.860       93.165    42450.810    25876.044     8679.660        7.429        3.850      267.457      101.678        0.145      345.413       22.924      857.490
05/03/2014  13:08:00     -358.335     -239.425       -0.762      265.296      182.912      114.347    70381.799    33456.741    13075.195       15.130        5.846      430.962      144.474        0.112      345.283       22.699      857.483
05/03/2014  13:09:00     -361.701     -112.642      -27.124      176.598      110.013       86.124    31186.710    12102.906     7417.369        9.747        2.535      378.835       86.648        0.052      345.272       22.679      857.444
05/03/2014  13:10:00     -233.961      -60.723       23.970      186.971      156.219       84.230    34958.158    24404.504     7094.690        6.272        3.323      241.713       79.096        0.107      345.729       23.463      857.467
05/03/2014  13:11:00     -279.496     -223.032        5.018      207.250      146.862       95.782    42952.646    21568.374     9174.276       10.078        3.685      357.577      110.338        0.095      345.734       23.472      857.492
05/03/2014  13:12:00     -359.195     -237.377      -22.142      168.737      144.776       97.341    28472.136    20960.184     9475.191       12.237        2.945      430.545       83.647        0.038      345.706       23.425      857.562
05/03/2014  13:13:00     -272.276     -193.161       -9.252      187.983      134.026       81.225    35337.654    17963.068     6597.497        8.570        2.995      333.834       95.408        0.082      345.503       23.076      857.545
05/03/2014  13:14:00     -220.450     -285.311       -5.121      139.728      153.994       73.318    19523.916    23714.038     5375.523        8.931        2.431      360.556       85.578        0.056      345.645       23.322      857.543
05/03/2014  13:15:00     -202.334     -187.272        5.722      181.030      197.373       71.824    32771.716    38956.148     5158.636        7.645        3.844      275.699       74.967        0.074      345.666       23.356      857.548
05/03/2014  13:16:00     -190.144     -195.846        7.670      130.758      151.110       75.377    17097.663    22834.156     5681.728        6.008        2.281      272.966       58.215        0.045      345.630       23.294      857.529
05/03/2014  13:17:00     -359.980     -194.740      -10.070      237.259      198.430       95.533    56291.990    39374.658     9126.513       13.618        5.240      409.279      107.334        0.069      345.535       23.134      857.520
05/03/2014  13:18:00     -361.887      -14.260       -9.786      222.764      139.912       98.757    49623.786    19575.297     9752.981       10.509        3.948      362.168      101.660        0.079      345.596       23.236      857.496
05/03/2014  13:19:00     -244.891      -93.907       -4.351      141.244       90.936       63.177    19949.908     8269.312     3991.361        5.050        1.611      262.278       75.983        0.084      345.873       23.714      857.532
05/03/2014  13:20:00     -452.579     -338.267      -20.555      249.961      206.031      103.245    62480.641    42448.781    10659.514       21.761        5.779      565.024       79.094        0.020      345.561       23.175      857.511
05/03/2014  13:21:00     -388.563     -224.377       -8.863      244.896      256.341      101.335    59974.281    65710.507    10268.749       16.865        6.798      448.694      112.105        0.062      345.377       22.861      857.488
05/03/2014  13:22:00     -359.932     -281.281       -5.105      233.133      144.495       80.467    54350.925    20878.752     6475.004       14.518        4.085      456.805       81.054        0.031      345.496       23.063      857.452
05/03/2014  13:23:00     -500.586     -235.375      -22.461      207.083      169.191      103.618    42883.492    28625.574    10736.729       19.435        4.112      553.162       87.538        0.025      345.377       22.861      857.410
05/03/2014  13:24:00     -540.826     -112.402      -34.849      249.025      184.164       89.767    62013.580    33916.325     8058.032       20.514        5.199      552.382       89.925        0.027      345.504       23.079      857.364
05/03/2014  13:25:00     -548.641     -117.340      -25.371      269.582      179.592      112.994    72674.465    32253.300    12767.713       21.653        5.885      561.048      117.593        0.044      345.386       22.874      857.383
05/03/2014  13:26:00     -428.278     -106.250       -2.478      299.033      251.849      108.343    89420.711    63427.948    11738.203       17.962        8.229      441.261      130.298        0.087      345.337       22.793      857.350
05/03/2014  13:27:00     -616.116     -130.522      -34.004      342.701      253.093      123.886   117444.092    64056.014    15347.779       29.728        9.842      629.790      142.035        0.051      345.167       22.500      857.257
05/03/2014  13:28:00     -668.428     -176.119      -27.134      259.391      222.849      101.622    67283.643    49661.594    10326.986       30.289        6.364      691.241      110.736        0.026      345.317       22.757      857.191
05/03/2014  13:29:00     -567.456     -287.582      -41.328      283.018      195.925      107.748    80099.242    38386.468    11609.624       26.823        6.505      636.168      119.266        0.035      345.429       22.950      857.236
05/03/2014  13:30:00     -410.015      -90.721      -15.388      210.545      155.713       85.131    44329.088    24246.458     7247.237       12.619        3.791      419.932      101.727        0.059      345.726       23.460      857.238
05/03/2014  13:31:00     -242.612      -90.387       22.383      164.473      151.579       87.082    27051.420    22976.061     7583.207        6.256        2.881      258.902       76.913        0.088      345.744       23.491      857.251
05/03/2014  13:32:00     -438.178     -188.241      -12.163      202.347      151.455       92.435    40944.141    22938.618     8544.143       14.999        3.621      476.901       95.728        0.040      345.417       22.929      857.233
05/03/2014  13:33:00     -348.984     -139.777       -3.859      181.111      148.494       94.630    32801.239    22050.495     8954.827       10.256        3.190      375.935       87.708        0.054      345.702       23.419      857.237
05/03/2014  13:34:00     -272.379     -155.857        5.752      206.393      141.567       79.976    42597.917    20041.207     6396.100        8.376        3.452      313.818       88.611        0.080      345.661       23.349      857.220
05/03/2014  13:35:00     -545.798     -268.170       -6.744      275.582      262.865      118.817    75945.527    69098.000    14117.569       26.448        7.958      608.120      144.039        0.056      345.403       22.904      857.178
05/03/2014  13:36:00     -380.835     -152.632        6.214      291.176      201.020      103.529    84783.205    40408.907    10718.357       15.211        6.796      410.283      107.125        0.068      345.510       23.089      857.169
05/03/2014  13:37:00     -411.957     -269.082       -0.971      230.861      225.515      108.854    53296.835    50856.959    11849.294       17.904        5.800      492.050      127.874        0.068      345.450       22.985      857.189
05/03/2014  13:38:00     -502.668     -215.270      -22.518      329.448      239.927      124.344   108535.734    57564.768    15461.532       24.051        9.078      546.824      133.758        0.060      345.316       22.756      857.131
05/03/2014  13:39:00     -277.538     -237.649        8.424      248.417      212.029      120.875    61710.937    44956.308    14610.664       12.740        6.064      365.383      134.232        0.135      345.445       22.977      857.132
05/03/2014  13:40:00     -431.468     -165.341      -15.365      242.716      209.794      109.875    58911.158    44013.502    12072.450       16.435        5.750      462.063      121.691        0.069      345.590       23.226      857.158
05/03/2014  13:41:00     -379.561      -95.916       -1.401      187.898      147.547       82.391    35305.793    21770.252     6788.197       10.855        3.193      391.493       79.859        0.042      345.573       23.196      857.137
05/03/2014  13:42:00     -507.046     -276.228      -27.847      205.846      188.831      118.398    42372.706    35657.273    14018.140       21.309        4.602      577.405      115.666        0.040      345.593       23.229      857.098
05/03/2014  13:43:00     -582.927     -132.537      -18.490      205.974      192.954       99.285    42425.479    37231.235     9857.554       22.360        4.476      597.804      104.975        0.031      345.547       23.151      857.109
05/03/2014  13:44:00     -311.728      -76.621       -2.470      222.211      171.652      107.247    49377.704    29464.293    11502.002        9.668        4.517      321.007      119.657        0.139      345.783       23.557      857.157
05/03/2014  13:45:00     -213.181     -126.869        1.345      177.511      150.739       87.649    31510.077    22722.382     7682.363        6.172        3.096      248.076       92.845        0.140      345.700       23.415      857.142
05/03/2014  13:46:00     -183.120      -85.155      -10.184      149.760      126.517       58.376    22428.111    16006.480     3407.791        4.136        2.092      201.951       40.130        0.039      345.913       23.782      857.100
05/03/2014  13:47:00     -408.884     -214.157      -11.521      232.448      209.201      112.932    54032.164    43765.116    12753.677       16.184        5.528      461.572      119.392        0.067      345.838       23.652      857.107
05/03/2014  13:48:00     -569.166     -238.299       -7.571      289.645      264.493      113.843    83894.300    69956.349    12960.175       27.377        8.341      617.038      132.501        0.046      345.342       22.800      857.115
05/03/2014  13:49:00     -427.465     -161.876        2.590      201.054      219.041      105.534    40422.888    47978.760    11137.530       15.422        4.977      457.089      107.135        0.055      345.398       22.895      857.147
05/03/2014  13:50:00     -506.266      -88.166      -24.822      275.245      212.629      108.001    75759.844    45211.163    11664.210       19.864        6.632      513.885      129.008        0.063      345.495       23.063      857.103
05/03/2014  13:51:00     -428.920     -265.976      -12.599      270.835      224.429      115.663    73351.401    50368.467    13377.969       19.596        6.855      504.694      111.773        0.049      345.344       22.805      857.112
05/03/2014  13:52:00     -376.236     -260.547       21.696      284.572      217.035      105.186    80981.366    47104.292    11064.191       17.450        6.957      457.644      129.900        0.081      345.455       22.994      857.096
05/03/2014  13:53:00     -259.771      -99.243        6.888      228.987      173.719       79.740    52435.230    30178.451     6358.410        8.316        4.449      278.083       81.968        0.087      345.802       23.591      857.134
05/03/2014  13:54:00     -382.219     -240.963      -21.474      255.559      205.091      125.957    65310.472    42062.361    15865.069       16.390        6.162      451.835      135.778        0.090      345.366       22.843      857.101
05/03/2014  13:55:00     -551.768     -249.727       -8.606      410.105      274.909      126.791   168186.291    75574.893    16075.971       31.331       12.992      605.649      165.765        0.075      345.447       22.981      857.034
05/03/2014  13:56:00     -469.975     -215.672       -8.349      389.378      290.433      149.173   151615.170    84351.615    22252.592       26.279       12.911      517.098      170.803        0.109      345.302       22.732      857.025
05/03/2014  13:57:00     -523.494     -213.859      -16.161      328.006      299.613      114.163   107587.650    89767.688    13033.285       26.517       10.519      565.493      149.990        0.070      345.294       22.717      857.075
05/03/2014  13:58:00     -618.004     -169.911      -40.250      289.935      186.224      107.728    84062.196    34679.301    11605.299       27.136        6.517      640.936      109.041        0.029      345.321       22.764      857.055
05/03/2014  13:59:00     -624.343      -46.930      -33.794      275.541      233.435      104.968    75922.701    54491.771    11018.200       26.726        7.072      626.104      114.804        0.034      345.334       22.786      857.060
05/03/2014  14:00:00     -508.961     -239.663      -17.583      371.248      247.594      117.865   137825.222    61302.933    13892.157       26.486       10.651      562.565      142.739        0.064      345.255       22.653      857.074
05/03/2014  14:01:00     -590.336     -131.731       -1.836      448.568      257.631      124.091   201213.600    66373.822    15398.499       32.436       14.149      604.855      183.313        0.092      345.456       22.996      857.045
05/03/2014  14:02:00     -564.325     -124.725      -29.487      296.454      191.344      124.146    87884.788    36612.383    15412.325       23.737        6.995      577.943      132.362        0.052      345.215       22.582      857.121
05/03/2014  14:03:00     -426.218      -91.098      -19.119      250.104      163.006       90.070    62551.856    26570.838     8112.633       14.376        4.862      435.845       97.971        0.051      345.363       22.837      857.096
05/03/2014  14:04:00     -658.979     -266.110      -18.770      299.929      236.525      114.356    89957.631    55944.175    13077.368       33.217        7.949      710.681      128.291        0.033      345.349       22.812      857.078
05/03/2014  14:05:00     -367.458     -140.376      -10.163      214.484      176.509       89.550    46003.504    31155.280     8019.241       11.999        4.259      393.358       81.265        0.043      345.697       23.410      857.123
05/03/2014  14:06:00     -686.644     -260.526      -32.157      276.018      226.760      127.940    76185.674    51419.892    16368.679       34.215        7.199      734.407      138.921        0.036      345.322       22.768      857.157
05/03/2014  14:07:00     -624.018     -331.825      -11.126      305.104      237.778      125.977    93088.660    56538.160    15870.283       33.253        8.275      706.757      125.915        0.032      345.204       22.564      857.094
05/03/2014  14:08:00     -608.552     -205.534      -34.981      311.290      221.103      125.957    96901.293    48886.579    15865.210       28.770        8.083      642.324      128.431        0.040      345.304       22.735      857.020
05/03/2014  14:09:00     -370.852      -34.180       11.060      297.805      211.451      111.462    88687.889    44711.317    12423.805       14.229        7.291      372.424      129.275        0.120      345.521       23.109      857.151
05/03/2014  14:10:00     -359.975     -220.550       -2.173      234.832      153.068      106.272    55146.165    23429.768    11293.824       13.403        4.493      422.166      110.987        0.069      345.355       22.823      857.138
05/03/2014  14:11:00     -280.525     -146.419       -7.408      217.072      150.396       70.430    47120.165    22618.835     4960.343        8.743        3.735      316.437       86.982        0.076      345.520       23.105      857.125
05/03/2014  14:12:00     -410.668     -138.579        2.072      281.602      186.618       99.874    79299.591    34826.463     9974.717       15.595        6.205      433.419      124.408        0.082      345.651       23.331      857.110
05/03/2014  14:13:00     -454.381       28.826      -49.795      175.413      194.213       82.732    30769.687    37718.816     6844.519       14.254        3.767      455.294       83.186        0.033      345.442       22.972      857.095
05/03/2014  14:14:00     -403.247     -137.714       -1.638      349.257      215.544       97.021   121980.219    46459.029     9413.121       17.968        8.893      426.115      145.825        0.117      345.538       23.138      857.060
05/03/2014  14:15:00     -609.606      -54.347      -31.363      333.201      243.598      115.060   111022.681    59339.886    13238.730       27.954        9.180      612.023      132.637        0.047      345.463       23.008      857.081
05/03/2014  14:16:00     -522.868     -234.512      -27.856      326.307      209.122      122.095   106475.939    43731.894    14907.149       24.711        8.256      573.050      161.225        0.079      345.131       22.439      857.098
05/03/2014  14:17:00     -505.429     -170.902       10.180      341.331      222.056      126.471   116506.926    49308.676    15994.816       23.325        9.091      533.541      135.921        0.065      345.220       22.590      856.984
05/03/2014  14:18:00     -619.491     -229.303      -28.327      268.771      212.707       92.933    72237.729    45244.108     8636.451       28.161        6.306      660.568      104.077        0.025      345.235       22.617      857.074
05/03/2014  14:19:00     -553.703     -314.044      -28.723      211.026      224.029      115.444    44531.844    50189.131    13327.219       25.702        5.402      636.562      108.207        0.029      345.124       22.427      857.063
05/03/2014  14:20:00     -231.833     -193.837        9.294      209.414      172.602      103.527    43854.137    29791.577    10717.912        8.787        4.218      302.191      112.543        0.139      345.551       23.157      857.028
05/03/2014  14:21:00     -529.488      -94.337      -24.817      235.518      209.102      104.859    55468.550    43723.605    10995.415       20.001        5.509      537.826      115.238        0.046      345.466       23.013      857.071
05/03/2014  14:22:00     -248.614     -101.198        4.041      246.274      174.148       95.721    60651.095    30327.379     9162.545        8.608        5.007      268.422      112.260        0.175      345.550       23.159      857.000
05/03/2014  14:23:00     -523.672     -294.925       -7.831      284.331      216.715      124.144    80843.997    46965.529    15411.671       25.222        7.161      601.011      149.355        0.062      345.523       23.112      857.002
05/03/2014  14:24:00     -569.943     -298.193       -3.706      281.728      240.753      114.683    79370.388    57962.014    13152.162       28.210        7.524      643.238      148.891        0.054      345.180       22.523      857.060
05/03/2014  14:25:00     -442.078     -192.330      -10.260      244.164      175.189      103.037    59616.166    30691.303    10616.574       16.671        5.046      482.104      118.776        0.061      345.395       22.892      857.034
05/03/2014  14:26:00     -416.778     -151.706       -6.149      269.049      238.030      101.028    72387.276    56658.461    10206.682       16.798        6.963      443.530      118.059        0.071      345.549       23.155      857.065
05/03/2014  14:27:00     -583.453     -291.109      -33.614      273.833      241.279      109.546    74984.687    58215.315    12000.243       28.572        7.260      652.044      124.673        0.037      345.174       22.511      857.037
05/03/2014  14:28:00     -462.717     -213.642       -2.993      368.949      207.310      120.107   136123.729    42977.458    14425.776       22.660        9.676      509.656      140.898        0.076      345.297       22.724      856.987
05/03/2014  14:29:00     -568.242     -210.463       -1.561      318.105      233.875      128.575   101190.615    54697.416    16531.554       26.977        8.621      605.966      144.583        0.057      345.245       22.634      857.031
05/03/2014  14:30:00     -789.857     -222.301       -9.547      350.797      278.521      132.870   123058.850    77573.830    17654.463       44.579       10.914      820.544      146.326        0.032      345.038       22.281      856.939
05/03/2014  14:31:00     -507.103     -157.111       -5.793      300.329      265.060      103.188    90197.806    70256.964    10647.694       22.645        8.555      530.883      110.009        0.043      345.262       22.663      856.985
05/03/2014  14:32:00     -471.441     -272.733       -4.462      367.303      246.231      132.287   134911.173    60629.519    17499.804       25.481       10.652      544.646      170.626        0.098      345.373       22.854      856.998
05/03/2014  14:33:00     -611.156     -415.166      -21.270      353.306      232.749      138.121   124825.147    54172.124    19077.453       37.216        9.904      738.833      158.261        0.046      345.083       22.355      856.990
05/03/2014  14:34:00     -242.633     -234.698       46.189      346.870      291.307      133.585   120318.568    84859.539    17845.029       16.951       11.151      337.571      158.422        0.220      345.267       22.673      856.940
05/03/2014  14:35:00     -526.100     -177.979      -17.553      283.051      290.150      111.376    80117.748    84186.792    12404.560       24.270        8.835      555.389      122.920        0.049      345.263       22.666      856.997
05/03/2014  14:36:00     -390.239     -281.798       -7.905      228.711      194.660       97.100    52308.554    37892.397     9428.327       16.567        4.981      481.349       98.886        0.042      345.299       22.727      857.025
05/03/2014  14:37:00     -198.114      -67.400       24.370      202.280      106.464       83.075    40917.074    11334.589     6901.409        5.176        2.958      209.265       84.061        0.161      345.681       23.383      857.005
05/03/2014  14:38:00     -323.274     -154.505       -5.073      300.991      201.031       97.594    90595.693    40413.437     9524.588       13.444        7.027      358.298       95.274        0.071      345.522       23.108      856.920
05/03/2014  14:39:00     -416.479     -167.930       27.421      321.530      247.424      141.184   103381.455    61218.599    19932.971       19.343        9.227      449.061      159.678        0.126      345.300       22.728      856.954
05/03/2014  14:40:00     -361.045      -62.477       16.407      286.637      221.982      122.862    82160.573    49276.108    15095.109       14.050        7.327      366.411      122.780        0.112      345.343       22.801      857.026
05/03/2014  14:41:00     -699.668     -403.264      -30.673      287.322      252.203      133.436    82554.085    63606.597    17805.047       40.850        8.198      807.562      123.579        0.023      344.994       22.204      856.937
05/03/2014  14:42:00     -496.066     -283.831      -12.232      263.515      199.635      109.025    69440.414    39854.258    11886.378       22.396        6.059      571.526      119.322        0.044      345.267       22.671      856.961
05/03/2014  14:43:00     -567.927     -244.106      -20.624      322.339      244.202      121.078   103902.307    59634.679    14659.851       28.034        8.910      618.166      137.655        0.050      345.340       22.794      856.922
05/03/2014  14:44:00     -557.334     -310.833      -14.834      304.265      220.101      117.470    92576.895    48444.577    13799.177       28.111        7.741      638.152      145.476        0.052      345.456       22.994      856.943
05/03/2014  14:45:00     -729.356     -346.442      -31.585      353.512      270.876      138.655   124970.509    73373.903    19225.175       43.523       10.878      807.454      160.084        0.039      345.052       22.302      856.931
05/03/2014  14:46:00     -635.155     -401.157      -33.996      319.046      232.737      133.748   101790.516    54166.288    17888.445       36.964        8.692      751.232      143.588        0.037      345.131       22.439      856.980
05/03/2014  14:47:00     -714.556     -132.493      -26.370      276.095      252.743      125.488    76228.226    63878.953    15747.207       34.232        7.793      726.735      131.296        0.033      344.931       22.095      857.027
05/03/2014  14:48:00     -451.426     -223.120      -10.948      308.223      266.514      124.835    95001.178    71029.965    15583.778       21.762        9.081      503.555      153.952        0.093      345.047       22.295      856.976
05/03/2014  14:49:00     -589.769     -165.460      -38.460      215.167      199.988       98.336    46297.021    39995.160     9670.030       23.630        4.798      612.540       96.804        0.025      345.058       22.314      856.866
05/03/2014  14:50:00     -534.649     -102.989       -8.595      244.268      238.466      114.301    59666.680    56866.254    13064.663       21.304        6.480      544.478      121.354        0.050      345.356       22.824      856.857
05/03/2014  14:51:00     -528.764     -262.922      -11.529      286.426      227.809      118.314    82039.832    51896.907    13998.215       24.836        7.397      590.525      128.055        0.047      345.365       22.840      856.908
05/03/2014  14:52:00     -442.998       -4.130       -1.648      321.144      197.963      116.278   103133.503    39189.354    13520.519       17.602        7.792      443.017      152.140        0.118      345.344       22.805      856.885
05/03/2014  14:53:00     -194.591      -50.227       23.331      166.327      147.875       84.224    27664.739    21866.971     7093.651        4.877        2.831      200.969       96.353        0.230      345.602       23.247      856.882
05/03/2014  14:54:00     -460.481     -251.409      -12.825      365.029      224.983      112.401   133246.027    50617.389    12634.051       23.592        9.825      524.641      130.504        0.062      345.407       22.912      856.876
05/03/2014  14:55:00     -586.091     -231.509      -29.701      255.322      246.547      110.332    65189.266    60785.179    12173.077       26.804        6.907      630.158      116.053        0.034      345.333       22.784      856.835
05/03/2014  14:56:00     -746.158     -545.061      -29.905      311.081      267.601      160.851    96771.284    71610.436    25873.112       52.446        9.713      924.036      149.511        0.026      345.177       22.518      856.825
05/03/2014  14:57:00     -502.071     -308.171       14.704      326.406      267.019      156.837   106540.983    71299.212    24597.816       27.481       10.122      589.105      183.512        0.097      345.099       22.383      856.861
05/03/2014  14:58:00     -485.894     -241.434      -30.425      272.394      182.492      117.191    74198.431    33303.430    13733.787       20.825        6.062      542.571      122.713        0.051      345.181       22.525      856.865
05/03/2014  14:59:00     -425.279     -242.743       -4.715      233.542      204.250      104.461    54542.016    41718.035    10912.203       17.347        5.359      489.680      108.277        0.049      345.132       22.440      856.855
05/03/2014  15:00:00     -464.361     -263.041        0.290      284.511      194.514      110.157    80946.487    37835.883    12134.635       20.784        6.546      533.687      126.880        0.057      345.138       22.451      856.789
05/03/2014  15:01:00     -446.617     -332.609        5.576      411.934      286.127      125.409   169689.763    81868.660    15727.297       28.865       13.364      556.862      169.813        0.093      345.302       22.732      856.796
05/03/2014  15:02:00     -736.402     -353.380      -14.736      366.315      315.034      171.703   134186.830    99246.406    29481.797       46.510       13.146      816.802      191.318        0.055      345.167       22.501      856.686
05/03/2014  15:03:00     -774.970     -439.077      -46.824      355.729      277.071      144.790   126542.951    76768.083    20964.046       50.987       11.214      890.712      167.704        0.035      344.876       22.003      856.774
05/03/2014  15:04:00     -691.044     -409.270      -16.571      327.617      262.804      123.832   107332.846    69066.014    15334.325       41.849        9.587      803.147      133.348        0.028      344.925       22.087      856.737
05/03/2014  15:05:00     -661.611     -361.076      -22.068      507.628      327.925      174.627   257685.815   107534.579    30494.719       48.207       19.786      753.727      231.909        0.095      344.967       22.158      856.708
05/03/2014  15:06:00     -797.459     -433.481      -42.250      317.648      304.642      142.546   100900.441    92806.594    20319.297       51.979       10.701      907.660      121.984        0.018      344.965       22.153      856.669
05/03/2014  15:07:00     -509.755     -152.395        1.915      278.158      256.465      138.856    77371.664    65774.367    19281.064       22.272        8.121      532.047      143.598        0.073      345.172       22.508      856.767
05/03/2014  15:08:00     -508.682     -191.703      -19.137      248.020      255.687      109.815    61513.980    65375.839    12059.316       21.738        6.947      543.606       95.705        0.031      345.072       22.338      856.761
05/03/2014  15:09:00     -547.444     -284.626      -15.292      289.512      277.218      135.242    83816.991    76849.863    18290.412       27.991        8.948      617.015      146.168        0.056      344.875       22.000      856.726
05/03/2014  15:10:00     -622.858     -244.620        0.883      300.337      254.751      139.140    90202.611    64898.259    19359.823       31.109        8.723      669.172      164.280        0.060      344.887       22.021      856.634
05/03/2014  15:11:00     -720.957     -356.657      -27.023      312.091      288.460      137.092    97400.545    83209.158    18794.102       42.352        9.970      804.353      152.181        0.036      344.903       22.049      856.663
05/03/2014  15:12:00     -405.742     -275.951        8.051      380.388      285.825      150.254   144694.828    81695.822    22576.310       24.485       12.448      490.689      186.728        0.145      344.998       22.212      856.638
05/03/2014  15:13:00     -671.872     -177.242      -36.746      226.473      295.433      119.450    51289.842    87280.879    14268.242       31.848        7.642      694.858      110.528        0.025      345.016       22.241      856.668
05/03/2014  15:14:00     -546.725     -349.087       -3.889      321.177      250.309      122.184   103154.508    62654.421    14928.917       30.073        9.037      648.667      132.182        0.042      345.046       22.295      856.619
05/03/2014  15:15:00     -493.705     -288.079      -19.817      296.403      205.532      119.787    87854.884    42243.398    14348.983       23.576        7.222      571.607      129.898        0.052      345.043       22.289      856.610
05/03/2014  15:16:00     -479.739     -145.027       -4.531      337.592      198.487      102.789   113968.600    39396.963    10565.638       20.753        8.197      501.181      130.485        0.068      345.162       22.492      856.599
05/03/2014  15:17:00     -506.789     -216.782      -22.018      262.657      207.179      117.354    68988.443    42923.326    13772.028       21.497        6.284      551.208      120.863        0.048      345.128       22.434      856.563
05/03/2014  15:18:00     -524.010     -246.641       19.888      381.473      262.025      153.393   145521.793    68657.261    23529.440       28.671       11.885      579.153      184.649        0.102      345.152       22.476      856.510
05/03/2014  15:19:00     -526.170     -294.875        0.427      395.465      237.439      121.162   156392.261    56377.175    14680.321       29.558       11.372      603.163      146.122        0.059      345.072       22.339      856.536
05/03/2014  15:20:00     -632.372     -391.816      -12.446      420.782      233.753      146.096   177057.507    54640.566    21343.919       40.325       12.652      743.918      175.450        0.056      344.801       21.874      856.506
05/03/2014  15:21:00     -407.068     -252.799        4.612      287.896      193.532      120.868    82883.943    37454.687    14609.182       18.226        6.747      479.179      151.540        0.100      345.135       22.445      856.527
05/03/2014  15:22:00     -559.684     -316.937       -9.745      326.792      280.116      117.236   106793.040    78465.094    13744.246       30.636        9.950      643.192      149.006        0.054      345.140       22.453      856.574
05/03/2014  15:23:00     -561.614     -289.601      -11.405      242.508      176.071      109.029    58810.221    31000.840    11887.319       25.053        5.085      631.885      127.393        0.041      345.189       22.539      856.587
05/03/2014  15:24:00     -446.386     -234.764      -35.377      197.018      219.522      105.114    38816.094    48189.803    11049.022       17.682        4.903      504.355       60.646        0.014      345.172       22.508      856.600
05/03/2014  15:25:00     -552.809     -386.079        3.637      306.646      219.706      129.469    94031.822    48270.841    16762.286       30.683        7.953      674.281      140.153        0.043      345.012       22.236      856.534
05/03/2014  15:26:00     -468.859     -251.081      -21.622      246.894      212.124       97.960    60956.802    44996.543     9596.082       19.942        5.777      531.856      110.578        0.043      344.850       21.960      856.541
05/03/2014  15:27:00     -309.742     -165.816        9.292      209.724      199.476       96.367    43984.306    39790.519     9286.656       10.827        4.653      351.334       95.409        0.074      345.166       22.499      856.504
05/03/2014  15:28:00     -394.184     -258.043        0.049      325.793      277.252      117.179   106140.904    76868.829    13730.889       20.931        9.837      471.134      142.824        0.092      345.318       22.761      856.434
05/03/2014  15:29:00     -518.850     -278.542        5.003      302.692      265.675      127.214    91622.364    70583.255    16183.465       26.257        8.919      588.890      135.475        0.053      345.340       22.798      856.422
05/03/2014  15:30:00     -545.432     -218.747        4.975      402.142      205.965      120.986   161718.469    42421.437    14637.532       28.203       10.939      587.662      167.893        0.082      345.220       22.592      856.449
05/03/2014  15:31:00     -564.232     -281.197      -15.996      277.864      234.708      115.426    77208.600    55087.772    13323.223       27.162        7.281      630.420      126.340        0.040      345.178       22.521      856.469
05/03/2014  15:32:00     -374.801     -253.898       35.234      311.318      224.556      135.886    96918.948    50425.452    18464.931       18.596        8.290      452.703      155.596        0.118      345.153       22.476      856.497
05/03/2014  15:33:00     -490.612     -210.417      -17.014      282.174      217.362      113.680    79622.084    47246.342    12923.182       21.250        6.990      533.831      126.320        0.056      344.996       22.209      856.478
05/03/2014  15:34:00     -490.558     -315.934      -21.367      243.779      195.107      101.193    59428.298    38066.570    10239.958       22.431        5.387      583.491       88.900        0.023      345.023       22.253      856.487
05/03/2014  15:35:00     -385.234     -166.442        3.763      358.142      253.538      113.791   128265.623    64281.586    12948.311       19.077       10.275      419.652      169.790        0.164      345.170       22.507      856.434
05/03/2014  15:36:00     -697.507     -220.079      -21.145      273.479      303.049      136.021    74790.532    91838.407    18501.774       36.023        9.257      731.404      136.980        0.035      345.107       22.399      856.412
05/03/2014  15:37:00     -561.219     -290.110       -4.939      371.833      209.977      120.529   138259.671    44090.431    14527.152       29.798        9.844      631.768      135.752        0.046      345.130       22.437      856.438
05/03/2014  15:38:00     -337.364     -183.474       -7.073      207.412      143.211       74.730    43019.743    20509.520     5584.631       10.831        3.456      384.027       79.053        0.042      345.309       22.744      856.450
05/03/2014  15:39:00     -329.447     -181.857        7.717      286.492      175.456      108.489    82077.611    30784.808    11769.779       13.312        6.232      376.307      145.549        0.150      345.214       22.581      856.416
05/03/2014  15:40:00     -428.147     -157.443      -21.724      244.624      214.584       87.553    59840.906    46046.399     7665.492       16.104        5.678      456.178       90.973        0.040      345.163       22.495      856.340
05/03/2014  15:41:00     -573.188     -262.813      -20.522      282.738      260.191      114.599    79940.578    67699.495    13132.829       27.937        8.039      630.567      118.676        0.035      345.212       22.578      856.367
05/03/2014  15:42:00     -514.070     -317.420      -15.482      341.150      253.076      133.545   116383.547    64047.353    17834.270       28.172        9.913      604.172      158.419        0.069      345.098       22.383      856.351
05/03/2014  15:43:00     -642.681     -300.585      -20.171      288.309      283.206      123.603    83121.934    80205.537    15277.601       34.117        8.930      709.500      141.007        0.039      345.069       22.332      856.406
05/03/2014  15:44:00     -565.901     -245.190       -4.125      293.419      216.237      124.047    86094.830    46758.269    15387.641       26.428        7.412      616.735      131.989        0.046      345.088       22.365      856.439
05/03/2014  15:45:00     -402.123     -279.802       -0.479      258.605      266.168      136.336    66876.290    70845.642    18587.557       19.812        7.815      489.889      147.396        0.091      345.081       22.353      856.365
05/03/2014  15:46:00     -580.340     -377.812      -23.483      354.635      261.692      133.547   125766.316    68482.720    17834.889       34.604       10.604      692.485      156.286        0.051      344.881       22.011      856.366
05/03/2014  15:47:00     -456.829     -157.699       10.673      324.765      196.200      110.244   105472.032    38494.519    12153.666       19.487        7.806      483.282      146.290        0.092      345.136       22.448      856.362
05/03/2014  15:48:00     -457.734     -140.575      -20.636      252.261      239.166      101.795    63635.752    57200.585    10362.238       18.043        6.560      478.833      114.037        0.057      345.204       22.564      856.367
05/03/2014  15:49:00     -438.371     -318.192       22.459      302.948      242.160      128.515    91777.593    58641.371    16516.171       23.039        8.347      541.678      140.213        0.067      345.078       22.349      856.294
05/03/2014  15:50:00     -514.300     -337.105       -1.743      281.154      255.570      112.834    79047.455    65315.771    12731.460       26.759        7.855      614.934      128.419        0.044      345.272       22.681      856.321
05/03/2014  15:51:00     -519.030     -228.066       -5.499      212.606      191.778      117.923    45201.214    36778.793    13905.742       20.864        4.794      566.927      121.845        0.046      345.423       22.940      856.388
05/03/2014  15:52:00     -254.344     -210.196       18.590      244.127      139.086      102.270    59598.146    19345.046    10459.247        9.929        4.470      329.959      109.115        0.109      345.634       23.302      856.428
05/03/2014  15:53:00     -319.775     -284.186      -14.253      190.541      137.181       79.436    36306.037    18818.624     6310.079       12.232        3.072      427.805       75.208        0.031      345.552       23.160      856.395
05/03/2014  15:54:00     -436.270     -309.637      -12.952      304.228      229.608      105.621    92554.647    52719.920    11155.759       22.137        7.822      534.983      111.841        0.044      345.253       22.648      856.419
05/03/2014  15:55:00     -353.883     -233.687        1.268      192.908      195.383       84.318    37213.394    38174.684     7109.487       13.115        4.125      424.079       78.768        0.034      345.300       22.728      856.408
05/03/2014  15:56:00     -528.400     -261.956       -9.556      245.544      186.215       96.243    60291.670    34675.967     9262.679       22.605        5.212      589.769      110.868        0.035      345.076       22.344      856.423
05/03/2014  15:57:00     -366.755     -233.065        0.477      232.506      195.216      105.440    54058.907    38109.477    11117.566       14.604        5.164      434.544      117.992        0.074      345.099       22.384      856.386
05/03/2014  15:58:00     -624.111     -167.115      -13.113      354.340      247.143      140.449   125557.012    61079.466    19725.821       31.195       10.318      646.098      145.002        0.050      345.012       22.235      856.315
05/03/2014  15:59:00     -452.277     -174.445      -19.396      313.095      202.394      113.041    98028.556    40963.369    12778.198       19.354        7.589      484.753      132.896        0.075      345.158       22.485      856.356
05/03/2014  16:00:00     -605.435     -309.097       -6.080      322.280      243.070      140.497   103864.435    59082.968    19739.372       32.237        9.134      679.774      171.803        0.064      344.904       22.050      856.346
05/03/2014  16:01:00     -513.137     -308.806       -6.148      239.725      172.290      101.423    57468.309    29683.792    10286.565       22.805        4.872      598.891      115.124        0.037      344.852       21.961      856.342
05/03/2014  16:02:00     -335.200     -222.872       -2.074      217.627      186.118      100.496    47361.600    34639.836    10099.495       12.705        4.605      402.531      102.751        0.065      345.203       22.562      856.338
05/03/2014  16:03:00     -455.184     -108.290        7.638      302.112      233.289      133.951    91271.672    54423.542    17942.873       19.128        8.182      467.888      145.401        0.097      345.263       22.666      856.353
05/03/2014  16:04:00     -506.476     -323.806       -7.001      278.221      237.112      109.887    77406.813    56221.939    12075.144       25.353        7.285      601.139      116.808        0.038      344.854       21.964      856.398
05/03/2014  16:05:00     -405.162     -278.094      -12.432      245.002      175.916      122.354    60026.163    30946.397    14970.518       17.377        5.297      491.419      129.347        0.069      345.027       22.262      856.330
05/03/2014  16:06:00     -436.857     -283.044      -11.513      288.634      246.520      116.713    83309.721    60772.018    13621.808       21.437        7.885      520.536      141.613        0.074      345.173       22.512      856.381
05/03/2014  16:07:00     -615.762     -189.353      -36.376      231.004      256.030       97.893    53362.842    65551.221     9583.124       27.239        6.425      644.218      105.756        0.027      345.095       22.379      856.346
05/03/2014  16:08:00     -397.333     -166.167        4.064      272.146      222.208      129.521    74063.283    49376.519    16775.622       16.283        7.011      430.679      136.273        0.100      345.295       22.719      856.359
05/03/2014  16:09:00     -321.070     -216.932       21.828      304.880      164.756      108.009    92951.785    27144.430    11665.879       14.117        6.588      387.486      142.378        0.135      345.127       22.431      856.378
05/03/2014  16:10:00     -479.502     -210.914       -6.889      271.415      215.026      111.692    73665.954    46236.174    12475.197       20.339        6.619      523.838      128.210        0.060      345.176       22.516      856.412
05/03/2014  16:11:00     -384.702     -171.961       -9.901      280.609      194.328      110.563    78741.576    37763.453    12224.086       15.317        6.436      421.386      119.349        0.080      344.948       22.126      856.409
05/03/2014  16:12:00     -198.097      -70.031       12.139      221.761      141.719       95.215    49177.939    20084.385     9065.966        6.130        3.916      210.111      107.811        0.263      345.314       22.754      856.335
05/03/2014  16:13:00     -425.046     -140.865       -4.536      217.572      246.334      110.455    47337.386    60680.366    12200.412       16.035        6.011      447.780      121.153        0.073      345.190       22.539      856.403
05/03/2014  16:14:00     -464.659     -197.360       -0.437      333.659      243.282      130.779   111328.622    59186.229    17103.093       22.120        9.381      504.836      144.818        0.082      345.130       22.438      856.301
05/03/2014  16:15:00     -430.700      -69.006        2.051      258.585      204.250      107.995    66866.223    41717.873    11662.890       15.523        6.012      436.193      124.710        0.082      345.261       22.661      856.415
05/03/2014  16:16:00     -753.225     -136.153      -34.101      289.813      288.938      125.553    83991.818    83485.163    15763.585       38.511        9.162      765.431      134.086        0.031      344.866       21.985      856.423
05/03/2014  16:17:00     -391.312     -345.347       14.212      288.255      256.944      147.051    83091.117    66020.442    21624.002       22.163        8.537      521.909      177.160        0.115      344.959       22.145      856.417
05/03/2014  16:18:00     -412.147     -251.544      -28.655      259.971      188.611       99.613    67584.675    35573.978     9922.838       17.350        5.654      482.846       97.923        0.041      344.875       22.002      856.470
05/03/2014  16:19:00     -341.964     -161.234        7.798      229.851      205.860       96.087    52831.631    42378.313     9232.633       12.370        5.222      378.068      100.492        0.071      345.122       22.424      856.472
05/03/2014  16:20:00     -603.993     -315.490      -30.818      324.364      228.729      112.564   105211.962    52316.865    12670.574       31.771        8.510      681.426      134.744        0.039      344.965       22.155      856.502
05/03/2014  16:21:00     -300.450     -147.803        3.423      208.603      160.985       93.612    43515.272    25916.158     8763.293        9.515        3.910      334.837       90.354        0.073      345.084       22.357      856.481
05/03/2014  16:22:00     -576.844     -369.155      -29.149      371.811      290.454      114.786   138243.744    84363.384    13175.920       35.278       11.789      684.853      150.242        0.048      344.917       22.073      856.437
05/03/2014  16:23:00     -685.542     -114.474      -16.768      316.221      298.537      127.784    99995.904    89124.383    16328.668       34.436       10.272      695.034      139.785        0.040      344.882       22.011      856.356
05/03/2014  16:24:00     -570.216     -105.738      -32.813      293.191      217.949      107.464    85961.072    47501.637    11548.459       24.118        7.251      579.937      121.524        0.044      345.032       22.269      856.365
05/03/2014  16:25:00     -454.492     -250.350       -4.076      268.349      267.556      134.227    72011.204    71586.449    18017.013       21.540        8.081      518.882      149.297        0.083      344.933       22.100      856.403
05/03/2014  16:26:00     -458.832     -239.877        0.702      318.856      308.897      156.445   101669.244    95417.657    24475.187       24.477       11.078      517.752      179.303        0.120      344.836       21.935      856.384
05/03/2014  16:27:00     -518.800     -322.400       23.919      392.224      283.511      170.885   153839.850    80378.700    29201.731       31.849       13.171      610.815      192.025        0.099      344.813       21.895      856.342
05/03/2014  16:28:00     -440.311     -285.345        3.968      285.049      215.487      112.786    81252.853    46434.469    12720.641       20.783        7.020      524.686      133.227        0.064      344.898       22.040      856.413
05/03/2014  16:29:00     -348.896     -282.930       21.749      226.244      173.601      121.923    51186.386    30137.197    14865.274       14.920        4.809      449.197      129.251        0.083      344.929       22.092      856.372
05/03/2014  16:30:00     -519.636     -170.685      -14.691      273.462      223.009      131.054    74781.557    49733.135    17175.270       22.050        7.084      546.951      130.026        0.057      344.915       22.067      856.392
05/03/2014  16:31:00     -653.410     -186.888      -16.081      354.762      268.459      144.900   125856.086    72070.176    20995.959       34.048       10.946      679.611      163.919        0.058      344.773       21.827      856.356
05/03/2014  16:32:00     -453.229     -143.324       -9.347      352.287      234.706      121.693   124106.251    55086.797    14809.254       20.999        9.700      475.351      152.753        0.103      344.902       22.047      856.353
05/03/2014  16:33:00     -403.221     -112.032       -4.685      262.076      227.378      126.765    68684.002    51700.636    16069.491       15.578        6.823      418.495      126.925        0.092      345.052       22.307      856.348
05/03/2014  16:34:00     -362.132     -201.136      -10.815      249.184      247.985      113.700    62092.710    61496.804    12927.794       15.409        6.826      414.241      119.930        0.084      345.038       22.279      856.363
05/03/2014  16:35:00     -543.614     -205.855        3.421      290.096      257.663      133.630    84155.802    66390.164    17856.897       25.312        8.420      581.285      139.490        0.058      344.995       22.206      856.342
05/03/2014  16:36:00     -800.500      -82.859      -44.913      302.561      233.667      119.787    91542.861    54600.472    14348.954       40.506        8.025      804.777      119.373        0.022      344.687       21.678      856.353
05/03/2014  16:37:00     -473.327     -159.442       -7.183      275.623      223.547      120.709    75967.981    49973.241    14570.708       19.498        7.026      499.460      140.567        0.079      344.911       22.062      856.351
05/03/2014  16:38:00     -699.876     -166.556      -29.448      438.702      254.437      138.764   192459.199    64738.425    19255.373       39.739       13.823      719.422      188.824        0.069      344.698       21.698      856.297
05/03/2014  16:39:00     -416.355     -213.877       -6.878      270.323      254.270      127.437    73074.275    64653.412    16240.097       18.652        7.698      468.076      133.482        0.081      344.743       21.774      856.292
05/03/2014  16:40:00     -387.749     -285.912       -9.395      278.235      237.504      117.939    77414.873    56408.113    13909.535       18.993        7.387      481.763      110.066        0.052      344.809       21.888      856.317
05/03/2014  16:41:00     -545.420     -415.333      -18.869      357.710      271.422      139.710   127956.626    73669.657    19518.984       34.570       11.057      685.554      192.784        0.079      344.764       21.812      856.268
05/03/2014  16:42:00     -389.126     -174.664      -17.526      253.154      208.901      117.560    64087.188    43639.827    13820.341       15.187        6.077      426.528      113.752        0.071      344.954       22.135      856.310
05/03/2014  16:43:00     -463.248     -222.519       -6.990      289.814      200.090      116.403    83991.888    40035.821    13549.714       20.084        6.879      513.920      133.890        0.068      344.912       22.064      856.325
05/03/2014  16:44:00     -432.336     -149.561      -14.983      211.960      231.356       99.887    44927.175    53525.647     9977.502       15.895        5.422      457.474      100.775        0.049      344.927       22.091      856.341
05/03/2014  16:45:00     -293.365      -97.446       25.248      256.464      179.701      135.209    65773.533    32292.459    18281.372       10.625        5.817      309.126      138.711        0.201      344.916       22.071      856.324
05/03/2014  16:46:00     -672.605     -169.041      -34.927      319.826      271.083      145.968   102288.497    73486.092    21306.708       33.960        9.854      693.522      143.738        0.043      344.698       21.699      856.279
05/03/2014  16:47:00     -656.905     -207.855      -43.934      375.708      295.055      134.345   141156.202    87057.229    18048.704       36.141       12.313      689.005      162.408        0.056      344.674       21.656      856.315
05/03/2014  16:48:00     -621.990     -241.649       -6.756      349.550      351.644      137.591   122185.298   123653.523    18931.169       35.499       13.238      667.283      167.010        0.063      344.695       21.693      856.315
05/03/2014  16:49:00     -607.909     -347.177        3.237      376.453      310.032      144.579   141716.879    96119.886    20902.981       37.437       12.937      700.061      171.124        0.060      344.545       21.437      856.355
05/03/2014  16:50:00     -555.893     -280.176      -12.393      276.616      196.872      112.898    76516.578    38758.446    12745.899       25.782        6.401      622.507      118.459        0.036      344.637       21.592      856.392
05/03/2014  16:51:00     -396.047     -249.913       -1.138      246.124      157.185       95.541    60576.974    24707.169     9128.047       15.684        4.721      468.305      123.137        0.069      344.834       21.931      856.387
05/03/2014  16:52:00     -362.483      -69.802        1.788      208.578      173.588       88.144    43504.862    30132.926     7769.288       10.882        4.070      369.143       88.950        0.058      344.934       22.101      856.410
05/03/2014  16:53:00     -447.028      -79.881      -31.009      217.586      180.528       85.209    47343.775    32590.189     7260.586       14.717        4.360      454.109       86.491        0.036      344.753       21.792      856.424
05/03/2014  16:54:00     -345.084     -319.249        3.067      271.142      205.337      110.383    73518.026    42163.114    12184.488       17.441        6.393      470.109      126.152        0.072      344.617       21.559      856.349
05/03/2014  16:55:00     -182.323     -103.105       23.994      191.252      110.241       80.182    36577.166    12153.130     6429.091        4.979        2.758      209.457       95.126        0.206      344.891       22.029      856.287
05/03/2014  16:56:00     -371.776     -246.198        3.310      337.335      258.904      136.054   113794.850    67031.144    18510.759       19.905        9.967      445.904      162.046        0.132      344.833       21.928      856.291
05/03/2014  16:57:00     -487.814     -229.216      -10.102      264.502      239.476      116.471    69961.247    57348.913    13565.501       21.571        7.044      538.983      132.338        0.060      344.698       21.698      856.246
05/03/2014  16:58:00     -571.166     -218.409       -8.444      376.627      235.707      127.910   141848.080    55557.977    16360.889       29.384       10.688      611.501      149.275        0.060      344.657       21.629      856.295
05/03/2014  16:59:00     -456.525     -209.450      -16.779      315.253      219.680      127.837    99384.417    48259.407    16342.328       20.824        8.199      502.279      139.947        0.078      344.709       21.717      856.268
05/03/2014  17:00:00     -490.005     -235.105      -27.804      302.969      154.794       93.870    91790.325    23961.321     8811.591       21.033        6.228      543.488       94.595        0.030      344.628       21.577      856.270
05/03/2014  17:01:00     -521.792     -217.128        5.774      303.591      248.018      125.351    92167.305    61512.991    15712.950       24.438        8.470      565.165      125.031        0.049      344.625       21.574      856.218
05/03/2014  17:02:00     -353.039     -155.132       15.550      277.370      215.143      111.694    76934.323    46286.352    12475.546       14.229        6.785      385.620      138.201        0.128      344.820       21.907      856.271
05/03/2014  17:03:00     -411.173     -275.777      -18.218      328.974      221.728      141.410   108224.116    49163.408    19996.678       21.138        8.869      495.092      161.315        0.106      344.765       21.812      856.269
05/03/2014  17:04:00     -466.727     -380.388        6.092      361.169      275.655      154.667   130442.888    75985.506    23921.935       29.641       11.518      602.105      188.228        0.098      344.636       21.591      856.268
05/03/2014  17:05:00     -583.163     -389.140      -13.373      345.219      271.293      162.953   119175.911    73600.046    26553.754       35.546       10.966      701.077      178.615        0.065      344.608       21.543      856.314
05/03/2014  17:06:00     -485.929     -402.157        2.410      296.701      247.284      143.973    88031.328    61149.171    20728.124       28.385        8.495      630.759      164.936        0.068      344.367       21.133      856.396
05/03/2014  17:07:00     -521.973     -237.425      -20.520      322.047      225.512      123.632   103714.011    50855.728    15284.818       24.952        8.493      573.434      156.683        0.075      344.468       21.304      856.397
05/03/2014  17:08:00     -592.701     -287.077      -31.584      287.345      203.203      121.234    82567.060    41291.364    14697.672       28.660        6.928      658.565      136.623        0.043      344.368       21.136      856.389
05/03/2014  17:09:00     -234.758     -147.597        4.234      192.288      189.916       89.985    36974.525    36068.170     8097.276        7.901        4.057      277.302       99.817        0.130      344.732       21.755      856.351
05/03/2014  17:10:00     -514.746     -187.958      -28.993      345.749      178.718      102.207   119542.440    31940.041    10446.314       23.150        8.096      547.989      145.642        0.071      344.759       21.802      856.382
05/03/2014  17:11:00     -371.990     -149.106       13.575      309.595      225.772      122.571    95848.896    50972.957    15023.669       16.129        8.092      400.761      154.529        0.149      344.660       21.633      856.368
05/03/2014  17:12:00     -442.335     -114.119       -2.883      191.003      148.376       91.112    36481.995    22015.358     8301.379       13.773        3.340      456.818       86.416        0.036      344.513       21.381      856.381
05/03/2014  17:13:00     -330.509     -150.180      -10.226      170.094       99.181       85.480    28932.054     9836.789     7306.808        8.898        2.304      363.029       80.592        0.049      344.667       21.644      856.383
05/03/2014  17:14:00     -613.192     -237.945      -21.372      257.716      231.440      134.229    66417.402    53564.242    18017.394       28.551        6.900      657.740      147.383        0.050      344.579       21.494      856.346
05/03/2014  17:15:00     -517.615     -386.749      -24.517      271.504      252.309      121.147    73714.424    63659.818    14676.506       28.505        7.603      646.143      120.885        0.035      344.521       21.396      856.405
05/03/2014  17:16:00     -352.576     -187.918      -20.097      219.847      150.944       96.275    48332.517    22784.009     9268.815       12.019        4.019      399.528       98.234        0.060      344.484       21.332      856.383
05/03/2014  17:17:00     -443.254     -109.328       -1.377      285.152      217.017      117.110    81311.865    47096.291    13714.763       17.525        7.106      456.538      123.362        0.073      344.581       21.497      856.349
05/03/2014  17:18:00     -527.713     -313.604      -19.805      239.374      206.127      126.313    57299.978    42488.518    15955.093       24.646        5.787      613.864      137.361        0.050      344.475       21.316      856.396
05/03/2014  17:19:00     -489.822     -245.174      -12.255      262.710      255.377      120.393    69016.798    65217.272    14494.564       22.443        7.436      547.755      148.757        0.074      344.444       21.264      856.396
05/03/2014  17:20:00     -477.006     -153.108        1.338      245.492      167.761      101.157    60266.527    28143.814    10232.751       17.479        4.932      500.975      132.623        0.070      344.509       21.374      856.399
05/03/2014  17:21:00     -336.019      -53.189       -0.779      225.392      191.681      101.086    50801.389    36741.629    10218.344       10.673        4.888      340.202      110.384        0.105      344.635       21.590      856.413
05/03/2014  17:22:00     -370.002     -107.121        5.390      249.053      185.723       98.099    62027.441    34493.163     9623.402       12.725        5.307      385.197      108.017        0.079      344.644       21.605      856.396
05/03/2014  17:23:00     -297.350     -140.412       20.063      264.364      244.706      130.276    69888.077    59880.987    16971.745       12.761        7.337      328.835      142.935        0.189      344.595       21.522      856.330
05/03/2014  17:24:00     -474.355     -401.993      -27.122      269.832      198.324      146.428    72809.341    39332.362    21441.181       26.044        6.679      621.780      157.336        0.064      344.382       21.158      856.312
05/03/2014  17:25:00     -443.498     -262.525      -29.001      240.335      216.761      111.236    57760.700    46985.536    12373.444       19.176        5.856      515.373      127.948        0.062      344.554       21.452      856.392
05/03/2014  17:26:00     -561.210     -270.504      -14.619      347.791      243.417      113.925   120958.560    59252.038    12978.960       29.073        9.659      623.000      142.628        0.052      344.456       21.284      856.437
05/03/2014  17:27:00     -467.003     -249.960        3.756      340.173      247.268      146.477   115717.876    61141.492    21455.657       23.941        9.916      529.691      169.877        0.103      344.379       21.153      856.413
05/03/2014  17:28:00     -433.018     -331.708      -12.505      230.286      192.881       99.304    53031.455    37203.157     9861.271       19.887        5.005      545.467      107.842        0.039      344.407       21.201      856.407
05/03/2014  17:29:00     -449.824     -233.103       11.601      334.493      209.344      121.724   111885.595    43824.906    14816.727       21.364        8.526      506.635      159.223        0.099      344.467       21.302      856.372
05/03/2014  17:30:00     -236.060     -217.806       13.067      208.341      176.488       88.731    43406.099    31147.914     7873.144        9.286        4.121      321.191      109.890        0.117      344.504       21.366      856.393
05/03/2014  17:31:00     -339.943     -215.026       12.663      218.080      214.211      100.560    47559.028    45886.457    10112.268       13.274        5.178      402.240      125.404        0.097      344.659       21.631      856.388
05/03/2014  17:32:00     -538.991     -285.255      -13.808      368.760      219.030      120.479   135984.207    47974.216    14515.209       28.523        9.924      609.821      136.367        0.050      344.599       21.530      856.419
05/03/2014  17:33:00     -414.045     -265.238      -17.972      294.485      197.462      113.139    86721.264    38991.281    12800.452       19.028        6.926      491.716      133.991        0.074      344.431       21.241      856.438
05/03/2014  17:34:00     -425.688     -246.370      -16.238      191.838      154.790       83.018    36801.935    23959.811     6892.050       15.490        3.383      491.841       79.206        0.026      344.503       21.364      856.487
05/03/2014  17:35:00     -406.401     -226.174       -5.427      206.135      134.286       86.403    42491.686    18032.610     7465.562       14.215        3.399      465.098       89.380        0.037      344.549       21.442      856.500
05/03/2014  17:36:00     -449.403     -259.648        5.899      294.118      209.816      100.460    86505.665    44022.830    10092.126       20.499        7.031      519.019      114.920        0.049      344.267       20.962      856.505
05/03/2014  17:37:00     -410.714     -245.095       -6.134      245.866      152.697       86.107    60450.152    23316.357     7414.459       15.997        4.559      478.286      100.409        0.044      344.303       21.023      856.504
05/03/2014  17:38:00     -528.250     -203.804      -12.482      268.863      211.307      103.272    72287.422    44650.498    10665.187       22.415        6.380      566.202      102.549        0.033      344.282       20.987      856.467
05/03/2014  17:39:00     -442.727     -280.603      -30.538      235.593      183.130      102.786    55503.930    33536.633    10564.965       18.762        4.980      524.161      103.300        0.039      344.352       21.107      856.459
05/03/2014  17:40:00     -258.225     -139.141       -1.794      178.700      150.343       77.384    31933.863    22602.888     5988.263        7.327        3.026      293.326       75.041        0.065      344.504       21.367      856.459
05/03/2014  17:41:00     -363.579     -155.366       23.920      240.013      163.426       94.097    57606.137    26708.189     8854.318       12.502        4.658      395.384      100.208        0.064      344.446       21.267      856.401
05/03/2014  17:42:00     -298.178     -132.584        2.093      218.745      149.269       86.053    47849.321    22281.092     7405.052        9.200        3.877      326.326       88.144        0.073      344.556       21.455      856.425
05/03/2014  17:43:00     -538.662     -156.504      -14.514      295.426      218.990      105.754    87276.248    47956.538    11183.825       23.061        7.321      560.937      121.955        0.047      344.387       21.167      856.412
05/03/2014  17:44:00     -505.195     -146.075       -5.802      254.030      195.369      115.440    64531.324    38169.042    13326.378       19.629        5.801      525.890      138.182        0.069      344.278       20.980      856.409
05/03/2014  17:45:00     -420.822     -148.502      -14.809      180.839      177.021       78.887    32702.838    31336.409     6223.197       13.480        3.513      446.255       82.641        0.034      344.115       20.702      856.416
05/03/2014  17:46:00     -458.295     -108.410       -2.410      269.893      172.986       88.152    72842.183    29924.054     7770.802       16.614        5.527      470.942      100.682        0.046      344.307       21.029      856.419
05/03/2014  17:47:00     -394.585      -62.754       19.308      286.443      174.273      118.876    82049.686    30370.906    14131.468       14.325        6.328      399.544      144.038        0.130      344.440       21.257      856.403
05/03/2014  17:48:00     -566.764     -176.516      -31.004      225.021      228.160      102.893    50634.447    52057.100    10586.933       23.329        5.664      593.615      105.739        0.032      344.284       20.989      856.381
05/03/2014  17:49:00     -452.556     -245.183      -14.682      282.238      201.951      114.487    79658.414    40784.242    13107.287       19.932        6.677      514.705      124.794        0.059      344.213       20.868      856.406
05/03/2014  17:50:00     -440.126     -230.767      -13.836      238.717      262.145      111.359    56985.878    68719.786    12400.897       19.260        6.905      496.955      123.176        0.061      344.230       20.901      856.375
05/03/2014  17:51:00     -530.772     -158.693      -26.775      306.632      193.577      129.926    94023.066    37472.080    16880.881       22.797        7.419      553.988      147.959        0.071      344.192       20.833      856.382
05/03/2014  17:52:00     -615.552     -296.934      -27.081      297.034      222.488      125.831    88229.484    49501.030    15833.327       31.065        7.678      683.428      132.694        0.038      344.133       20.731      856.325
05/03/2014  17:53:00     -447.137     -195.820      -18.040      305.858      250.086      116.849    93548.994    62543.109    13653.802       20.414        8.487      488.137      135.933        0.078      344.250       20.933      856.337
05/03/2014  17:54:00     -496.816     -296.362       -6.991      311.117      243.966      132.700    96793.784    59519.324    17609.183       25.428        8.696      578.495      156.985        0.074      344.169       20.795      856.333
05/03/2014  17:55:00     -435.310     -246.688       -9.193      225.761      196.955      106.798    50968.193    38791.382    11405.801       17.578        5.058      500.350      111.222        0.049      344.194       20.837      856.330
05/03/2014  17:56:00     -411.867     -340.893       -2.657      278.783      201.434      112.739    77720.190    40575.715    12710.059       20.840        6.550      534.643      132.221        0.061      344.303       21.023      856.506
05/03/2014  17:57:00     -226.991     -182.804      -10.903      133.237      120.851       67.692    17751.989    14604.979     4582.221        6.099        1.847      291.448       69.825        0.057      344.305       21.026      856.538
05/03/2014  17:58:00     -340.668     -245.826       -6.851      232.593      139.571       95.534    54099.354    19480.031     9126.707       12.960        4.135      420.101      102.288        0.059      344.184       20.818      856.464
05/03/2014  17:59:00     -433.287     -208.482       -9.516      249.913      196.037      101.587    62456.590    38430.556    10319.967       17.123        5.560      480.835      129.179        0.072      344.104       20.684      856.416
05/03/2014  18:00:00     -202.510     -178.963        7.632      136.999      119.881       65.640    18768.820    14371.422     4308.607        5.527        1.872      270.256       74.006        0.075      344.235       20.908      856.406
05/03/2014  18:01:00     -377.150     -201.803       -6.270      158.763      171.756       79.329    25205.674    29500.143     6293.134       12.199        3.050      427.746       68.923        0.026      344.236       20.907      856.390
05/03/2014  18:02:00     -423.403     -217.540        4.331      231.616      204.900       99.166    53646.183    41984.121     9833.980       16.602        5.273      476.019      116.902        0.060      344.270       20.966      856.433
05/03/2014  18:03:00     -323.834     -137.465       -5.311      142.616      100.766       69.224    20339.316    10153.771     4791.934        7.953        1.764      351.802       75.060        0.046      344.364       21.128      856.422
05/03/2014  18:04:00     -330.498     -149.616      -17.934      147.055      110.108       63.158    21625.097    12123.751     3988.897        8.483        1.887      362.787       63.422        0.031      344.340       21.086      856.398
05/03/2014  18:05:00     -258.400     -202.498       -0.932      178.377      148.324       75.245    31818.209    21999.935     5661.740        8.362        2.974      328.293       83.448        0.065      344.353       21.108      856.411
05/03/2014  18:06:00     -366.795     -204.695        8.009      219.366      144.922       96.911    48121.228    21002.295     9391.748       12.749        3.926      420.046      116.558        0.077      344.305       21.027      856.408
05/03/2014  18:07:00     -343.630     -177.939       -4.668      193.345      175.754       89.686    37382.423    30889.568     8043.555       11.303        3.816      386.968      101.923        0.069      344.261       20.952      856.410
05/03/2014  18:08:00     -444.736     -349.122       -3.242      247.593      193.541      121.934    61302.258    37457.966    14867.857       21.663        5.681      565.399      138.237        0.060      344.056       20.602      856.377
05/03/2014  18:09:00     -386.284     -236.575        2.055      274.424      185.438      116.575    75308.338    34387.326    13589.734       16.421        6.164      452.971      143.281        0.100      344.116       20.703      856.354
05/03/2014  18:10:00     -530.671     -326.311      -28.204      255.676      234.667      116.991    65370.111    55068.437    13686.901       26.148        6.706      622.969      128.064        0.042      343.919       20.368      856.308
05/03/2014  18:11:00     -484.641     -332.634       -2.878      259.394      203.274      113.959    67285.021    41320.287    12986.623       23.354        6.080      587.812      114.198        0.038      343.942       20.405      856.323
05/03/2014  18:12:00     -431.938     -254.065      -20.952      232.578      165.165      102.531    54092.474    27279.394    10512.556       17.170        4.594      501.119      101.506        0.041      344.022       20.544      856.334
05/03/2014  18:13:00     -439.572     -283.892       -0.563      263.392      198.652      129.867    69375.158    39462.624    16865.520       19.974        6.285      523.277      151.446        0.084      344.056       20.601      856.410
05/03/2014  18:14:00     -438.245     -226.284      -11.847      230.068      209.940       98.931    52931.163    44074.654     9787.301       17.508        5.340      493.217      109.279        0.049      344.079       20.642      856.398
05/03/2014  18:15:00     -489.456     -233.738      -11.158      297.793      154.707       94.624    88680.756    23934.410     8953.701       20.792        6.078      542.402      128.404        0.056      344.044       20.581      856.395
05/03/2014  18:16:00     -560.801     -275.725      -19.270      235.664      180.943       98.318    55537.667    32740.509     9666.498       24.440        4.897      624.918      102.644        0.027      343.954       20.427      856.370
05/03/2014  18:17:00     -334.029     -278.426       -2.130      241.710      170.529      101.954    58423.698    29080.102    10394.562       14.348        4.895      434.852      118.528        0.074      343.973       20.458      856.360
05/03/2014  18:18:00     -543.137     -233.741       -9.257      318.129      222.637      103.491   101206.120    49567.407    10710.369       25.557        8.074      591.297      147.527        0.062      343.993       20.494      856.299
05/03/2014  18:19:00     -428.723     -210.282      -19.652      241.261      207.877      106.493    58206.751    43212.962    11340.753       17.056        5.638      477.516      124.168        0.068      344.016       20.532      856.293
05/03/2014  18:20:00     -466.836     -183.087      -15.329      225.342      214.306      109.010    50779.119    45926.974    11883.116       18.012        5.429      501.454      115.047        0.053      344.019       20.540      856.290
05/03/2014  18:21:00     -561.466     -171.486      -12.485      347.660      274.544      136.869   120867.634    75374.490    18733.247       27.985       10.749      587.070      161.951        0.076      343.891       20.319      856.281
05/03/2014  18:22:00     -495.663     -344.730      -20.858      266.191      261.705      137.908    70857.895    68489.283    19018.727       26.163        7.918      603.756      150.275        0.062      343.820       20.196      856.311
05/03/2014  18:23:00     -504.171     -402.232      -22.782      233.077      238.878      119.275    54325.059    57062.661    14226.627       27.103        6.281      644.964      137.726        0.046      343.826       20.208      856.358
05/03/2014  18:24:00     -552.241     -283.277      -11.602      287.916      246.380      120.823    82895.825    60703.343    14598.131       27.174        7.910      620.658      141.204        0.052      343.772       20.115      856.419
05/03/2014  18:25:00     -374.023     -226.553       -4.229      222.236      188.306       90.796    49388.707    35459.195     8243.838       14.215        4.655      437.286      108.727        0.062      343.772       20.115      856.379
05/03/2014  18:26:00     -434.443     -220.887       -5.272      179.057      162.696       85.552    32061.464    26470.068     7319.229       15.169        3.293      487.372       87.939        0.033      343.787       20.141      856.336
05/03/2014  18:27:00     -346.529     -219.936      -20.725      187.657      167.763       85.619    35215.259    28144.404     7330.632       11.977        3.535      410.432       90.866        0.049      343.893       20.321      856.327
05/03/2014  18:28:00     -383.958     -177.868       -0.886      173.956      213.068       86.305    30260.776    45397.914     7448.530       13.107        4.155      423.156       87.102        0.042      343.935       20.394      856.362
05/03/2014  18:29:00     -397.507     -123.191        0.622      247.701      218.999      100.365    61355.597    47960.404    10073.071       14.626        5.969      416.159      100.996        0.059      343.926       20.379      856.337
05/03/2014  18:30:00     -518.011     -279.541      -28.091      323.805      198.039      112.609   104849.577    39219.594    12680.831       25.198        7.838      588.624      140.916        0.057      343.717       20.022      856.323
05/03/2014  18:31:00     -392.180     -199.031       14.116      259.264      199.886      107.856    67217.729    39954.234    11632.968       15.619        5.940      439.794      121.926        0.077      343.766       20.105      856.286
05/03/2014  18:32:00     -374.266     -220.776      -28.080      232.371      224.645       97.672    53996.484    50465.258     9539.883       15.178        5.700      434.531      125.648        0.084      343.834       20.222      856.293
05/03/2014  18:33:00     -520.660     -354.576      -14.496      242.481      185.127      118.261    58797.097    34272.050    13985.574       25.202        5.353      629.929      131.999        0.044      343.774       20.117      856.297
05/03/2014  18:34:00     -382.366     -147.309       -4.754      245.060      170.450       94.554    60054.572    29053.220     8940.509       13.297        4.902      409.760       98.196        0.057      343.844       20.240      856.298
05/03/2014  18:35:00     -290.350     -109.764        0.374      195.453      126.857       69.304    38201.803    16092.655     4803.057        7.771        2.955      310.405       90.820        0.086      343.889       20.316      856.282
05/03/2014  18:36:00     -427.687     -142.557      -24.136      250.276      149.222       85.354    62638.071    22267.354     7285.275       14.799        4.610      450.820       89.892        0.040      343.870       20.282      856.252
05/03/2014  18:37:00     -394.633     -263.837       -5.421      187.223      172.587       97.985    35052.336    29786.189     9600.978       14.989        3.722      474.706      100.321        0.045      343.889       20.315      856.213
05/03/2014  18:38:00     -462.647     -386.928      -17.308      239.083      153.680      104.871    57160.703    23617.611    10997.902       22.790        4.589      603.121      113.351        0.035      343.781       20.131      856.222
05/03/2014  18:39:00     -495.672     -201.027      -21.263      175.416      164.920       85.632    30770.659    27198.599     7332.900       17.592        3.265      534.886       81.855        0.023      343.808       20.177      856.185
05/03/2014  18:40:00     -304.769     -119.547       -8.410      160.808      135.668       65.651    25859.358    18405.880     4310.010        7.790        2.429      327.377       78.586        0.058      343.904       20.342      856.234
05/03/2014  18:41:00     -321.657     -245.595       11.595      248.684      193.118      111.443    61843.488    37294.753    12419.523       13.771        5.578      404.698      130.150        0.103      343.818       20.194      856.182
05/03/2014  18:42:00     -390.818     -138.942      -22.430      236.750      180.818       91.823    56050.747    32695.047     8431.535       13.484        4.859      414.781       99.296        0.057      343.768       20.108      856.218
05/03/2014  18:43:00     -383.053     -258.543      -12.302      232.853      175.533       99.677    54220.617    30811.701     9935.432       15.433        4.748      462.141      120.990        0.069      343.696       19.986      856.233
05/03/2014  18:44:00     -499.450     -240.782       -1.509      210.925      195.759       88.292    44489.415    38321.570     7795.562       19.900        4.530      554.460       86.877        0.025      343.633       19.880      856.240
05/03/2014  18:45:00     -206.243     -245.125        0.300      183.122      122.197       68.245    33533.552    14932.116     4657.426        7.786        2.656      320.347       74.035        0.053      343.702       19.995      856.235
05/03/2014  18:46:00     -204.815      -50.243        8.516      146.885      112.813       55.489    21575.121    12726.788     3079.060        4.096        1.869      210.888       63.024        0.089      343.814       20.188      856.292
05/03/2014  18:47:00     -143.494      -55.265       -7.180      132.640       86.724       53.961    17593.456     7521.086     2911.766        2.586        1.401      153.768       48.283        0.099      343.842       20.238      856.260
05/03/2014  18:48:00     -185.244     -217.691       14.532      176.536      175.927       75.691    31165.095    30950.338     5729.175        7.487        3.392      285.840       82.893        0.084      343.859       20.265      856.273
05/03/2014  18:49:00     -497.629     -343.057      -16.437      205.609      161.789       96.032    42275.098    26175.641     9222.198       22.162        3.884      604.420       97.894        0.026      343.757       20.088      856.338
05/03/2014  18:50:00     -419.891     -202.074        2.242      228.307      183.567       90.934    52124.237    33696.770     8268.968       15.560        4.704      465.986      105.950        0.052      343.713       20.015      856.345
05/03/2014  18:51:00     -220.121     -229.561      -13.207      157.540      147.177       75.552    24818.916    21661.028     5708.153        7.675        2.609      318.043       65.399        0.042      343.749       20.077      856.333
05/03/2014  18:52:00     -323.855     -184.218       -7.705      199.769      126.903       92.008    39907.809    16104.259     8465.538       10.166        3.224      372.584       98.554        0.070      343.721       20.027      856.299
05/03/2014  18:53:00     -226.317     -192.364        3.476      202.275      159.970       87.189    40915.087    25590.248     7602.004        8.116        3.705      297.024      100.450        0.114      343.685       19.968      856.302
05/03/2014  18:54:00     -296.536     -182.232      -16.250      252.232      217.254       92.488    63620.937    47199.103     8554.039       12.037        5.969      348.055      112.353        0.104      343.625       19.867      856.292
05/03/2014  18:55:00     -352.251     -175.533        0.536      137.011      159.472       77.575    18772.001    25431.381     6017.831       10.255        2.511      393.563       77.541        0.039      343.548       19.734      856.251
05/03/2014  18:56:00     -317.831      -55.814      -13.882      201.631      160.862       96.220    40654.985    25876.580     9258.249        9.004        3.789      322.695      113.403        0.123      343.556       19.746      856.266
05/03/2014  18:57:00     -460.178     -171.303       -6.951      214.812      173.886       92.887    46144.385    30236.338     8627.947       16.307        4.250      491.028       95.992        0.038      343.513       19.673      856.248
05/03/2014  18:58:00     -328.395     -150.574      -14.716      167.697      127.613       73.153    28122.233    16285.087     5351.421        9.024        2.488      361.269       68.364        0.036      343.495       19.645      856.242
05/03/2014  18:59:00     -256.061     -191.310        3.230      199.933      169.401       82.371    39973.015    28696.862     6784.995        8.880        3.773      319.635      104.015        0.106      343.524       19.693      856.202
05/03/2014  19:00:00     -195.196     -204.779       11.463      144.155      129.834       74.878    20780.662    16856.777     5606.668        6.170        2.162      282.906       79.081        0.078      343.544       19.726      856.172
05/03/2014  19:01:00     -458.922     -243.941       -9.312      159.662      149.378       77.585    25492.016    22313.743     6019.404       16.200        2.691      519.727       77.939        0.022      343.556       19.747      856.232
05/03/2014  19:02:00     -414.137     -242.475      -15.576      169.158      135.666       83.712    28614.271    18405.251     7007.725       14.228        2.701      479.900       74.958        0.024      343.537       19.716      856.274
05/03/2014  19:03:00     -213.406     -227.733       -1.578      152.323      140.691       64.602    23202.167    19793.828     4173.371        7.228        2.358      312.097       65.018        0.043      343.592       19.809      856.229
05/03/2014  19:04:00     -127.237     -180.230       25.660      160.743      143.214       76.836    25838.163    20510.307     5903.776        5.078        2.613      220.618       73.124        0.110      343.622       19.860      856.245
05/03/2014  19:05:00     -256.635     -192.314       18.794      208.017      156.356       74.375    43271.035    24447.053     5531.684        8.821        3.662      320.696       87.702        0.075      343.611       19.841      856.285
05/03/2014  19:06:00     -198.059     -273.912       -8.491      150.379      103.799       64.333    22613.702    10774.169     4138.718        7.592        1.876      338.016       74.917        0.049      343.588       19.801      856.292
05/03/2014  19:07:00     -285.842     -190.675       -5.665      160.933       95.194       64.706    25899.520     9061.964     4186.912        7.861        1.957      343.603       67.298        0.038      343.471       19.603      856.285
05/03/2014  19:08:00     -284.163     -211.152        0.617      154.190      114.472       63.043    23774.456    13103.763     3974.372        8.309        2.043      354.025       47.081        0.018      343.472       19.605      856.280
05/03/2014  19:09:00     -295.783     -169.251       10.237      168.229      131.500       69.936    28301.121    17292.330     4891.039        8.335        2.524      340.784       73.262        0.046      343.434       19.540      856.262
05/03/2014  19:10:00     -217.731     -109.257        5.378      134.167      107.824       58.845    18000.838    11626.091     3462.769        4.622        1.654      243.606       60.771        0.062      343.482       19.622      856.277
05/03/2014  19:11:00     -433.154     -222.760      -10.085      220.600      170.248       88.382    48664.201    28984.268     7811.305       16.139        4.273      487.078      102.337        0.044      343.392       19.468      856.271
05/03/2014  19:12:00     -276.642     -169.416        4.301      148.322      123.745       62.324    21999.559    15312.931     3884.281        7.322        2.060      324.396       72.034        0.049      343.444       19.557      856.284
05/03/2014  19:13:00     -178.186      -95.443        3.936      123.412       97.344       54.952    15230.454     9475.783     3019.716        3.429        1.386      202.137       66.942        0.110      343.463       19.591      856.302
05/03/2014  19:14:00     -104.629     -373.842       19.271      118.519      191.364       70.916    14046.815    36620.268     5029.034       10.338        2.785      388.207       66.271        0.029      343.387       19.459      856.261
05/03/2014  19:15:00     -339.320     -304.574      -21.111      193.007      162.082       85.743    37251.726    26270.456     7351.881       13.960        3.544      455.964       73.916        0.026      343.326       19.356      856.231
05/03/2014  19:16:00     -384.922     -210.351       -0.267      196.858      149.362       97.189    38753.142    22308.884     9445.649       13.145        3.525      438.649       97.023        0.049      343.258       19.238      856.227
05/03/2014  19:17:00     -354.080     -259.895      -21.183      119.990      145.154       75.608    14397.598    21069.561     5716.549       11.727        2.059      439.224       67.383        0.024      343.247       19.219      856.231
05/03/2014  19:18:00     -247.587     -179.258        6.571      126.591      109.991       67.778    16025.242    12097.930     4593.877        6.309        1.636      305.668       73.698        0.058      343.259       19.241      856.248
05/03/2014  19:19:00     -269.473     -107.300       -9.297      142.831      126.739       88.854    20400.583    16062.694     7895.083        6.428        2.218      290.050       81.958        0.080      343.286       19.288      856.231
05/03/2014  19:20:00     -250.652     -115.553       -2.917      166.156      128.952       60.393    27607.731    16628.740     3647.373        6.203        2.394      276.005       77.287        0.078      343.251       19.227      856.238
05/03/2014  19:21:00     -258.117     -191.559       -1.690      167.958      221.112       76.432    28210.035    48890.510     5841.836        9.312        4.147      321.433       57.247        0.032      343.175       19.098      856.258
05/03/2014  19:22:00     -319.369     -217.629        1.010      195.623      171.330       80.254    38268.247    29354.070     6440.777       11.170        3.703      386.470       97.627        0.064      343.139       19.038      856.230
05/03/2014  19:23:00     -114.678     -132.462       15.138      143.382       90.740       67.275    20558.461     8233.738     4525.879        3.212        1.666      175.206       74.851        0.183      343.196       19.135      856.215
05/03/2014  19:24:00     -237.804     -249.247       -7.049      242.361      145.738       68.253    58738.735    21239.653     4658.445       10.166        4.232      344.493       92.580        0.072      343.179       19.105      856.217
05/03/2014  19:25:00     -197.384     -261.196       -7.781      165.101      138.523       77.487    27258.312    19188.611     6004.202        7.984        2.623      327.389       76.672        0.055      343.141       19.040      856.218
05/03/2014  19:26:00     -251.374     -148.140        7.506      161.445      139.243       75.649    26064.348    19388.603     5722.767        6.817        2.559      291.778       74.779        0.066      343.144       19.044      856.216
05/03/2014  19:27:00      -72.668     -147.021       32.408      165.567      164.879       96.504    27412.422    27185.005     9312.954        4.592        3.196      164.000      105.206        0.412      343.200       19.141      856.182
05/03/2014  19:28:00       17.713     -210.792      -30.874      158.767      114.580       50.304    25207.106    13128.645     2530.489        4.327        2.043      211.535       50.642        0.057      343.234       19.200      856.197
05/03/2014  19:29:00     -215.000     -132.179        0.182      110.407       86.658       52.450    12189.779     7509.590     2751.023        4.307        1.123      252.381       54.552        0.047      343.196       19.134      856.240
05/03/2014  19:30:00     -217.822     -142.557       -1.064      161.762      115.229       69.596    26166.935    13277.766     4843.616        5.602        2.214      260.324       53.284        0.042      343.165       19.081      856.209
05/03/2014  19:31:00     -212.642      -72.102       21.209      132.483      153.063       71.755    17551.860    23428.295     5148.773        4.849        2.306      224.534       69.248        0.095      343.149       19.054      856.124
05/03/2014  19:32:00     -139.719     -148.145       -3.392      198.108      124.088       74.634    39246.810    15397.849     5570.208        5.084        3.011      203.638      102.924        0.255      343.134       19.030      856.169
05/03/2014  19:33:00     -241.577     -174.487      -10.043      146.280       83.522       64.954    21397.764     6975.854     4218.986        6.074        1.630      298.002       61.176        0.042      343.207       19.152      856.136
05/03/2014  19:34:00     -240.174      -96.932      -15.086      108.076       90.212       47.690    11680.384     8138.135     2274.303        4.470        1.105      258.996       46.026        0.032      343.156       19.066      856.216
05/03/2014  19:35:00     -160.678      -92.731       11.430       99.301      113.838       45.782     9860.656    12959.195     2095.962        2.973        1.246      185.517       44.652        0.058      343.091       18.955      856.178
05/03/2014  19:36:00      -63.864      -48.460        2.871       51.675       28.904       32.635     2670.269      835.461     1065.021        0.550        0.229       80.168       14.443        0.032      343.143       19.048      856.150
05/03/2014  19:37:00     -145.436      -98.179      -12.851       50.919       50.016       31.849     2592.774     2501.630     1014.378        1.853        0.305      175.473       31.205        0.032      343.226       19.187      856.163
05/03/2014  19:38:00     -275.723     -215.618        4.135      190.397      208.994       84.093    36250.901    43678.630     7071.571       10.475        4.350      350.021       95.369        0.074      343.054       18.892      856.232
05/03/2014  19:39:00     -183.184     -330.904       -4.031      168.661      219.204       85.799    28446.681    48050.500     7361.410       11.345        4.193      378.225      110.020        0.085      343.008       18.815      856.216
05/03/2014  19:40:00     -232.812     -185.303       -1.149      126.998      123.737       59.450    16128.382    15310.758     3534.320        6.175        1.749      297.554       61.597        0.043      343.030       18.850      856.197
05/03/2014  19:41:00     -297.568     -152.318      -11.606      156.470      128.597       71.529    24482.854    16537.077     5116.371        7.900        2.307      334.287       78.960        0.056      342.938       18.696      856.171
05/03/2014  19:42:00     -328.541     -176.002       -6.921      136.871      159.295       75.116    18733.692    25374.884     5642.358        9.435        2.488      372.714       65.843        0.031      342.960       18.733      856.129
05/03/2014  19:43:00     -173.129     -113.719      -11.080      107.356       90.888       60.154    11525.254     8260.605     3618.519        3.321        1.170      207.137       48.709        0.055      342.968       18.746      856.134
05/03/2014  19:44:00     -188.247     -173.520       -1.477      106.872      106.742       56.553    11421.722    11393.914     3198.296        4.578        1.301      256.020       52.965        0.043      342.947       18.711      856.125
05/03/2014  19:45:00     -269.155     -214.729      -14.913      148.647      127.341       62.740    22096.005    16215.728     3936.245        8.050        2.112      344.315       61.887        0.032      342.918       18.662      856.127
05/03/2014  19:46:00     -249.427     -227.622        9.702      133.918      173.337       67.705    17934.038    30045.871     4583.995        8.333        2.628      337.676       62.268        0.034      342.911       18.650      856.158
05/03/2014  19:47:00     -198.479     -184.140       14.297      140.603      122.851       72.651    19769.297    15092.319     5278.156        5.681        2.007      270.742       85.851        0.101      342.920       18.665      856.210
05/03/2014  19:48:00     -178.361     -158.623        2.487      106.210      128.096       65.564    11280.558    16408.628     4298.666        4.448        1.599      238.692       61.013        0.065      342.917       18.660      856.241
05/03/2014  19:49:00     -161.648      -72.487       17.077       97.280       82.332       46.271     9463.372     6778.631     2141.005        2.503        0.919      177.157       40.735        0.053      342.917       18.660      856.272
05/03/2014  19:50:00     -316.642     -210.458        1.145      134.250      162.729       75.325    18023.007    26480.612     5673.842        9.736        2.509      380.203       74.806        0.039      342.837       18.524      856.272
05/03/2014  19:51:00     -236.614      -77.075       -2.604      153.474      113.093       64.872    23554.198    12789.977     4208.441        5.123        2.028      248.851       74.247        0.089      342.833       18.518      856.294
05/03/2014  19:52:00      -90.096     -157.244        6.108      117.814      132.777       63.544    13880.224    17629.616     4037.811        3.421        1.777      181.226       58.880        0.106      342.854       18.551      856.317
05/03/2014  19:53:00      -50.805      -81.986       -1.415       96.569       68.174       35.569     9325.565     4647.673     1265.159        1.227        0.762       96.452       45.580        0.223      342.864       18.571      856.264
05/03/2014  19:54:00     -169.964     -254.723      -15.084      118.871      116.710       64.974    14130.357    13621.298     4221.589        6.298        1.599      306.222       53.011        0.030      342.887       18.609      856.219
05/03/2014  19:55:00      -42.778      -64.354       33.150       86.509       99.286       41.292     7483.852     9857.736     1705.064        1.305        0.952       77.275       36.861        0.228      342.849       18.546      856.220
05/03/2014  19:56:00       -1.628     -205.785       -3.884      141.528      174.144       94.896    20030.195    30326.109     9005.321        5.085        2.968      205.792       92.988        0.204      342.928       18.679      856.126
05/03/2014  19:57:00      -78.795     -142.117       14.233      252.982      186.735       84.888    64000.070    34869.821     7206.044        6.632        5.304      162.499       59.110        0.132      342.860       18.564      856.063
05/03/2014  19:58:00     -278.371     -351.197      -11.090      167.243      170.745       76.239    27970.365    29153.816     5812.312       13.193        3.147      448.140       76.374        0.029      342.873       18.585      856.201
05/03/2014  19:59:00     -236.441     -166.602      -11.929      124.316      111.213       62.050    15454.496    12368.333     3850.196        5.773        1.584      289.242       63.276        0.048      342.889       18.611      856.338
05/03/2014  20:00:00     -109.634      -50.403       16.471      124.885       82.308       54.321    15596.226     6774.541     2950.733        2.007        1.266      120.665       57.279        0.225      342.829       18.510      856.347
05/03/2014  20:01:00     -120.175      -87.912        5.143       91.724       89.693       45.197     8413.366     8044.854     2042.754        2.035        0.925      148.898       40.229        0.073      342.727       18.336      856.279
05/03/2014  20:02:00     -278.861     -161.751       -2.296      172.636      112.510       73.024    29803.310    12658.605     5332.468        7.585        2.390      322.376       81.213        0.063      342.681       18.259      856.287
05/03/2014  20:03:00     -393.983     -189.359      -16.400      212.729      190.299       87.984    45253.542    36213.792     7741.107       14.026        4.460      437.126      106.070        0.059      342.640       18.187      856.265
05/03/2014  20:04:00     -390.127     -103.380       -9.293      188.912      191.331       89.442    35687.843    36607.449     7999.823       12.162        4.015      403.592      101.580        0.063      342.619       18.153      856.245
05/03/2014  20:05:00     -350.074      -63.815        4.773      241.711      161.022       98.966    58424.445    25928.006     9794.239       11.038        4.707      355.843      129.934        0.133      342.596       18.113      856.267
05/03/2014  20:06:00     -415.092     -120.186      -19.811      181.734      165.170       88.906    33027.205    27281.104     7904.318       12.766        3.411      432.141       95.105        0.048      342.545       18.027      856.195
05/03/2014  20:07:00      -63.873      -61.125       26.297      155.909      131.513       69.704    24307.599    17295.791     4858.658        2.748        2.323       88.408       56.790        0.413      342.607       18.132      856.245
05/03/2014  20:08:00       19.394     -181.119       -4.310       88.009       83.405       52.966     7745.526     6956.364     2805.427        2.535        0.875      182.154       36.045        0.039      342.692       18.277      856.311
05/03/2014  20:09:00      -67.652      -71.446      -11.423       38.088      109.858       31.894     1450.714    12068.787     1017.226        1.217        0.727       98.393       16.509        0.028      342.666       18.235      856.284
05/03/2014  20:10:00      -31.433      -14.794       12.166       36.534       33.861       21.618     1334.757     1146.592      467.348        0.215        0.147       34.740       23.495        0.457      342.575       18.081      856.258
05/03/2014  20:11:00        3.818     -112.922        8.221       83.560       81.699       50.720     6982.290     6674.659     2572.567        1.453        0.811      112.986       39.108        0.120      342.612       18.143      856.282
05/03/2014  20:12:00      -84.782      -35.168        7.880       96.380       43.405       37.019     9289.128     1883.970     1370.416        1.051        0.627       91.787       43.095        0.220      342.577       18.084      856.273
05/03/2014  20:13:00      -43.375     -150.097       10.814       71.074       85.512       43.875     5051.476     7312.348     1925.019        1.941        0.714      156.239       34.216        0.048      342.624       18.162      856.308
05/03/2014  20:14:00       62.122     -130.130       -0.334      144.434      138.368       78.185    20861.186    19145.630     6112.945        3.345        2.306      144.198       70.095        0.236      342.666       18.233      856.233
05/03/2014  20:15:00      -83.183      -97.562       -5.480      120.640       76.305       44.786    14553.979     5822.389     2005.779        1.942        1.119      128.210       33.199        0.067      342.675       18.249      856.217
05/03/2014  20:16:00     -176.392     -120.352      -24.084       97.630      104.771       43.405     9531.603    10976.892     1883.953        3.428        1.120      213.539       56.161        0.069      342.618       18.151      856.297
05/03/2014  20:17:00     -191.164     -117.061      -12.127      111.960      106.223       56.752    12534.932    11283.406     3220.832        3.871        1.352      224.158       61.737        0.076      342.553       18.042      856.369
05/03/2014  20:18:00     -234.157     -163.104        3.527      200.553      118.208       66.353    40221.610    13973.033     4402.738        7.001        2.930      285.363       75.214        0.069      342.518       17.981      856.369
05/03/2014  20:19:00     -334.104     -230.172      -10.733      183.413      143.959       75.279    33640.344    20724.125     5666.903       11.236        3.002      405.715       93.206        0.053      342.501       17.951      856.299
05/03/2014  20:20:00     -187.496     -171.581        6.044      145.368      100.022       66.698    21131.774    10004.432     4448.655        5.010        1.779      254.155       69.385        0.075      342.500       17.951      856.316
05/03/2014  20:21:00     -132.000     -218.966      -15.616       74.739      113.084       48.391     5585.974    12787.921     2341.655        4.316        1.036      255.676       39.359        0.024      342.537       18.014      856.365
05/03/2014  20:22:00     -160.017     -125.238      -12.219       98.591       94.433       50.580     9720.280     8917.627     2558.292        3.131        1.060      203.200       43.573        0.046      342.526       17.995      856.407
05/03/2014  20:23:00      -30.983      -54.164        0.797       84.347       86.712       54.515     7114.374     7519.000     2971.862        1.075        0.880       62.399       22.044        0.125      342.614       18.145      856.387
05/03/2014  20:24:00      -33.584      -71.883       24.537       87.440      106.302       62.426     7645.822    11300.103     3897.031        1.487        1.142       79.341       66.998        0.713      342.610       18.140      856.376
05/03/2014  20:25:00     -205.040     -127.929      -16.031      103.985       95.796       59.554    10812.971     9176.901     3546.622        4.110        1.177      241.676       58.638        0.059      342.512       17.971      856.364
05/03/2014  20:26:00     -249.540      -86.159       14.436      196.434      145.228       72.105    38586.500    21091.205     5199.137        6.738        3.244      263.995       91.050        0.119      342.438       17.844      856.314
05/03/2014  20:27:00      -38.206     -150.302       44.982      114.528      118.083       61.148    13116.580    13943.692     3739.051        2.843        1.540      155.082       62.590        0.163      342.445       17.858      856.320
05/03/2014  20:28:00      -10.930     -142.744      -21.692      109.240       62.835       40.592    11933.370     3948.284     1647.677        1.924        0.876      143.162       23.406        0.027      342.488       17.931      856.380
05/03/2014  20:29:00      -34.285      -23.749       18.739       45.626       87.497       42.161     2081.732     7655.681     1777.589        0.680        0.576       41.707       35.428        0.722      342.420       17.817      856.411
05/03/2014  20:30:00     -102.996      -67.523      -15.833      138.711      110.979       51.304    19240.605    12316.385     2632.135        2.480        1.709      123.156       57.350        0.217      342.467       17.896      856.430
05/03/2014  20:31:00     -112.575     -100.623       11.520      141.035      155.785       79.853    19890.986    24268.862     6376.437        3.672        2.527      150.990       74.806        0.245      342.441       17.850      856.394
05/03/2014  20:32:00      -48.173      -37.427       23.201      130.713       70.126       48.078    17085.986     4917.623     2311.529        1.428        1.216       61.003       42.525        0.486      342.432       17.835      856.404
05/03/2014  20:33:00      -86.064      -11.338       31.676       79.381       77.186       54.043     6301.335     5957.688     2920.594        1.186        0.759       86.808       51.966        0.358      342.420       17.817      856.348
05/03/2014  20:34:00      -42.886      -18.762        5.394       47.760       34.465       24.221     2281.002     1187.843      586.641        0.314        0.203       46.810       26.751        0.327      342.348       17.694      856.401
05/03/2014  20:35:00     -124.138     -136.180       -1.480      130.905      126.735       55.740    17136.101    16061.790     3106.941        3.512        1.815      184.269       77.236        0.176      342.409       17.797      856.403
05/03/2014  20:36:00      -65.761      -74.968        2.761       77.969       73.301       40.211     6079.184     5373.051     1616.904        1.151        0.653       99.723       31.852        0.102      342.356       17.707      856.368
05/03/2014  20:37:00      -88.776      -98.880       -4.383      168.946      108.307       66.670    28542.667    11730.396     4444.907        3.119        2.236      132.885       63.852        0.231      342.462       17.886      856.402
05/03/2014  20:38:00     -109.756      -53.274        7.975      116.136       82.808       59.520    13487.569     6857.114     3542.643        1.941        1.194      122.002       36.546        0.090      342.443       17.856      856.504
05/03/2014  20:39:00     -184.555     -154.360      -14.880       87.204      149.379       54.136     7604.460    22314.226     2930.660        4.547        1.642      240.598       57.001        0.056      342.423       17.818      856.495
05/03/2014  20:40:00      -91.294      -99.328        3.275      157.629      108.443       67.701    24847.053    11759.986     4583.387        2.969        2.060      134.910       50.640        0.141      342.439       17.846      856.489
05/03/2014  20:41:00     -223.817     -240.926      -20.089      120.560       93.019       57.269    14534.768     8652.588     3279.720        6.750        1.323      328.845       54.263        0.027      342.407       17.793      856.498
05/03/2014  20:42:00     -130.757     -152.434       -6.033       96.854       72.421       39.558     9380.751     5244.793     1564.835        2.828        0.810      200.832       28.966        0.021      342.381       17.747      856.528
05/03/2014  20:43:00      -79.975      -61.246       20.824       78.963       64.810       37.301     6235.084     4200.312     1391.363        1.120        0.591      100.733       29.592        0.086      342.315       17.638      856.468
05/03/2014  20:44:00       11.153        9.193        3.251       43.675       28.846       24.997     1907.505      832.117      624.844        0.179        0.168       14.453       21.727        2.260      342.322       17.649      856.447
05/03/2014  20:45:00     -120.596      -34.651       -1.880       35.445       56.216       27.855     1256.361     3160.278      775.891        1.047        0.260      125.476       19.793        0.025      342.330       17.663      856.509
05/03/2014  20:46:00     -118.911      -87.118       -5.846       84.193       82.199       38.490     7088.474     6756.706     1481.444        1.854        0.766      147.409       44.356        0.091      342.239       17.507      856.522
05/03/2014  20:47:00      -73.642       39.550       -8.681       74.695       84.923       38.148     5579.389     7211.861     1455.300        1.065        0.712       83.590       38.031        0.207      342.203       17.447      856.456
05/03/2014  20:48:00     -161.101      -69.580      -14.176       82.037       56.626       33.353     6730.127     3206.492     1112.454        2.102        0.552      175.485       38.469        0.048      342.254       17.533      856.502
05/03/2014  20:49:00      -34.258     -123.788       14.236       55.055       94.623       36.666     3031.096     8953.587     1344.369        1.501        0.666      128.441       23.168        0.033      342.262       17.548      856.629
05/03/2014  20:50:00     -163.936     -131.006      -11.399       97.012      107.170       54.811     9411.383    11485.497     3004.214        3.403        1.195      209.851       50.166        0.057      342.322       17.648      856.646
05/03/2014  20:51:00     -117.726     -150.210       22.711      151.724      155.111       56.130    23020.214    24059.572     3150.548        4.357        2.512      190.846       76.022        0.159      342.251       17.527      856.646
05/03/2014  20:52:00      -97.115      -82.533       -3.457       78.120       93.047       48.949     6102.709     8657.728     2395.994        1.670        0.858      127.448       48.957        0.148      342.335       17.672      856.685
05/03/2014  20:53:00      -75.427      -61.427       11.579       75.488       50.283       38.602     5698.441     2528.377     1490.091        0.965        0.486       97.275       30.942        0.101      342.309       17.629      856.675
05/03/2014  20:54:00     -168.227     -111.870       -9.225       83.372       51.463       30.215     6950.827     2648.476      912.949        2.570        0.526      202.028       27.431        0.018      342.309       17.626      856.695
05/03/2014  20:55:00     -204.885     -107.232       -3.335      172.248      102.560       66.783    29669.522    10518.481     4459.941        4.906        2.232      231.250       72.016        0.097      342.251       17.527      856.717
05/03/2014  20:56:00      -23.100      -80.474       79.919      169.971      192.791      111.558    28890.064    37168.549    12445.219        4.593        3.925       83.723      138.631        2.742      342.150       17.357      856.693
05/03/2014  20:57:00       39.906     -175.399        6.302      167.174      167.825      105.444    27947.176    28165.083    11118.477        4.980        3.362      179.881      107.273        0.356      342.249       17.524      856.558
05/03/2014  20:58:00     -110.818      -96.473       -5.171      140.447       82.018       45.802    19725.339     6727.025     2097.862        2.508        1.428      146.928       36.152        0.061      342.341       17.679      856.674
05/03/2014  20:59:00     -108.674     -134.401       11.222      130.725      102.378       54.485    17088.924    10481.264     2968.607        3.026        1.527      172.839       54.301        0.099      342.333       17.667      856.780
05/03/2014  21:00:00     -120.850     -123.921        7.283      113.416      122.337       59.158    12863.113    14966.436     3499.705        3.067        1.566      173.092       67.571        0.152      342.239       17.507      856.803
05/03/2014  21:01:00      -95.721      -69.259       -2.466       64.364       50.112       34.664     4142.780     2511.169     1201.611        1.091        0.393      118.150       22.128        0.035      342.210       17.459      856.807
05/03/2014  21:02:00     -210.738      -60.876        4.823      142.092       77.087       49.942    20190.022     5942.343     2494.194        3.838        1.431      219.355       48.900        0.050      342.108       17.285      856.787
05/03/2014  21:03:00     -196.500      -86.464       -4.965      128.480      110.121       52.255    16507.116    12126.674     2730.627        3.873        1.568      214.682       57.366        0.071      342.092       17.257      856.767
05/03/2014  21:04:00     -206.888      -28.693       18.112      159.848       98.581       72.879    25551.347     9718.293     5311.284        4.226        2.029      208.868       83.081        0.158      342.054       17.192      856.738
05/03/2014  21:05:00      -76.195     -151.928        6.653       78.250      108.899       43.464     6123.017    11859.068     1889.103        2.440        0.994      169.965       39.322        0.054      342.115       17.299      856.749
05/03/2014  21:06:00      -96.021     -123.165       -6.088       67.921       64.918       36.489     4613.284     4214.307     1331.427        1.729        0.508      156.172       23.269        0.022      342.183       17.413      856.750
05/03/2014  21:07:00      -97.756      -81.016        3.572       87.707       66.442       38.711     7692.570     4414.584     1498.521        1.487        0.680      126.964       32.118        0.064      342.159       17.373      856.772
05/03/2014  21:08:00     -229.830      -49.606        7.515      137.950      116.245       68.678    19030.226    13512.800     4716.643        4.629        1.863      235.122       69.304        0.087      342.094       17.261      856.744
05/03/2014  21:09:00     -257.287     -169.581       -3.976      144.102      133.934       75.782    20765.529    17938.345     5742.849        6.970        2.222      308.147       77.396        0.063      342.068       17.215      856.780
05/03/2014  21:10:00     -171.206      -63.839       -2.130       89.468       84.408       47.052     8004.508     7124.655     2213.902        2.536        0.867      182.721       48.825        0.071      342.032       17.154      856.822
05/03/2014  21:11:00     -124.136     -146.016       -7.917      125.030      122.052       68.919    15632.424    14896.585     4749.762        3.603        1.764      191.651       65.598        0.117      342.069       17.219      856.781
05/03/2014  21:12:00     -267.171     -131.561        6.854      156.741      128.052       67.233    24567.841    16397.225     4520.225        6.710        2.274      297.807       77.531        0.068      342.023       17.139      856.801
05/03/2014  21:13:00     -221.786     -102.375       -4.024      106.322      109.544       56.273    11304.262    11999.945     3166.598        4.307        1.324      244.274       55.586        0.052      342.010       17.116      856.776
05/03/2014  21:14:00     -269.287     -106.539       -7.461      172.069      160.071       77.924    29607.593    25622.833     6072.203        7.260        3.065      289.597       95.935        0.110      341.958       17.029      856.723
05/03/2014  21:15:00     -201.507     -129.388       -9.019       86.034       95.318       47.691     7401.869     9085.603     2274.477        3.809        0.938      239.470       51.490        0.046      341.983       17.069      856.755
05/03/2014  21:16:00     -217.676     -178.845      -22.529       86.548       71.179       42.599     7490.636     5066.438     1814.651        4.712        0.719      281.724       33.266        0.014      341.998       17.096      856.780
05/03/2014  21:17:00      -98.119     -128.603        3.251       97.357       84.951       35.298     9478.464     7216.732     1245.979        2.206        0.897      161.759       47.807        0.087      341.961       17.037      856.764
05/03/2014  21:18:00      -86.646      -63.262       20.202       75.701      140.874       53.913     5730.579    19845.368     2906.560        2.019        1.424      107.282       45.743        0.182      341.875       16.889      856.719
05/03/2014  21:19:00     -123.094      -25.697       -1.104       80.642       65.637       36.905     6503.106     4308.274     1361.960        1.399        0.609      125.747       39.084        0.097      341.933       16.990      856.766
05/03/2014  21:20:00      -82.448      -50.584       -1.037       78.769       58.201       36.973     6204.599     3387.325     1367.015        1.016        0.548       96.729       20.471        0.045      341.882       16.902      856.801
05/03/2014  21:21:00      -68.685     -115.641       13.795       79.057       61.553       40.782     6249.965     3788.801     1663.146        1.499        0.585      134.501       40.894        0.092      341.891       16.917      856.815
05/03/2014  21:22:00     -185.062     -131.403      -10.856       95.565       83.894       41.855     9132.674     7038.198     1751.863        3.477        0.896      226.968       38.594        0.029      341.900       16.930      856.837
05/03/2014  21:23:00     -163.645     -163.238       -2.091      137.705       95.850       57.699    18962.793     9187.253     3329.164        4.245        1.574      231.141       59.278        0.066      341.823       16.801      856.829
05/03/2014  21:24:00      -19.272      -98.227       16.088       61.474      111.055       42.006     3779.048    12333.242     1764.538        1.407        0.894      100.100       51.926        0.269      341.739       16.659      856.796
05/03/2014  21:25:00      -37.874      -90.590       -0.023       50.219       82.374       31.645     2521.961     6785.436     1001.416        0.997        0.515       98.189       40.720        0.172      341.741       16.664      856.714
05/03/2014  21:26:00      -26.279      -48.269       -0.817       48.405       68.862       29.010     2343.052     4741.980      841.577        0.547        0.396       54.959       26.036        0.224      341.774       16.721      856.723
05/03/2014  21:27:00     -159.292      -59.631       -5.452       81.826       71.065       37.785     6695.515     5050.303     1427.712        2.106        0.659      170.087       35.958        0.045      341.830       16.814      856.803
05/03/2014  21:28:00     -119.895      -86.935       -6.257       77.677       95.789       42.285     6033.769     9175.483     1787.986        1.948        0.850      148.097       40.213        0.074      341.786       16.739      856.829
05/03/2014  21:29:00     -144.226     -181.509       -5.696       82.624      103.391       45.361     6826.806    10689.647     2057.640        3.667        0.979      231.833       44.279        0.036      341.882       16.900      856.832
05/03/2014  21:30:00     -174.356     -191.809      -23.935      150.413      119.396       50.336    22623.979    14255.339     2533.732        5.358        1.971      259.212       46.389        0.032      341.897       16.925      856.818
05/03/2014  21:31:00     -100.749     -116.221       -9.534       65.503       96.419       45.826     4290.675     9296.596     2099.977        1.971        0.784      153.810       36.431        0.056      341.896       16.925      856.797
05/03/2014  21:32:00      -82.074     -104.422        9.588       63.243       48.877       32.674     3999.696     2388.921     1067.602        1.259        0.373      132.816       34.307        0.067      341.901       16.935      856.788
05/03/2014  21:33:00      -29.167      -93.254        4.799       37.858       74.672       26.432     1433.244     5575.881      698.650        0.864        0.385       97.709       26.651        0.074      341.896       16.926      856.810
05/03/2014  21:34:00      -97.427     -103.026        1.609       83.626       73.751       41.866     6993.391     5439.164     1752.776        1.714        0.709      141.797       30.298        0.046      341.882       16.903      856.883
05/03/2014  21:35:00      -98.074      -90.991        0.336       58.846       71.950       34.782     3462.800     5176.740     1209.785        1.387        0.492      133.783       32.290        0.058      341.862       16.871      856.905
05/03/2014  21:36:00     -135.919     -264.401      -13.162      123.591      102.861       59.120    15274.647    10580.320     3495.136        5.895        1.468      297.291       56.839        0.037      342.029       17.149      856.900
05/03/2014  21:37:00       -6.467      -80.175        1.352       47.875       72.538       41.385     2292.004     5261.793     1712.733        0.787        0.463       80.436       32.194        0.160      341.760       16.696      856.822
05/03/2014  21:38:00       55.640     -229.050       -4.561      119.441      112.970       63.002    14266.062    12762.173     3969.227        4.328        1.550      235.711       51.398        0.048      341.957       17.027      856.822
05/03/2014  21:39:00        2.162     -295.199       12.466      172.420      212.864       91.173    29728.544    45310.993     8312.484        8.531        4.168      295.207       98.409        0.111      342.009       17.117      856.811
05/03/2014  21:40:00       21.027     -412.926      -16.633      179.169      178.699       89.251    32101.584    31933.154     7965.692       12.160        3.600      413.461       46.485        0.013      342.128       17.316      856.729
05/03/2014  21:41:00      -76.373     -153.649        7.667       93.097      100.874       62.335     8666.959    10175.570     3885.633        2.611        1.136      171.583       39.996        0.054      342.093       17.260      856.810
05/03/2014  21:42:00      -77.823      -83.190       14.670       76.087       86.472       44.127     5789.195     7477.465     1947.169        1.420        0.761      113.917       40.091        0.124      341.988       17.080      856.865
05/03/2014  21:43:00     -110.332      -64.908        5.998       99.100       75.823       43.055     9820.853     5749.059     1853.709        1.692        0.871      128.008       42.038        0.108      342.009       17.118      856.818
05/03/2014  21:44:00      -70.159      -59.648       -5.598       73.913       72.123       38.403     5463.199     5201.712     1474.800        1.032        0.607       92.088       33.420        0.132      341.980       17.071      856.825
05/03/2014  21:45:00     -163.456     -163.453       -6.243      119.180       84.425       58.959    14203.950     7127.661     3476.203        3.914        1.240      231.160       53.721        0.054      341.987       17.080      856.867
05/03/2014  21:46:00      -95.228     -253.529       -8.771      113.679      102.656       49.568    12922.954    10538.182     2457.019        4.966        1.296      270.823       32.343        0.014      341.991       17.086      856.938
05/03/2014  21:47:00     -134.645     -153.258        1.449      114.150      110.907       48.417    13030.334    12300.370     2344.237        3.464        1.384      204.003       49.019        0.058      341.873       16.885      856.943
05/03/2014  21:48:00     -123.555     -135.081        1.440       95.606       82.249       49.487     9140.482     6764.876     2449.010        2.593        0.918      183.065       52.022        0.081      341.835       16.821      856.887
05/03/2014  21:49:00     -170.655     -111.737      -18.174      103.362      109.007       52.795    10683.767    11882.605     2787.339        3.364        1.268      203.981       49.741        0.059      341.826       16.806      856.847
05/03/2014  21:50:00     -147.620     -145.687       -5.719      121.682       92.875       64.650    14806.601     8625.675     4179.665        3.532        1.381      207.404       53.551        0.067      341.848       16.841      856.855
05/03/2014  21:51:00      -99.026     -145.888       -8.360      121.171      104.810       53.707    14682.345    10985.200     2884.491        2.985        1.428      176.322       45.870        0.068      341.855       16.854      856.873
05/03/2014  21:52:00      -86.680      -80.921        1.566       76.537       63.014       35.208     5857.891     3970.706     1239.570        1.256        0.553      118.581       29.502        0.062      341.834       16.820      856.864
05/03/2014  21:53:00      -87.948      -76.775       -2.378       57.207       48.252       32.871     3272.639     2328.218     1080.519        1.016        0.334      116.744       33.429        0.082      341.789       16.745      856.824
05/03/2014  21:54:00      -70.395     -161.632       -0.036       61.407       51.331       29.724     3770.838     2634.844      883.540        1.918        0.364      176.296       29.154        0.027      341.824       16.803      856.820
05/03/2014  21:55:00      -47.846     -127.314        8.041       58.198       87.401       42.347     3386.978     7638.862     1793.273        1.569        0.641      136.008       33.977        0.062      341.766       16.705      856.822
05/03/2014  21:56:00       -8.839     -152.633        6.260       53.510       76.430       27.499     2863.310     5841.530      756.214        1.644        0.473      152.889       20.956        0.019      341.789       16.744      856.865
05/03/2014  21:57:00      -24.530      -35.076       18.563       41.314       56.596       29.741     1706.865     3203.158      884.526        0.398        0.290       42.803       27.718        0.419      341.748       16.677      856.869
05/03/2014  21:58:00      -23.812       -3.405       11.487       54.717       54.602       26.927     2993.943     2981.358      725.057        0.370        0.335       24.055       32.727        1.851      341.638       16.489      856.801
05/03/2014  21:59:00      -39.599      -23.462        6.701       34.559       37.508       15.786     1194.315     1406.874      249.209        0.251        0.143       46.027       13.669        0.088      341.518       16.286      856.794
05/03/2014  22:00:00     -152.741      -62.857       12.231      134.701       66.685       41.279    18144.340     4446.908     1703.993        2.586        1.215      165.169       37.344        0.051      341.601       16.425      856.869
05/03/2014  22:01:00     -129.787     -293.493       -8.105       99.736      111.236       56.314     9947.208    12373.555     3171.306        6.427        1.275      320.910       54.339        0.029      341.740       16.658      856.918
05/03/2014  22:02:00       34.641     -197.394        2.022       88.508      131.571       69.263     7833.677    17310.988     4797.313        3.505        1.497      200.411       77.046        0.148      341.730       16.642      856.860
05/03/2014  22:03:00      -12.493      -60.296       19.570       73.539      103.291       69.867     5407.952    10668.938     4881.439        1.256        1.048       61.577       74.149        1.450      341.543       16.329      856.749
05/03/2014  22:04:00      -47.554      -79.559        2.589       44.453       57.769       19.340     1976.066     3337.310      374.031        0.714        0.284       92.687        7.819        0.007      341.667       16.538      856.737
05/03/2014  22:05:00     -137.035      -79.684        3.266       55.089       56.251       31.603     3034.851     3164.126      998.748        1.617        0.360      158.519       19.913        0.016      341.616       16.451      856.857
05/03/2014  22:06:00     -214.969     -137.370      -14.325       83.216       74.878       41.795     6924.964     5606.667     1746.799        3.978        0.714      255.112       26.363        0.011      341.635       16.481      856.930
05/03/2014  22:07:00     -141.638     -117.791        6.783      149.415      118.669       60.381    22324.929    14082.447     3645.914        3.701        2.003      184.217       68.967        0.140      341.682       16.563      856.905
05/03/2014  22:08:00     -145.498     -251.705       -6.252       66.874       65.686       47.611     4472.187     4314.684     2266.844        4.781        0.553      290.732       38.581        0.018      341.751       16.673      856.864
05/03/2014  22:09:00      -64.225      -77.610        9.414       78.318       71.210       36.020     6133.634     5070.930     1297.473        1.137        0.625      100.738       36.914        0.134      341.675       16.552      856.884
05/03/2014  22:10:00     -182.563     -157.212        0.615      140.868       96.182       55.218    19843.654     9250.902     3049.026        4.509        1.607      240.925       58.163        0.058      341.720       16.627      856.921
05/03/2014  22:11:00     -205.255     -171.617        0.604      137.452       97.681       56.069    18893.138     9541.552     3143.723        5.157        1.579      267.548       62.748        0.055      341.727       16.636      856.944
05/03/2014  22:12:00     -254.651     -148.962       -6.571      129.524      118.429       62.272    16776.353    14025.346     3877.863        6.087        1.734      295.020       66.831        0.051      341.744       16.666      856.920
05/03/2014  22:13:00       -1.996      -27.794       13.806       70.810       78.076       45.506     5014.063     6095.906     2070.826        0.707        0.659       27.866       40.996        2.164      341.422       16.123      856.805
05/03/2014  22:14:00       30.721      -65.366        9.902       96.422       57.400       47.499     9297.195     3294.797     2256.131        1.008        0.742       72.225       41.822        0.335      341.226       15.792      856.717
05/03/2014  22:15:00      -56.098      -62.595        7.891       45.961       37.743       30.025     2112.383     1424.566      901.488        0.578        0.222       84.054       23.219        0.076      341.722       16.633      856.765
05/03/2014  22:16:00     -176.988      -92.116        1.034       60.553       44.149       26.531     3666.657     1949.145      703.912        2.306        0.316      199.525       21.338        0.011      341.665       16.533      856.792
05/03/2014  22:17:00     -117.394     -174.721        9.420       82.317      132.020       45.263     6776.089    17429.316     2048.751        3.532        1.313      210.497       43.381        0.042      341.744       16.665      856.701
05/03/2014  22:18:00     -221.828     -122.482        6.019      125.536      108.611       52.614    15759.220    11796.324     2768.275        4.728        1.516      253.396       54.939        0.047      341.753       16.681      856.662
05/03/2014  22:19:00     -193.190     -137.746        4.507      101.756      100.280       59.725    10354.258    10056.102     3567.091        4.014        1.199      237.269       63.137        0.071      341.695       16.582      856.741
05/03/2014  22:20:00     -252.263     -216.707       -5.070      114.365      116.433       68.153    13079.254    13556.649     4644.875        7.095        1.564      332.563       64.793        0.038      341.761       16.694      856.754
05/03/2014  22:21:00     -303.692     -193.249      -10.601       93.783       79.347       55.999     8795.232     6295.992     3135.846        7.395        0.911      359.964       50.826        0.020      341.730       16.640      856.746
05/03/2014  22:22:00     -156.582      -74.598        1.246       86.106       97.714       45.111     7414.275     9548.106     2035.022        2.454        0.950      173.444       45.088        0.068      341.665       16.533      856.745
05/03/2014  22:23:00     -126.286     -109.050        1.780       93.224       93.400       47.444     8690.691     8723.588     2250.911        2.375        0.983      166.853       54.253        0.106      341.616       16.453      856.814
05/03/2014  22:24:00      -98.057     -101.409        4.205       92.255       51.143       51.497     8510.915     2615.636     2651.982        1.684        0.689      141.064       43.510        0.095      341.631       16.478      856.855
05/03/2014  22:25:00      -89.394     -100.739       -2.400       98.243       65.320       59.168     9651.670     4266.692     3500.822        1.778        0.871      134.684       51.810        0.148      341.666       16.536      856.742
05/03/2014  22:26:00       21.369      -73.597       -7.642       44.590       65.962       60.466     1988.229     4351.018     3656.131        0.796        0.500       76.636       48.912        0.407      341.519       16.288      856.642
05/03/2014  22:27:00       -7.890      -56.099        2.959       54.396       47.243       44.323     2958.879     2231.907     1964.533        0.519        0.358       56.651       31.409        0.307      341.626       16.470      856.658
05/03/2014  22:28:00     -119.952      -78.693       -0.761       66.087       72.351       32.321     4367.452     5234.618     1044.641        1.561        0.532      143.461       38.671        0.073      341.660       16.525      856.714
05/03/2014  22:29:00     -210.114     -178.221      -10.611      106.020       84.178       45.665    11240.283     7085.855     2085.329        4.821        1.021      275.518       47.828        0.030      341.624       16.461      856.755
05/03/2014  22:30:00     -113.493      -75.853       10.084      114.901       54.538       41.119    13202.226     2974.432     1690.765        1.830        0.893      136.507       52.376        0.147      341.615       16.448      856.752
05/03/2014  22:31:00     -111.986     -159.715       10.115       92.346      136.075       52.761     8527.761    18516.310     2783.700        3.398        1.491      195.063       61.197        0.098      341.726       16.639      856.760
05/03/2014  22:32:00     -240.769      -97.008       -8.170       95.350       75.684       47.949     9091.596     5728.044     2299.103        4.228        0.856      259.577       36.549        0.020      341.697       16.586      856.760
05/03/2014  22:33:00     -166.747      -76.012        5.293      125.877       83.187       49.040    15844.940     6920.017     2404.919        2.939        1.258      183.254       56.023        0.093      341.617       16.451      856.764
05/03/2014  22:34:00     -209.715     -167.490       -5.991      122.380      116.688       50.035    14976.756    13615.983     2503.455        5.158        1.555      268.390       51.598        0.037      341.645       16.499      856.780
05/03/2014  22:35:00     -153.118      -70.599        4.493      106.592       95.719       56.012    11361.881     9162.086     3137.337        2.605        1.183      168.610       52.109        0.096      341.548       16.336      856.793
05/03/2014  22:36:00     -228.073     -129.863       -6.809      107.606       92.703       53.911    11578.983     8593.930     2906.428        4.600        1.154      262.454       46.541        0.031      341.573       16.377      856.801
05/03/2014  22:37:00     -228.146      -35.177      -11.733       87.114       71.006       47.840     7588.911     5041.911     2288.702        3.417        0.746      230.842       43.856        0.036      341.567       16.366      856.776
05/03/2014  22:38:00     -160.816      -29.714       -6.446       96.069       62.706       40.473     9229.331     3932.075     1638.104        2.079        0.740      163.538       42.269        0.067      341.550       16.339      856.750
05/03/2014  22:39:00      -38.951      -42.143       11.211       54.160       56.256       38.796     2933.265     3164.780     1505.130        0.551        0.380       57.386       17.793        0.096      341.461       16.189      856.752
05/03/2014  22:40:00      -60.269      -55.870       12.954       70.451       51.288       35.682     4963.385     2630.478     1273.198        0.789        0.443       82.182       39.527        0.231      341.451       16.171      856.741
05/03/2014  22:41:00      -67.175      -28.871        9.424       59.955       37.699       27.452     3594.557     1421.228      753.630        0.560        0.288       73.116       29.575        0.164      341.457       16.183      856.678
05/03/2014  22:42:00      -91.980      -65.590        1.545       65.715       67.799       32.187     4318.524     4596.681     1036.026        1.136        0.498      112.971       30.237        0.072      341.490       16.239      856.704
05/03/2014  22:43:00     -185.951     -111.527       11.799      120.609      112.493       59.465    14546.521    12654.759     3536.040        3.894        1.537      216.832       69.814        0.104      341.622       16.460      856.754
05/03/2014  22:44:00     -220.251      -92.969        2.142      123.734       89.271       53.712    15310.104     7969.329     2884.976        4.166        1.308      239.068       59.266        0.061      341.668       16.536      856.673
05/03/2014  22:45:00     -100.533      -66.195       21.407       97.830       84.787       52.097     9570.722     7188.871     2714.111        1.721        0.974      120.368       60.837        0.255      341.533       16.311      856.610
05/03/2014  22:46:00     -203.695     -135.732       -4.077      116.645       85.575       48.671    13606.128     7323.019     2368.838        4.161        1.165      244.775       47.321        0.037      341.695       16.582      856.629
05/03/2014  22:47:00     -184.371     -132.618       -2.911       81.843       83.216       43.378     6698.221     6924.933     1881.613        3.354        0.775      227.113       40.694        0.032      341.648       16.504      856.654
05/03/2014  22:48:00     -211.058     -112.205      -12.675       77.125       63.162       41.451     5948.284     3989.399     1718.210        3.447        0.583      239.031       34.680        0.021      341.664       16.532      856.562
05/03/2014  22:49:00     -203.504     -123.801       -7.300       87.334       86.289       38.157     7627.187     7445.781     1455.935        3.666        0.826      238.203       36.749        0.024      341.700       16.591      856.563
05/03/2014  22:50:00      -25.056      -45.050       16.769       60.277       40.789       28.343     3633.261     1663.726      803.313        0.452        0.305       51.549       22.790        0.195      341.609       16.442      856.556
05/03/2014  22:51:00       23.983        3.241       38.765       37.297       61.557       30.262     1391.045     3789.264      915.766        0.409        0.305       24.201       21.986        0.825      340.992       15.395      856.546
05/03/2014  22:52:00       27.669      -64.521       11.364       51.428       68.642       47.698     2644.829     4711.734     2275.134        0.734        0.482       70.204       46.690        0.442      341.318       15.947      856.602
05/03/2014  22:53:00     -219.957      -75.955       -5.483       90.226       63.595       44.888     8140.725     4044.297     2014.930        3.419        0.710      232.702       37.334        0.026      341.511       16.272      856.686
05/03/2014  22:54:00     -205.684     -138.410       -1.727      135.238       84.724       44.951    18289.307     7178.213     2020.608        4.447        1.374      247.918       58.430        0.056      341.584       16.395      856.691
05/03/2014  22:55:00     -251.252     -209.827        3.955      163.164      134.938       78.591    26622.434    18208.283     6176.610        7.908        2.550      327.345       79.444        0.059      341.619       16.454      856.674
05/03/2014  22:56:00     -263.610     -226.312       -6.208      187.951      168.925       65.890    35325.753    28535.800     4341.536        9.446        3.410      347.430       76.654        0.049      341.825       16.804      856.700
05/03/2014  22:57:00      -44.034     -184.897       -8.406       82.415      110.097       50.609     6792.190    12121.369     2561.228        2.883        1.074      190.068       52.692        0.077      341.849       16.845      856.664
05/03/2014  22:58:00      -48.784      -70.249       -2.567       60.917       80.250       40.930     3710.870     6440.111     1675.234        0.957        0.591       85.526       35.619        0.173      341.883       16.905      856.621
05/03/2014  22:59:00      -62.915     -124.457        0.519      113.043       62.784       34.212    12778.748     3941.855     1170.443        1.867        0.895      139.456       31.956        0.053      341.901       16.932      856.623
05/03/2014  23:00:00      -26.755     -117.843       -3.671       87.352       52.467       31.233     7630.441     2752.740      975.489        1.299        0.568      120.842       19.582        0.026      341.941       17.002      856.627
05/03/2014  23:01:00     -124.223     -110.173        6.569       86.298       65.754       38.472     7447.368     4323.626     1480.085        2.043        0.663      166.041       30.297        0.033      341.835       16.822      856.683
05/03/2014  23:02:00     -154.173     -105.761        0.558      113.509      100.599       46.223    12884.213    10120.151     2136.597        3.004        1.257      186.962       54.741        0.086      341.808       16.776      856.680
05/03/2014  23:03:00     -148.703     -212.836        2.018      113.337      106.240       68.798    12845.274    11286.958     4733.132        4.813        1.443      259.638       63.253        0.059      341.838       16.827      856.699
05/03/2014  23:04:00     -144.686     -173.068      -18.202       69.423       87.326       49.055     4819.616     7625.802     2406.440        3.303        0.743      225.581       34.476        0.023      341.874       16.885      856.696
05/03/2014  23:05:00     -105.447     -214.713       -5.413       59.675       69.173       37.218     3561.049     4784.910     1385.147        3.349        0.487      239.209       30.083        0.016      341.940       16.998      856.742
05/03/2014  23:06:00      -95.235      -90.853        5.524       66.912       57.663       38.147     4477.222     3325.074     1455.191        1.330        0.463      131.620       31.171        0.056      341.867       16.878      856.755
05/03/2014  23:07:00     -110.738     -187.707       -3.798       75.900       87.559       37.250     5760.852     7666.620     1387.589        3.116        0.741      217.937       37.186        0.029      341.863       16.868      856.810
05/03/2014  23:08:00     -104.835     -183.949       13.323       72.066      101.220       47.342     5193.539    10245.404     2241.309        3.134        0.884      211.725       35.497        0.028      341.780       16.729      856.798
05/03/2014  23:09:00        6.871       63.427       97.980       45.598       62.633       49.453     2079.147     3922.843     2445.637        1.106        0.422       63.798       29.374        0.212      341.306       15.927      856.700
05/03/2014  23:10:00       56.646     -109.092       24.436       81.563      115.922       70.559     6652.543    13437.903     4978.523        2.038        1.253      122.922       80.030        0.424      341.581       16.392      856.676
05/03/2014  23:11:00      -17.847     -123.375       -6.438       62.443       49.900       28.621     3899.095     2490.029      819.182        1.139        0.360      124.659       22.683        0.033      341.769       16.711      856.736
05/03/2014  23:12:00     -105.312     -197.940       -6.754       98.937      101.563       45.843     9788.539    10315.079     2101.545        3.626        1.110      224.211       44.167        0.039      341.796       16.752      856.780
05/03/2014  23:13:00     -117.520     -112.955        2.150       88.872       60.007       37.884     7898.216     3600.794     1435.172        1.975        0.647      163.003       38.082        0.055      341.719       16.626      856.801
05/03/2014  23:14:00     -143.554     -118.581       -4.023       95.387       86.360       51.771     9098.701     7458.075     2680.284        2.696        0.962      186.197       61.178        0.108      341.727       16.637      856.857
05/03/2014  23:15:00     -100.486     -150.900        6.957       85.291      114.127       45.851     7274.638    13025.042     2102.286        2.765        1.120      181.296       59.127        0.106      341.743       16.666      856.883
05/03/2014  23:16:00     -143.630      -92.583        5.703       92.618       72.518       45.932     8578.077     5258.931     2109.750        2.259        0.797      170.883       52.248        0.093      341.701       16.592      856.848
05/03/2014  23:17:00     -107.071     -182.787       -7.710       80.553       98.344       39.523     6488.804     9671.520     1562.103        3.133        0.886      211.838       40.054        0.036      341.736       16.652      856.882
05/03/2014  23:18:00      -87.246     -142.062        6.250      123.381       80.616       42.389    15222.797     6499.004     1796.829        2.567        1.176      166.713       42.148        0.064      341.715       16.618      856.884
05/03/2014  23:19:00     -110.798     -194.237       -6.984      118.804      113.965       45.155    14114.294    12988.023     2038.963        3.959        1.457      223.616       53.420        0.057      341.746       16.671      856.819
05/03/2014  23:20:00      -69.957      -98.731       -5.678      110.457       77.812       41.900    12200.698     6054.760     1755.589        1.734        1.001      121.003       37.169        0.094      341.800       16.762      856.789
05/03/2014  23:21:00     -257.134     -173.666      -16.048      116.909      114.403       65.252    13667.641    13088.112     4257.869        6.377        1.551      310.286       68.897        0.049      341.829       16.810      856.725
05/03/2014  23:22:00     -212.342     -110.159      -12.981      134.306      148.674       43.813    18038.071    22104.002     1919.544        4.972        2.103      239.215       52.973        0.049      341.807       16.772      856.648
05/03/2014  23:23:00     -114.119     -135.463       12.465       78.818       78.614       50.261     6212.327     6180.208     2526.148        2.322        0.746      177.126       48.463        0.075      341.829       16.811      856.700
05/03/2014  23:24:00     -133.009     -146.369       -4.340       98.257       99.520       49.726     9654.385     9904.170     2472.648        3.058        1.102      197.776       41.202        0.043      341.812       16.784      856.754
05/03/2014  23:25:00      -91.155     -131.703       10.542       99.773       74.380       49.128     9954.682     5532.437     2413.576        2.183        0.895      160.171       38.853        0.059      341.790       16.744      856.803
05/03/2014  23:26:00     -146.884     -123.095       11.882       99.597       74.736       55.879     9919.605     5585.519     3122.447        2.774        0.931      191.643       43.780        0.052      341.712       16.613      856.831
05/03/2014  23:27:00     -192.784     -207.512        0.825      123.404      148.878       59.759    15228.452    22164.755     3571.104        6.059        2.048      283.244       69.098        0.060      341.713       16.613      856.799
05/03/2014  23:28:00     -113.581     -188.435       -6.097      103.218      111.464       57.747    10653.950    12424.148     3334.699        3.742        1.321      220.019       49.071        0.050      341.700       16.591      856.732
05/03/2014  23:29:00      -89.290      -77.788       10.385       80.943       67.180       40.712     6551.763     4513.092     1657.467        1.342        0.636      118.422       38.216        0.104      341.574       16.380      856.702
05/03/2014  23:30:00      -79.024     -100.525      -14.447       83.152       76.333       37.226     6914.308     5826.774     1385.752        1.534        0.706      127.867       40.335        0.100      341.639       16.489      856.745
05/03/2014  23:31:00      -56.118      -39.581       34.061       81.682       61.686       47.591     6671.924     3805.112     2264.906        0.931        0.637       68.672       40.256        0.344      341.550       16.339      856.761
05/03/2014  23:32:00      -51.361      -35.674        5.882       89.314       49.550       39.828     7976.967     2455.235     1586.282        0.798        0.601       62.534       23.709        0.144      341.633       16.482      856.722
05/03/2014  23:33:00      -72.713      -28.316       13.716      103.297       90.215       41.840    10670.180     8138.678     1750.576        1.341        1.028       78.032       42.004        0.290      341.530       16.305      856.671
05/03/2014  23:34:00      -47.225       16.111       23.081       54.843       46.233       35.284     3007.700     2137.480     1244.950        0.471        0.320       49.898       39.297        0.620      341.285       15.890      856.620
05/03/2014  23:35:00     -127.432     -159.061      -16.097       90.124       80.276       41.435     8122.265     6444.160     1716.880        2.904        0.814      203.811       30.587        0.023      341.769       16.708      856.679
05/03/2014  23:36:00      -71.112      -80.931       12.979      111.773       87.478       59.146    12493.287     7652.407     3498.278        1.770        1.182      107.735       63.738        0.350      341.745       16.670      856.778
05/03/2014  23:37:00       -0.652     -202.994        3.061      192.615      121.127       67.466    37100.352    14671.630     4551.605        4.876        2.816      202.995       55.185        0.074      341.884       16.904      856.781
05/03/2014  23:38:00     -193.848     -213.316       -5.242      118.522      138.823       77.841    14047.509    19271.838     6059.287        6.124        1.969      288.238       76.559        0.071      341.911       16.949      856.785
05/03/2014  23:39:00     -125.325     -180.694       19.369      147.798      110.022       68.900    21844.341    12104.895     4747.275        4.371        1.935      219.902       65.495        0.089      341.942       17.001      856.731
05/03/2014  23:40:00      -59.112     -204.583        3.803       88.015      110.445       56.158     7746.556    12198.127     3153.769        3.423        1.155      212.952       53.390        0.063      341.979       17.065      856.754
05/03/2014  23:41:00     -125.985     -222.823      -24.287      118.154       93.313       59.450    13960.301     8707.353     3534.272        4.615        1.310      255.973       60.946        0.057      341.932       16.986      856.807
05/03/2014  23:42:00     -155.934     -199.681      -10.447       99.088      105.846       41.767     9818.404    11203.451     1744.468        4.353        1.138      253.353       38.669        0.023      341.856       16.854      856.823
05/03/2014  23:43:00       32.928      -51.701       28.854      100.494      103.904       60.642    10098.990    10795.944     3677.505        1.458        1.229       61.296       60.731        0.982      341.668       16.540      856.752
05/03/2014  23:44:00       87.238     -251.325       -9.254      139.269      161.081       95.596    19395.957    25946.940     9138.548        6.266        2.724      266.035       90.187        0.115      341.835       16.820      856.632
05/03/2014  23:45:00      -25.560     -166.708        0.025      112.145      118.197       73.360    12576.417    13970.605     5381.623        3.018        1.596      168.656       67.603        0.161      341.928       16.979      856.587
05/03/2014  23:46:00      -35.863     -116.611        1.002      134.763       74.057       56.644    18161.074     5484.378     3208.490        2.086        1.343      122.001       43.938        0.130      341.813       16.784      856.643
05/03/2014  23:47:00     -105.500     -139.226       -9.879       83.994       93.890       38.822     7054.914     8815.421     1507.140        2.399        0.869      174.683       37.472        0.046      341.844       16.838      856.735
05/03/2014  23:48:00      -72.534     -221.466       -6.479      113.296       86.746       65.980    12836.051     7524.955     4353.381        3.953        1.236      233.041       49.163        0.045      341.908       16.943      856.804
05/03/2014  23:49:00      -71.519      -77.659       -6.298       91.744       72.088       42.974     8417.034     5196.611     1846.768        1.332        0.773      105.574       38.672        0.134      341.881       16.901      856.725
05/03/2014  23:50:00     -117.778      -64.836       15.549      104.638       66.023       42.140    10949.043     4359.055     1775.769        1.770        0.854      134.445       49.521        0.136      341.776       16.722      856.742
05/03/2014  23:51:00     -157.516     -155.469       -7.013       75.702       98.444       44.486     5730.850     9691.289     1978.995        3.321        0.870      221.319       43.610        0.039      341.849       16.844      856.723
05/03/2014  23:52:00      -51.422     -186.473       -9.620       95.107       64.989       35.773     9045.304     4223.632     1279.687        2.603        0.727      193.433       29.366        0.023      341.958       17.029      856.729
05/03/2014  23:53:00      -61.632     -136.227       -9.000       59.897       77.266       42.061     3587.685     5970.018     1769.159        1.688        0.566      149.520       29.488        0.039      341.921       16.968      856.730
05/03/2014  23:54:00      -76.651      -81.639        0.950       86.340       68.054       45.979     7454.635     4631.309     2114.106        1.337        0.710      111.983       34.850        0.097      341.788       16.744      856.807
05/03/2014  23:55:00      -86.909     -127.074      -14.333       96.285       93.120       49.179     9270.868     8671.254     2418.608        2.213        1.018      153.951       42.690        0.077      341.902       16.936      856.866
05/03/2014  23:56:00     -101.333      -99.869       -5.893      120.105       70.747       63.380    14425.104     5005.103     4016.966        2.186        1.172      142.275       43.757        0.095      341.885       16.906      856.843
05/03/2014  23:57:00     -170.138     -195.529       -1.487      110.798      109.392       51.655    12276.208    11966.624     2668.276        4.704        1.346      259.188       57.211        0.049      341.904       16.937      856.849
05/03/2014  23:58:00     -115.407       -9.222        7.784       86.215       68.134       42.632     7433.018     4642.263     1817.456        1.368        0.695      115.775       50.196        0.188      341.706       16.604      856.782
05/03/2014  23:59:00     -169.453      -87.237        7.488       80.889       76.749       42.222     6543.058     5890.457     1782.738        2.530        0.711      190.590       43.626        0.052      341.773       16.715      856.801
